<?xml version="1.0" encoding="UTF-8" standalone="no" ?>
<gpx xmlns="http://www.topografix.com/GPX/1/1" xmlns:xsi="http://www.w3.org/2001/XMLSchema-instance" xsi:schemaLocation="http://www.topografix.com/GPX/1/1 http://www.topografix.com/GPX/1/1/gpx.xsd" version="1.1" creator="VisuGPX - https://www.visugpx.com">
  <metadata>
    <name>Traversée des Alpes Maritimes en 3 jours</name>
    <desc><![CDATA[Jour 1, 2 et 3]]></desc>
  </metadata>
  <trk>
    <name><![CDATA[j3]]></name>
    <trkseg>
      <trkpt lat="44.14417" lon="6.75902">
        <ele>1087</ele>
        <time>2013-09-22T06:43:32Z</time>
      </trkpt>
      <trkpt lat="44.14411" lon="6.75904">
        <ele>1087</ele>
        <time>2013-09-22T06:43:37Z</time>
      </trkpt>
      <trkpt lat="44.14398" lon="6.75919">
        <ele>1087</ele>
        <time>2013-09-22T06:43:46Z</time>
      </trkpt>
      <trkpt lat="44.14383" lon="6.75947">
        <ele>1087</ele>
        <time>2013-09-22T06:43:58Z</time>
      </trkpt>
      <trkpt lat="44.14361" lon="6.75982">
        <ele>1087</ele>
        <time>2013-09-22T06:44:07Z</time>
      </trkpt>
      <trkpt lat="44.14334" lon="6.76024">
        <ele>1086</ele>
        <time>2013-09-22T06:44:13Z</time>
      </trkpt>
      <trkpt lat="44.143" lon="6.76086">
        <ele>1085</ele>
        <time>2013-09-22T06:44:21Z</time>
      </trkpt>
      <trkpt lat="44.14272" lon="6.76117">
        <ele>1084</ele>
        <time>2013-09-22T06:44:27Z</time>
      </trkpt>
      <trkpt lat="44.14258" lon="6.76127">
        <ele>1083</ele>
        <time>2013-09-22T06:44:31Z</time>
      </trkpt>
      <trkpt lat="44.14249" lon="6.76131">
        <ele>1083</ele>
        <time>2013-09-22T06:44:34Z</time>
      </trkpt>
      <trkpt lat="44.14227" lon="6.76152">
        <ele>1081</ele>
        <time>2013-09-22T06:44:44Z</time>
      </trkpt>
      <trkpt lat="44.14193" lon="6.76188">
        <ele>1079</ele>
        <time>2013-09-22T06:44:59Z</time>
      </trkpt>
      <trkpt lat="44.14165" lon="6.76231">
        <ele>1077</ele>
        <time>2013-09-22T06:45:12Z</time>
      </trkpt>
      <trkpt lat="44.14137" lon="6.76274">
        <ele>1075</ele>
        <time>2013-09-22T06:45:25Z</time>
      </trkpt>
      <trkpt lat="44.14118" lon="6.763">
        <ele>1074</ele>
        <time>2013-09-22T06:45:30Z</time>
      </trkpt>
      <trkpt lat="44.14108" lon="6.76347">
        <ele>1073</ele>
        <time>2013-09-22T06:45:37Z</time>
      </trkpt>
      <trkpt lat="44.14101" lon="6.76364">
        <ele>1072</ele>
        <time>2013-09-22T06:45:43Z</time>
      </trkpt>
      <trkpt lat="44.14085" lon="6.76357">
        <ele>1071</ele>
        <time>2013-09-22T06:45:47Z</time>
      </trkpt>
      <trkpt lat="44.14067" lon="6.76328">
        <ele>1070</ele>
        <time>2013-09-22T06:45:52Z</time>
      </trkpt>
      <trkpt lat="44.14045" lon="6.76316">
        <ele>1069</ele>
        <time>2013-09-22T06:45:56Z</time>
      </trkpt>
      <trkpt lat="44.14037" lon="6.76318">
        <ele>1068</ele>
        <time>2013-09-22T06:46:00Z</time>
      </trkpt>
      <trkpt lat="44.14035" lon="6.76332">
        <ele>1034</ele>
        <time>2013-09-22T06:52:11Z</time>
      </trkpt>
      <trkpt lat="44.14023" lon="6.76335">
        <ele>1034</ele>
        <time>2013-09-22T06:52:19Z</time>
      </trkpt>
      <trkpt lat="44.13995" lon="6.76349">
        <ele>1033</ele>
        <time>2013-09-22T06:52:28Z</time>
      </trkpt>
      <trkpt lat="44.13951" lon="6.76381">
        <ele>1033</ele>
        <time>2013-09-22T06:52:42Z</time>
      </trkpt>
      <trkpt lat="44.139" lon="6.76436">
        <ele>1032</ele>
        <time>2013-09-22T06:52:56Z</time>
      </trkpt>
      <trkpt lat="44.13826" lon="6.76495">
        <ele>1032</ele>
        <time>2013-09-22T06:53:12Z</time>
      </trkpt>
      <trkpt lat="44.13807" lon="6.7651">
        <ele>1032</ele>
        <time>2013-09-22T06:53:16Z</time>
      </trkpt>
      <trkpt lat="44.13784" lon="6.76533">
        <ele>1032</ele>
        <time>2013-09-22T06:53:21Z</time>
      </trkpt>
      <trkpt lat="44.13743" lon="6.76577">
        <ele>1031</ele>
        <time>2013-09-22T06:53:33Z</time>
      </trkpt>
      <trkpt lat="44.1372" lon="6.76592">
        <ele>1031</ele>
        <time>2013-09-22T06:53:40Z</time>
      </trkpt>
      <trkpt lat="44.13683" lon="6.76593">
        <ele>1030</ele>
        <time>2013-09-22T06:53:52Z</time>
      </trkpt>
      <trkpt lat="44.13653" lon="6.76578">
        <ele>1030</ele>
        <time>2013-09-22T06:54:04Z</time>
      </trkpt>
      <trkpt lat="44.13622" lon="6.76576">
        <ele>1029</ele>
        <time>2013-09-22T06:54:18Z</time>
      </trkpt>
      <trkpt lat="44.13596" lon="6.76582">
        <ele>1028</ele>
        <time>2013-09-22T06:54:32Z</time>
      </trkpt>
      <trkpt lat="44.13572" lon="6.76592">
        <ele>1028</ele>
        <time>2013-09-22T06:54:47Z</time>
      </trkpt>
      <trkpt lat="44.13536" lon="6.76578">
        <ele>1028</ele>
        <time>2013-09-22T06:54:58Z</time>
      </trkpt>
      <trkpt lat="44.13516" lon="6.76588">
        <ele>1028</ele>
        <time>2013-09-22T06:55:04Z</time>
      </trkpt>
      <trkpt lat="44.13491" lon="6.76602">
        <ele>1028</ele>
        <time>2013-09-22T06:55:17Z</time>
      </trkpt>
      <trkpt lat="44.13466" lon="6.76615">
        <ele>1028</ele>
        <time>2013-09-22T06:55:34Z</time>
      </trkpt>
      <trkpt lat="44.13441" lon="6.76616">
        <ele>1030</ele>
        <time>2013-09-22T06:55:50Z</time>
      </trkpt>
      <trkpt lat="44.13412" lon="6.76609">
        <ele>1030</ele>
        <time>2013-09-22T06:56:05Z</time>
      </trkpt>
      <trkpt lat="44.13366" lon="6.76597">
        <ele>1031</ele>
        <time>2013-09-22T06:56:17Z</time>
      </trkpt>
      <trkpt lat="44.13329" lon="6.76597">
        <ele>1031</ele>
        <time>2013-09-22T06:56:29Z</time>
      </trkpt>
      <trkpt lat="44.13301" lon="6.766">
        <ele>1030</ele>
        <time>2013-09-22T06:56:36Z</time>
      </trkpt>
      <trkpt lat="44.13294" lon="6.76621">
        <ele>1030</ele>
        <time>2013-09-22T06:56:39Z</time>
      </trkpt>
      <trkpt lat="44.13264" lon="6.76651">
        <ele>1030</ele>
        <time>2013-09-22T06:56:46Z</time>
      </trkpt>
      <trkpt lat="44.13248" lon="6.76667">
        <ele>1030</ele>
        <time>2013-09-22T06:56:51Z</time>
      </trkpt>
      <trkpt lat="44.13231" lon="6.76675">
        <ele>1030</ele>
        <time>2013-09-22T06:56:56Z</time>
      </trkpt>
      <trkpt lat="44.13199" lon="6.76651">
        <ele>1029</ele>
        <time>2013-09-22T06:57:02Z</time>
      </trkpt>
      <trkpt lat="44.13182" lon="6.76646">
        <ele>1029</ele>
        <time>2013-09-22T06:57:06Z</time>
      </trkpt>
      <trkpt lat="44.13172" lon="6.76646">
        <ele>1029</ele>
        <time>2013-09-22T06:57:11Z</time>
      </trkpt>
      <trkpt lat="44.13158" lon="6.76648">
        <ele>1028</ele>
        <time>2013-09-22T06:57:19Z</time>
      </trkpt>
      <trkpt lat="44.13158" lon="6.76648">
        <ele>1027</ele>
        <time>2013-09-22T06:57:33Z</time>
      </trkpt>
      <trkpt lat="44.13152" lon="6.76656">
        <ele>1023</ele>
        <time>2013-09-22T07:00:17Z</time>
      </trkpt>
      <trkpt lat="44.13116" lon="6.76702">
        <ele>1023</ele>
        <time>2013-09-22T07:00:33Z</time>
      </trkpt>
      <trkpt lat="44.13107" lon="6.76754">
        <ele>1023</ele>
        <time>2013-09-22T07:00:47Z</time>
      </trkpt>
      <trkpt lat="44.13102" lon="6.76771">
        <ele>1023</ele>
        <time>2013-09-22T07:00:52Z</time>
      </trkpt>
      <trkpt lat="44.13084" lon="6.76772">
        <ele>1024</ele>
        <time>2013-09-22T07:01:03Z</time>
      </trkpt>
      <trkpt lat="44.13064" lon="6.76761">
        <ele>1024</ele>
        <time>2013-09-22T07:01:19Z</time>
      </trkpt>
      <trkpt lat="44.13057" lon="6.76766">
        <ele>1024</ele>
        <time>2013-09-22T07:01:25Z</time>
      </trkpt>
      <trkpt lat="44.13038" lon="6.76802">
        <ele>1025</ele>
        <time>2013-09-22T07:01:44Z</time>
      </trkpt>
      <trkpt lat="44.13027" lon="6.76826">
        <ele>1027</ele>
        <time>2013-09-22T07:01:57Z</time>
      </trkpt>
      <trkpt lat="44.13024" lon="6.76835">
        <ele>1027</ele>
        <time>2013-09-22T07:02:02Z</time>
      </trkpt>
      <trkpt lat="44.13017" lon="6.7685">
        <ele>1028</ele>
        <time>2013-09-22T07:02:10Z</time>
      </trkpt>
      <trkpt lat="44.13007" lon="6.76886">
        <ele>1030</ele>
        <time>2013-09-22T07:02:25Z</time>
      </trkpt>
      <trkpt lat="44.13006" lon="6.769">
        <ele>1031</ele>
        <time>2013-09-22T07:02:31Z</time>
      </trkpt>
      <trkpt lat="44.12999" lon="6.76932">
        <ele>1032</ele>
        <time>2013-09-22T07:02:46Z</time>
      </trkpt>
      <trkpt lat="44.12986" lon="6.76971">
        <ele>1034</ele>
        <time>2013-09-22T07:03:04Z</time>
      </trkpt>
      <trkpt lat="44.1297" lon="6.76998">
        <ele>1037</ele>
        <time>2013-09-22T07:03:19Z</time>
      </trkpt>
      <trkpt lat="44.12943" lon="6.77005">
        <ele>1039</ele>
        <time>2013-09-22T07:03:38Z</time>
      </trkpt>
      <trkpt lat="44.12907" lon="6.7703">
        <ele>1041</ele>
        <time>2013-09-22T07:03:54Z</time>
      </trkpt>
      <trkpt lat="44.12877" lon="6.77051">
        <ele>1042</ele>
        <time>2013-09-22T07:04:02Z</time>
      </trkpt>
      <trkpt lat="44.12843" lon="6.77056">
        <ele>1043</ele>
        <time>2013-09-22T07:04:10Z</time>
      </trkpt>
      <trkpt lat="44.12818" lon="6.77076">
        <ele>1045</ele>
        <time>2013-09-22T07:04:19Z</time>
      </trkpt>
      <trkpt lat="44.12792" lon="6.77124">
        <ele>1046</ele>
        <time>2013-09-22T07:04:33Z</time>
      </trkpt>
      <trkpt lat="44.12754" lon="6.77142">
        <ele>1048</ele>
        <time>2013-09-22T07:04:48Z</time>
      </trkpt>
      <trkpt lat="44.12725" lon="6.7719">
        <ele>1050</ele>
        <time>2013-09-22T07:05:05Z</time>
      </trkpt>
      <trkpt lat="44.12702" lon="6.77242">
        <ele>1051</ele>
        <time>2013-09-22T07:05:21Z</time>
      </trkpt>
      <trkpt lat="44.12663" lon="6.77266">
        <ele>1052</ele>
        <time>2013-09-22T07:05:37Z</time>
      </trkpt>
      <trkpt lat="44.12637" lon="6.77288">
        <ele>1053</ele>
        <time>2013-09-22T07:05:49Z</time>
      </trkpt>
      <trkpt lat="44.12618" lon="6.773">
        <ele>1054</ele>
        <time>2013-09-22T07:06:01Z</time>
      </trkpt>
      <trkpt lat="44.12589" lon="6.77296">
        <ele>1055</ele>
        <time>2013-09-22T07:06:16Z</time>
      </trkpt>
      <trkpt lat="44.12568" lon="6.77312">
        <ele>1055</ele>
        <time>2013-09-22T07:06:29Z</time>
      </trkpt>
      <trkpt lat="44.12545" lon="6.7733">
        <ele>1056</ele>
        <time>2013-09-22T07:06:43Z</time>
      </trkpt>
      <trkpt lat="44.12515" lon="6.77339">
        <ele>1057</ele>
        <time>2013-09-22T07:06:59Z</time>
      </trkpt>
      <trkpt lat="44.1249" lon="6.7736">
        <ele>1058</ele>
        <time>2013-09-22T07:07:13Z</time>
      </trkpt>
      <trkpt lat="44.12462" lon="6.77385">
        <ele>1060</ele>
        <time>2013-09-22T07:07:29Z</time>
      </trkpt>
      <trkpt lat="44.12435" lon="6.77412">
        <ele>1062</ele>
        <time>2013-09-22T07:07:45Z</time>
      </trkpt>
      <trkpt lat="44.12411" lon="6.77447">
        <ele>1065</ele>
        <time>2013-09-22T07:08:02Z</time>
      </trkpt>
      <trkpt lat="44.12384" lon="6.77478">
        <ele>1068</ele>
        <time>2013-09-22T07:08:20Z</time>
      </trkpt>
      <trkpt lat="44.12363" lon="6.77501">
        <ele>1071</ele>
        <time>2013-09-22T07:08:33Z</time>
      </trkpt>
      <trkpt lat="44.12339" lon="6.77516">
        <ele>1072</ele>
        <time>2013-09-22T07:08:48Z</time>
      </trkpt>
      <trkpt lat="44.12317" lon="6.77536">
        <ele>1074</ele>
        <time>2013-09-22T07:09:03Z</time>
      </trkpt>
      <trkpt lat="44.1231" lon="6.77547">
        <ele>1075</ele>
        <time>2013-09-22T07:09:09Z</time>
      </trkpt>
      <trkpt lat="44.123" lon="6.77559">
        <ele>1076</ele>
        <time>2013-09-22T07:09:16Z</time>
      </trkpt>
      <trkpt lat="44.12291" lon="6.77571">
        <ele>1076</ele>
        <time>2013-09-22T07:09:23Z</time>
      </trkpt>
      <trkpt lat="44.12268" lon="6.77595">
        <ele>1078</ele>
        <time>2013-09-22T07:09:38Z</time>
      </trkpt>
      <trkpt lat="44.12251" lon="6.77624">
        <ele>1080</ele>
        <time>2013-09-22T07:09:52Z</time>
      </trkpt>
      <trkpt lat="44.12236" lon="6.77656">
        <ele>1082</ele>
        <time>2013-09-22T07:10:07Z</time>
      </trkpt>
      <trkpt lat="44.12214" lon="6.77688">
        <ele>1083</ele>
        <time>2013-09-22T07:10:24Z</time>
      </trkpt>
      <trkpt lat="44.12189" lon="6.77703">
        <ele>1085</ele>
        <time>2013-09-22T07:10:38Z</time>
      </trkpt>
      <trkpt lat="44.12162" lon="6.77709">
        <ele>1086</ele>
        <time>2013-09-22T07:10:53Z</time>
      </trkpt>
      <trkpt lat="44.12132" lon="6.77709">
        <ele>1088</ele>
        <time>2013-09-22T07:11:10Z</time>
      </trkpt>
      <trkpt lat="44.12105" lon="6.77721">
        <ele>1090</ele>
        <time>2013-09-22T07:11:25Z</time>
      </trkpt>
      <trkpt lat="44.12075" lon="6.77734">
        <ele>1093</ele>
        <time>2013-09-22T07:11:42Z</time>
      </trkpt>
      <trkpt lat="44.12048" lon="6.77732">
        <ele>1096</ele>
        <time>2013-09-22T07:11:56Z</time>
      </trkpt>
      <trkpt lat="44.1201" lon="6.77729">
        <ele>1099</ele>
        <time>2013-09-22T07:12:13Z</time>
      </trkpt>
      <trkpt lat="44.11988" lon="6.77737">
        <ele>1102</ele>
        <time>2013-09-22T07:12:25Z</time>
      </trkpt>
      <trkpt lat="44.11983" lon="6.77748">
        <ele>1103</ele>
        <time>2013-09-22T07:12:29Z</time>
      </trkpt>
      <trkpt lat="44.11983" lon="6.77761">
        <ele>1104</ele>
        <time>2013-09-22T07:12:33Z</time>
      </trkpt>
      <trkpt lat="44.11993" lon="6.77776">
        <ele>1105</ele>
        <time>2013-09-22T07:12:39Z</time>
      </trkpt>
      <trkpt lat="44.11995" lon="6.778">
        <ele>1106</ele>
        <time>2013-09-22T07:12:47Z</time>
      </trkpt>
      <trkpt lat="44.11983" lon="6.77855">
        <ele>1109</ele>
        <time>2013-09-22T07:13:06Z</time>
      </trkpt>
      <trkpt lat="44.11972" lon="6.77906">
        <ele>1111</ele>
        <time>2013-09-22T07:13:24Z</time>
      </trkpt>
      <trkpt lat="44.11951" lon="6.77951">
        <ele>1112</ele>
        <time>2013-09-22T07:13:42Z</time>
      </trkpt>
      <trkpt lat="44.11917" lon="6.7795">
        <ele>1114</ele>
        <time>2013-09-22T07:13:57Z</time>
      </trkpt>
      <trkpt lat="44.11877" lon="6.77962">
        <ele>1116</ele>
        <time>2013-09-22T07:14:15Z</time>
      </trkpt>
      <trkpt lat="44.11849" lon="6.77979">
        <ele>1118</ele>
        <time>2013-09-22T07:14:30Z</time>
      </trkpt>
      <trkpt lat="44.11837" lon="6.77988">
        <ele>1119</ele>
        <time>2013-09-22T07:14:36Z</time>
      </trkpt>
      <trkpt lat="44.11815" lon="6.78013">
        <ele>1121</ele>
        <time>2013-09-22T07:14:48Z</time>
      </trkpt>
      <trkpt lat="44.11806" lon="6.78028">
        <ele>1122</ele>
        <time>2013-09-22T07:14:54Z</time>
      </trkpt>
      <trkpt lat="44.11786" lon="6.78072">
        <ele>1126</ele>
        <time>2013-09-22T07:15:11Z</time>
      </trkpt>
      <trkpt lat="44.11762" lon="6.78086">
        <ele>1127</ele>
        <time>2013-09-22T07:15:23Z</time>
      </trkpt>
      <trkpt lat="44.11749" lon="6.78086">
        <ele>1128</ele>
        <time>2013-09-22T07:15:29Z</time>
      </trkpt>
      <trkpt lat="44.11728" lon="6.78076">
        <ele>1128</ele>
        <time>2013-09-22T07:15:38Z</time>
      </trkpt>
      <trkpt lat="44.11695" lon="6.78046">
        <ele>1130</ele>
        <time>2013-09-22T07:15:55Z</time>
      </trkpt>
      <trkpt lat="44.11665" lon="6.78019">
        <ele>1132</ele>
        <time>2013-09-22T07:16:10Z</time>
      </trkpt>
      <trkpt lat="44.11634" lon="6.78006">
        <ele>1134</ele>
        <time>2013-09-22T07:16:26Z</time>
      </trkpt>
      <trkpt lat="44.11599" lon="6.7801">
        <ele>1136</ele>
        <time>2013-09-22T07:16:43Z</time>
      </trkpt>
      <trkpt lat="44.11565" lon="6.78015">
        <ele>1139</ele>
        <time>2013-09-22T07:17:01Z</time>
      </trkpt>
      <trkpt lat="44.11533" lon="6.78009">
        <ele>1142</ele>
        <time>2013-09-22T07:17:19Z</time>
      </trkpt>
      <trkpt lat="44.11522" lon="6.77998">
        <ele>1143</ele>
        <time>2013-09-22T07:17:27Z</time>
      </trkpt>
      <trkpt lat="44.11526" lon="6.7799">
        <ele>1144</ele>
        <time>2013-09-22T07:17:32Z</time>
      </trkpt>
      <trkpt lat="44.11533" lon="6.77992">
        <ele>1144</ele>
        <time>2013-09-22T07:17:38Z</time>
      </trkpt>
      <trkpt lat="44.11554" lon="6.77993">
        <ele>1146</ele>
        <time>2013-09-22T07:17:51Z</time>
      </trkpt>
      <trkpt lat="44.11578" lon="6.77986">
        <ele>1148</ele>
        <time>2013-09-22T07:18:05Z</time>
      </trkpt>
      <trkpt lat="44.11605" lon="6.77974">
        <ele>1151</ele>
        <time>2013-09-22T07:18:21Z</time>
      </trkpt>
      <trkpt lat="44.11631" lon="6.77962">
        <ele>1153</ele>
        <time>2013-09-22T07:18:36Z</time>
      </trkpt>
      <trkpt lat="44.11675" lon="6.77963">
        <ele>1156</ele>
        <time>2013-09-22T07:18:57Z</time>
      </trkpt>
      <trkpt lat="44.11705" lon="6.77971">
        <ele>1159</ele>
        <time>2013-09-22T07:19:13Z</time>
      </trkpt>
      <trkpt lat="44.1173" lon="6.77988">
        <ele>1162</ele>
        <time>2013-09-22T07:19:29Z</time>
      </trkpt>
      <trkpt lat="44.11751" lon="6.7797">
        <ele>1165</ele>
        <time>2013-09-22T07:19:44Z</time>
      </trkpt>
      <trkpt lat="44.11766" lon="6.77945">
        <ele>1167</ele>
        <time>2013-09-22T07:20:00Z</time>
      </trkpt>
      <trkpt lat="44.11784" lon="6.77916">
        <ele>1170</ele>
        <time>2013-09-22T07:20:18Z</time>
      </trkpt>
      <trkpt lat="44.11806" lon="6.77888">
        <ele>1174</ele>
        <time>2013-09-22T07:20:36Z</time>
      </trkpt>
      <trkpt lat="44.11832" lon="6.77851">
        <ele>1180</ele>
        <time>2013-09-22T07:20:59Z</time>
      </trkpt>
      <trkpt lat="44.11847" lon="6.77821">
        <ele>1184</ele>
        <time>2013-09-22T07:21:17Z</time>
      </trkpt>
      <trkpt lat="44.1185" lon="6.77809">
        <ele>1185</ele>
        <time>2013-09-22T07:21:23Z</time>
      </trkpt>
      <trkpt lat="44.11851" lon="6.77796">
        <ele>1187</ele>
        <time>2013-09-22T07:21:31Z</time>
      </trkpt>
      <trkpt lat="44.1186" lon="6.77775">
        <ele>1189</ele>
        <time>2013-09-22T07:21:43Z</time>
      </trkpt>
      <trkpt lat="44.11874" lon="6.77746">
        <ele>1193</ele>
        <time>2013-09-22T07:22:00Z</time>
      </trkpt>
      <trkpt lat="44.11867" lon="6.77739">
        <ele>1194</ele>
        <time>2013-09-22T07:22:07Z</time>
      </trkpt>
      <trkpt lat="44.11858" lon="6.77745">
        <ele>1196</ele>
        <time>2013-09-22T07:22:15Z</time>
      </trkpt>
      <trkpt lat="44.11842" lon="6.77763">
        <ele>1199</ele>
        <time>2013-09-22T07:22:31Z</time>
      </trkpt>
      <trkpt lat="44.11823" lon="6.77785">
        <ele>1203</ele>
        <time>2013-09-22T07:22:49Z</time>
      </trkpt>
      <trkpt lat="44.11806" lon="6.77807">
        <ele>1206</ele>
        <time>2013-09-22T07:23:06Z</time>
      </trkpt>
      <trkpt lat="44.11787" lon="6.77833">
        <ele>1208</ele>
        <time>2013-09-22T07:23:25Z</time>
      </trkpt>
      <trkpt lat="44.11769" lon="6.77861">
        <ele>1212</ele>
        <time>2013-09-22T07:23:44Z</time>
      </trkpt>
      <trkpt lat="44.11749" lon="6.77873">
        <ele>1214</ele>
        <time>2013-09-22T07:24:00Z</time>
      </trkpt>
      <trkpt lat="44.11728" lon="6.77878">
        <ele>1217</ele>
        <time>2013-09-22T07:24:16Z</time>
      </trkpt>
      <trkpt lat="44.11704" lon="6.77869">
        <ele>1219</ele>
        <time>2013-09-22T07:24:33Z</time>
      </trkpt>
      <trkpt lat="44.11694" lon="6.77861">
        <ele>1220</ele>
        <time>2013-09-22T07:24:41Z</time>
      </trkpt>
      <trkpt lat="44.11702" lon="6.77848">
        <ele>1222</ele>
        <time>2013-09-22T07:24:50Z</time>
      </trkpt>
      <trkpt lat="44.11712" lon="6.7785">
        <ele>1223</ele>
        <time>2013-09-22T07:24:57Z</time>
      </trkpt>
      <trkpt lat="44.11735" lon="6.77842">
        <ele>1226</ele>
        <time>2013-09-22T07:25:14Z</time>
      </trkpt>
      <trkpt lat="44.11747" lon="6.77825">
        <ele>1229</ele>
        <time>2013-09-22T07:25:25Z</time>
      </trkpt>
      <trkpt lat="44.11755" lon="6.77805">
        <ele>1231</ele>
        <time>2013-09-22T07:25:36Z</time>
      </trkpt>
      <trkpt lat="44.11764" lon="6.77777">
        <ele>1233</ele>
        <time>2013-09-22T07:25:51Z</time>
      </trkpt>
      <trkpt lat="44.11775" lon="6.77748">
        <ele>1237</ele>
        <time>2013-09-22T07:26:08Z</time>
      </trkpt>
      <trkpt lat="44.1179" lon="6.77717">
        <ele>1241</ele>
        <time>2013-09-22T07:26:28Z</time>
      </trkpt>
      <trkpt lat="44.11807" lon="6.77689">
        <ele>1245</ele>
        <time>2013-09-22T07:26:48Z</time>
      </trkpt>
      <trkpt lat="44.11821" lon="6.77671">
        <ele>1248</ele>
        <time>2013-09-22T07:27:02Z</time>
      </trkpt>
      <trkpt lat="44.11826" lon="6.7766">
        <ele>1250</ele>
        <time>2013-09-22T07:27:09Z</time>
      </trkpt>
      <trkpt lat="44.1182" lon="6.77652">
        <ele>1251</ele>
        <time>2013-09-22T07:27:16Z</time>
      </trkpt>
      <trkpt lat="44.11805" lon="6.7767">
        <ele>1254</ele>
        <time>2013-09-22T07:27:29Z</time>
      </trkpt>
      <trkpt lat="44.11783" lon="6.77698">
        <ele>1257</ele>
        <time>2013-09-22T07:27:48Z</time>
      </trkpt>
      <trkpt lat="44.11758" lon="6.77733">
        <ele>1260</ele>
        <time>2013-09-22T07:28:10Z</time>
      </trkpt>
      <trkpt lat="44.11734" lon="6.77768">
        <ele>1262</ele>
        <time>2013-09-22T07:28:31Z</time>
      </trkpt>
      <trkpt lat="44.11716" lon="6.7778">
        <ele>1264</ele>
        <time>2013-09-22T07:28:44Z</time>
      </trkpt>
      <trkpt lat="44.11697" lon="6.77793">
        <ele>1265</ele>
        <time>2013-09-22T07:28:56Z</time>
      </trkpt>
      <trkpt lat="44.11678" lon="6.77818">
        <ele>1267</ele>
        <time>2013-09-22T07:29:12Z</time>
      </trkpt>
      <trkpt lat="44.11657" lon="6.77839">
        <ele>1270</ele>
        <time>2013-09-22T07:29:29Z</time>
      </trkpt>
      <trkpt lat="44.11627" lon="6.77845">
        <ele>1272</ele>
        <time>2013-09-22T07:29:48Z</time>
      </trkpt>
      <trkpt lat="44.11595" lon="6.77849">
        <ele>1276</ele>
        <time>2013-09-22T07:30:09Z</time>
      </trkpt>
      <trkpt lat="44.11567" lon="6.77859">
        <ele>1279</ele>
        <time>2013-09-22T07:30:28Z</time>
      </trkpt>
      <trkpt lat="44.11544" lon="6.77837">
        <ele>1281</ele>
        <time>2013-09-22T07:30:40Z</time>
      </trkpt>
      <trkpt lat="44.11509" lon="6.77834">
        <ele>1282</ele>
        <time>2013-09-22T07:30:50Z</time>
      </trkpt>
      <trkpt lat="44.1147" lon="6.77829">
        <ele>1283</ele>
        <time>2013-09-22T07:31:00Z</time>
      </trkpt>
      <trkpt lat="44.11444" lon="6.77841">
        <ele>1284</ele>
        <time>2013-09-22T07:31:05Z</time>
      </trkpt>
      <trkpt lat="44.11426" lon="6.77824">
        <ele>1284</ele>
        <time>2013-09-22T07:31:10Z</time>
      </trkpt>
      <trkpt lat="44.11404" lon="6.77806">
        <ele>1286</ele>
        <time>2013-09-22T07:31:20Z</time>
      </trkpt>
      <trkpt lat="44.11375" lon="6.77783">
        <ele>1288</ele>
        <time>2013-09-22T07:31:35Z</time>
      </trkpt>
      <trkpt lat="44.11349" lon="6.77786">
        <ele>1290</ele>
        <time>2013-09-22T07:31:49Z</time>
      </trkpt>
      <trkpt lat="44.11322" lon="6.77775">
        <ele>1291</ele>
        <time>2013-09-22T07:32:04Z</time>
      </trkpt>
      <trkpt lat="44.11294" lon="6.77767">
        <ele>1293</ele>
        <time>2013-09-22T07:32:20Z</time>
      </trkpt>
      <trkpt lat="44.11277" lon="6.77773">
        <ele>1294</ele>
        <time>2013-09-22T07:32:29Z</time>
      </trkpt>
      <trkpt lat="44.11243" lon="6.77771">
        <ele>1297</ele>
        <time>2013-09-22T07:32:48Z</time>
      </trkpt>
      <trkpt lat="44.11222" lon="6.77742">
        <ele>1300</ele>
        <time>2013-09-22T07:33:05Z</time>
      </trkpt>
      <trkpt lat="44.11197" lon="6.77707">
        <ele>1302</ele>
        <time>2013-09-22T07:33:25Z</time>
      </trkpt>
      <trkpt lat="44.11179" lon="6.77677">
        <ele>1303</ele>
        <time>2013-09-22T07:33:41Z</time>
      </trkpt>
      <trkpt lat="44.1116" lon="6.7764">
        <ele>1305</ele>
        <time>2013-09-22T07:33:59Z</time>
      </trkpt>
      <trkpt lat="44.11128" lon="6.77615">
        <ele>1309</ele>
        <time>2013-09-22T07:34:19Z</time>
      </trkpt>
      <trkpt lat="44.111" lon="6.77592">
        <ele>1313</ele>
        <time>2013-09-22T07:34:37Z</time>
      </trkpt>
      <trkpt lat="44.11074" lon="6.77573">
        <ele>1315</ele>
        <time>2013-09-22T07:34:53Z</time>
      </trkpt>
      <trkpt lat="44.11051" lon="6.77546">
        <ele>1318</ele>
        <time>2013-09-22T07:35:11Z</time>
      </trkpt>
      <trkpt lat="44.11037" lon="6.77518">
        <ele>1320</ele>
        <time>2013-09-22T07:35:24Z</time>
      </trkpt>
      <trkpt lat="44.11018" lon="6.77527">
        <ele>1322</ele>
        <time>2013-09-22T07:35:36Z</time>
      </trkpt>
      <trkpt lat="44.1101" lon="6.7754">
        <ele>1323</ele>
        <time>2013-09-22T07:35:43Z</time>
      </trkpt>
      <trkpt lat="44.10987" lon="6.77563">
        <ele>1327</ele>
        <time>2013-09-22T07:35:58Z</time>
      </trkpt>
      <trkpt lat="44.10969" lon="6.77541">
        <ele>1330</ele>
        <time>2013-09-22T07:36:11Z</time>
      </trkpt>
      <trkpt lat="44.10951" lon="6.77502">
        <ele>1334</ele>
        <time>2013-09-22T07:36:29Z</time>
      </trkpt>
      <trkpt lat="44.1092" lon="6.77475">
        <ele>1338</ele>
        <time>2013-09-22T07:36:48Z</time>
      </trkpt>
      <trkpt lat="44.10889" lon="6.7746">
        <ele>1341</ele>
        <time>2013-09-22T07:37:06Z</time>
      </trkpt>
      <trkpt lat="44.10859" lon="6.77454">
        <ele>1343</ele>
        <time>2013-09-22T07:37:22Z</time>
      </trkpt>
      <trkpt lat="44.10825" lon="6.77437">
        <ele>1346</ele>
        <time>2013-09-22T07:37:41Z</time>
      </trkpt>
      <trkpt lat="44.10805" lon="6.7742">
        <ele>1348</ele>
        <time>2013-09-22T07:37:56Z</time>
      </trkpt>
      <trkpt lat="44.10776" lon="6.77409">
        <ele>1351</ele>
        <time>2013-09-22T07:38:13Z</time>
      </trkpt>
      <trkpt lat="44.10746" lon="6.77401">
        <ele>1352</ele>
        <time>2013-09-22T07:38:31Z</time>
      </trkpt>
      <trkpt lat="44.10714" lon="6.77384">
        <ele>1354</ele>
        <time>2013-09-22T07:38:48Z</time>
      </trkpt>
      <trkpt lat="44.10706" lon="6.77352">
        <ele>1356</ele>
        <time>2013-09-22T07:38:59Z</time>
      </trkpt>
      <trkpt lat="44.10701" lon="6.77343">
        <ele>1357</ele>
        <time>2013-09-22T07:39:05Z</time>
      </trkpt>
      <trkpt lat="44.10701" lon="6.77343">
        <ele>1359</ele>
        <time>2013-09-22T07:39:19Z</time>
      </trkpt>
      <trkpt lat="44.10707" lon="6.77342">
        <ele>1370</ele>
        <time>2013-09-22T07:40:56Z</time>
      </trkpt>
      <trkpt lat="44.10717" lon="6.77341">
        <ele>1370</ele>
        <time>2013-09-22T07:41:01Z</time>
      </trkpt>
      <trkpt lat="44.10722" lon="6.77345">
        <ele>1372</ele>
        <time>2013-09-22T07:41:33Z</time>
      </trkpt>
      <trkpt lat="44.10725" lon="6.77363">
        <ele>1378</ele>
        <time>2013-09-22T07:49:04Z</time>
      </trkpt>
      <trkpt lat="44.1074" lon="6.77375">
        <ele>1377</ele>
        <time>2013-09-22T07:49:18Z</time>
      </trkpt>
      <trkpt lat="44.10761" lon="6.77373">
        <ele>1378</ele>
        <time>2013-09-22T07:49:34Z</time>
      </trkpt>
      <trkpt lat="44.10782" lon="6.77369">
        <ele>1378</ele>
        <time>2013-09-22T07:49:49Z</time>
      </trkpt>
      <trkpt lat="44.10789" lon="6.77368">
        <ele>1378</ele>
        <time>2013-09-22T07:49:54Z</time>
      </trkpt>
      <trkpt lat="44.10817" lon="6.77366">
        <ele>1378</ele>
        <time>2013-09-22T07:50:10Z</time>
      </trkpt>
      <trkpt lat="44.10844" lon="6.77375">
        <ele>1379</ele>
        <time>2013-09-22T07:50:24Z</time>
      </trkpt>
      <trkpt lat="44.10846" lon="6.77368">
        <ele>1380</ele>
        <time>2013-09-22T07:50:28Z</time>
      </trkpt>
      <trkpt lat="44.10836" lon="6.77359">
        <ele>1380</ele>
        <time>2013-09-22T07:50:35Z</time>
      </trkpt>
      <trkpt lat="44.10818" lon="6.77354">
        <ele>1382</ele>
        <time>2013-09-22T07:50:46Z</time>
      </trkpt>
      <trkpt lat="44.10792" lon="6.77348">
        <ele>1383</ele>
        <time>2013-09-22T07:51:03Z</time>
      </trkpt>
      <trkpt lat="44.10778" lon="6.77318">
        <ele>1384</ele>
        <time>2013-09-22T07:51:17Z</time>
      </trkpt>
      <trkpt lat="44.10771" lon="6.77291">
        <ele>1386</ele>
        <time>2013-09-22T07:51:32Z</time>
      </trkpt>
      <trkpt lat="44.10748" lon="6.77277">
        <ele>1387</ele>
        <time>2013-09-22T07:51:49Z</time>
      </trkpt>
      <trkpt lat="44.10725" lon="6.77268">
        <ele>1388</ele>
        <time>2013-09-22T07:52:03Z</time>
      </trkpt>
      <trkpt lat="44.107" lon="6.77254">
        <ele>1389</ele>
        <time>2013-09-22T07:52:18Z</time>
      </trkpt>
      <trkpt lat="44.10669" lon="6.77215">
        <ele>1391</ele>
        <time>2013-09-22T07:52:37Z</time>
      </trkpt>
      <trkpt lat="44.10638" lon="6.77172">
        <ele>1394</ele>
        <time>2013-09-22T07:52:57Z</time>
      </trkpt>
      <trkpt lat="44.10624" lon="6.77134">
        <ele>1396</ele>
        <time>2013-09-22T07:53:14Z</time>
      </trkpt>
      <trkpt lat="44.10612" lon="6.77096">
        <ele>1398</ele>
        <time>2013-09-22T07:53:30Z</time>
      </trkpt>
      <trkpt lat="44.10602" lon="6.77053">
        <ele>1400</ele>
        <time>2013-09-22T07:53:47Z</time>
      </trkpt>
      <trkpt lat="44.10587" lon="6.7702">
        <ele>1402</ele>
        <time>2013-09-22T07:54:03Z</time>
      </trkpt>
      <trkpt lat="44.10571" lon="6.76996">
        <ele>1404</ele>
        <time>2013-09-22T07:54:17Z</time>
      </trkpt>
      <trkpt lat="44.10538" lon="6.76994">
        <ele>1408</ele>
        <time>2013-09-22T07:54:37Z</time>
      </trkpt>
      <trkpt lat="44.10515" lon="6.76984">
        <ele>1411</ele>
        <time>2013-09-22T07:54:53Z</time>
      </trkpt>
      <trkpt lat="44.10508" lon="6.7698">
        <ele>1412</ele>
        <time>2013-09-22T07:54:59Z</time>
      </trkpt>
      <trkpt lat="44.10499" lon="6.76979">
        <ele>1413</ele>
        <time>2013-09-22T07:55:05Z</time>
      </trkpt>
      <trkpt lat="44.10473" lon="6.76965">
        <ele>1417</ele>
        <time>2013-09-22T07:55:23Z</time>
      </trkpt>
      <trkpt lat="44.10439" lon="6.7696">
        <ele>1421</ele>
        <time>2013-09-22T07:55:43Z</time>
      </trkpt>
      <trkpt lat="44.10431" lon="6.7697">
        <ele>1422</ele>
        <time>2013-09-22T07:55:49Z</time>
      </trkpt>
      <trkpt lat="44.10418" lon="6.76997">
        <ele>1423</ele>
        <time>2013-09-22T07:55:59Z</time>
      </trkpt>
      <trkpt lat="44.10411" lon="6.77008">
        <ele>1423</ele>
        <time>2013-09-22T07:56:03Z</time>
      </trkpt>
      <trkpt lat="44.10394" lon="6.7702">
        <ele>1424</ele>
        <time>2013-09-22T07:56:12Z</time>
      </trkpt>
      <trkpt lat="44.10379" lon="6.76993">
        <ele>1426</ele>
        <time>2013-09-22T07:56:24Z</time>
      </trkpt>
      <trkpt lat="44.10366" lon="6.76965">
        <ele>1427</ele>
        <time>2013-09-22T07:56:38Z</time>
      </trkpt>
      <trkpt lat="44.10365" lon="6.76961">
        <ele>1428</ele>
        <time>2013-09-22T07:57:28Z</time>
      </trkpt>
      <trkpt lat="44.10356" lon="6.76952">
        <ele>1436</ele>
        <time>2013-09-22T07:58:53Z</time>
      </trkpt>
      <trkpt lat="44.10341" lon="6.7691">
        <ele>1436</ele>
        <time>2013-09-22T07:59:09Z</time>
      </trkpt>
      <trkpt lat="44.10327" lon="6.76881">
        <ele>1436</ele>
        <time>2013-09-22T07:59:22Z</time>
      </trkpt>
      <trkpt lat="44.10321" lon="6.7687">
        <ele>1436</ele>
        <time>2013-09-22T07:59:27Z</time>
      </trkpt>
      <trkpt lat="44.10308" lon="6.76857">
        <ele>1437</ele>
        <time>2013-09-22T07:59:35Z</time>
      </trkpt>
      <trkpt lat="44.103" lon="6.76855">
        <ele>1437</ele>
        <time>2013-09-22T07:59:39Z</time>
      </trkpt>
      <trkpt lat="44.10294" lon="6.76855">
        <ele>1437</ele>
        <time>2013-09-22T07:59:42Z</time>
      </trkpt>
      <trkpt lat="44.10275" lon="6.76856">
        <ele>1437</ele>
        <time>2013-09-22T07:59:50Z</time>
      </trkpt>
      <trkpt lat="44.10261" lon="6.7685">
        <ele>1437</ele>
        <time>2013-09-22T07:59:56Z</time>
      </trkpt>
      <trkpt lat="44.10254" lon="6.76839">
        <ele>1437</ele>
        <time>2013-09-22T08:00:02Z</time>
      </trkpt>
      <trkpt lat="44.10245" lon="6.76827">
        <ele>1437</ele>
        <time>2013-09-22T08:00:13Z</time>
      </trkpt>
      <trkpt lat="44.10232" lon="6.76801">
        <ele>1438</ele>
        <time>2013-09-22T08:00:23Z</time>
      </trkpt>
      <trkpt lat="44.10215" lon="6.76764">
        <ele>1438</ele>
        <time>2013-09-22T08:00:36Z</time>
      </trkpt>
      <trkpt lat="44.10203" lon="6.76718">
        <ele>1439</ele>
        <time>2013-09-22T08:00:49Z</time>
      </trkpt>
      <trkpt lat="44.10201" lon="6.76713">
        <ele>1439</ele>
        <time>2013-09-22T08:00:57Z</time>
      </trkpt>
      <trkpt lat="44.102" lon="6.76732">
        <ele>1438</ele>
        <time>2013-09-22T08:01:10Z</time>
      </trkpt>
      <trkpt lat="44.10198" lon="6.7673">
        <ele>1438</ele>
        <time>2013-09-22T08:01:24Z</time>
      </trkpt>
      <trkpt lat="44.10195" lon="6.76725">
        <ele>1439</ele>
        <time>2013-09-22T08:01:47Z</time>
      </trkpt>
      <trkpt lat="44.1019" lon="6.76706">
        <ele>1440</ele>
        <time>2013-09-22T08:01:57Z</time>
      </trkpt>
      <trkpt lat="44.10194" lon="6.76698">
        <ele>1440</ele>
        <time>2013-09-22T08:02:01Z</time>
      </trkpt>
      <trkpt lat="44.10196" lon="6.76692">
        <ele>1440</ele>
        <time>2013-09-22T08:02:13Z</time>
      </trkpt>
      <trkpt lat="44.10188" lon="6.76684">
        <ele>1440</ele>
        <time>2013-09-22T08:02:25Z</time>
      </trkpt>
      <trkpt lat="44.10182" lon="6.76682">
        <ele>1440</ele>
        <time>2013-09-22T08:02:33Z</time>
      </trkpt>
      <trkpt lat="44.10176" lon="6.76685">
        <ele>1440</ele>
        <time>2013-09-22T08:02:44Z</time>
      </trkpt>
      <trkpt lat="44.10176" lon="6.76678">
        <ele>1440</ele>
        <time>2013-09-22T08:03:00Z</time>
      </trkpt>
      <trkpt lat="44.10176" lon="6.76667">
        <ele>1441</ele>
        <time>2013-09-22T08:03:14Z</time>
      </trkpt>
      <trkpt lat="44.10181" lon="6.76655">
        <ele>1442</ele>
        <time>2013-09-22T08:03:28Z</time>
      </trkpt>
      <trkpt lat="44.10186" lon="6.76647">
        <ele>1443</ele>
        <time>2013-09-22T08:03:38Z</time>
      </trkpt>
      <trkpt lat="44.10186" lon="6.76641">
        <ele>1443</ele>
        <time>2013-09-22T08:03:49Z</time>
      </trkpt>
      <trkpt lat="44.10181" lon="6.76641">
        <ele>1445</ele>
        <time>2013-09-22T08:04:06Z</time>
      </trkpt>
      <trkpt lat="44.10178" lon="6.76646">
        <ele>1446</ele>
        <time>2013-09-22T08:04:16Z</time>
      </trkpt>
      <trkpt lat="44.10165" lon="6.76652">
        <ele>1448</ele>
        <time>2013-09-22T08:04:31Z</time>
      </trkpt>
      <trkpt lat="44.10157" lon="6.76655">
        <ele>1450</ele>
        <time>2013-09-22T08:04:40Z</time>
      </trkpt>
      <trkpt lat="44.10148" lon="6.76655">
        <ele>1451</ele>
        <time>2013-09-22T08:04:49Z</time>
      </trkpt>
      <trkpt lat="44.10144" lon="6.76655">
        <ele>1451</ele>
        <time>2013-09-22T08:04:54Z</time>
      </trkpt>
      <trkpt lat="44.10139" lon="6.76653">
        <ele>1452</ele>
        <time>2013-09-22T08:05:05Z</time>
      </trkpt>
      <trkpt lat="44.10132" lon="6.7665">
        <ele>1453</ele>
        <time>2013-09-22T08:05:17Z</time>
      </trkpt>
      <trkpt lat="44.10127" lon="6.76647">
        <ele>1455</ele>
        <time>2013-09-22T08:05:31Z</time>
      </trkpt>
      <trkpt lat="44.10123" lon="6.76644">
        <ele>1456</ele>
        <time>2013-09-22T08:05:42Z</time>
      </trkpt>
      <trkpt lat="44.10118" lon="6.76647">
        <ele>1459</ele>
        <time>2013-09-22T08:05:59Z</time>
      </trkpt>
      <trkpt lat="44.10116" lon="6.76651">
        <ele>1461</ele>
        <time>2013-09-22T08:06:10Z</time>
      </trkpt>
      <trkpt lat="44.10114" lon="6.76654">
        <ele>1462</ele>
        <time>2013-09-22T08:06:21Z</time>
      </trkpt>
      <trkpt lat="44.10106" lon="6.76661">
        <ele>1466</ele>
        <time>2013-09-22T08:06:41Z</time>
      </trkpt>
      <trkpt lat="44.101" lon="6.76671">
        <ele>1469</ele>
        <time>2013-09-22T08:06:55Z</time>
      </trkpt>
      <trkpt lat="44.10095" lon="6.76676">
        <ele>1471</ele>
        <time>2013-09-22T08:07:06Z</time>
      </trkpt>
      <trkpt lat="44.1009" lon="6.76684">
        <ele>1473</ele>
        <time>2013-09-22T08:07:19Z</time>
      </trkpt>
      <trkpt lat="44.10086" lon="6.76691">
        <ele>1474</ele>
        <time>2013-09-22T08:07:30Z</time>
      </trkpt>
      <trkpt lat="44.10081" lon="6.76702">
        <ele>1475</ele>
        <time>2013-09-22T08:07:43Z</time>
      </trkpt>
      <trkpt lat="44.10078" lon="6.76707">
        <ele>1477</ele>
        <time>2013-09-22T08:07:50Z</time>
      </trkpt>
      <trkpt lat="44.10063" lon="6.76723">
        <ele>1478</ele>
        <time>2013-09-22T08:08:06Z</time>
      </trkpt>
      <trkpt lat="44.10053" lon="6.76729">
        <ele>1479</ele>
        <time>2013-09-22T08:08:15Z</time>
      </trkpt>
      <trkpt lat="44.10048" lon="6.76734">
        <ele>1480</ele>
        <time>2013-09-22T08:08:22Z</time>
      </trkpt>
      <trkpt lat="44.10041" lon="6.76738">
        <ele>1481</ele>
        <time>2013-09-22T08:08:34Z</time>
      </trkpt>
      <trkpt lat="44.10032" lon="6.7674">
        <ele>1482</ele>
        <time>2013-09-22T08:08:40Z</time>
      </trkpt>
      <trkpt lat="44.10028" lon="6.76751">
        <ele>1482</ele>
        <time>2013-09-22T08:08:49Z</time>
      </trkpt>
      <trkpt lat="44.10028" lon="6.76757">
        <ele>1483</ele>
        <time>2013-09-22T08:08:55Z</time>
      </trkpt>
      <trkpt lat="44.10025" lon="6.76766">
        <ele>1485</ele>
        <time>2013-09-22T08:09:09Z</time>
      </trkpt>
      <trkpt lat="44.10022" lon="6.76774">
        <ele>1488</ele>
        <time>2013-09-22T08:09:22Z</time>
      </trkpt>
      <trkpt lat="44.10021" lon="6.76781">
        <ele>1490</ele>
        <time>2013-09-22T08:09:32Z</time>
      </trkpt>
      <trkpt lat="44.10021" lon="6.76799">
        <ele>1493</ele>
        <time>2013-09-22T08:09:44Z</time>
      </trkpt>
      <trkpt lat="44.10019" lon="6.76812">
        <ele>1495</ele>
        <time>2013-09-22T08:09:52Z</time>
      </trkpt>
      <trkpt lat="44.10016" lon="6.76816">
        <ele>1496</ele>
        <time>2013-09-22T08:09:57Z</time>
      </trkpt>
      <trkpt lat="44.10004" lon="6.7682">
        <ele>1498</ele>
        <time>2013-09-22T08:10:14Z</time>
      </trkpt>
      <trkpt lat="44.09998" lon="6.76822">
        <ele>1499</ele>
        <time>2013-09-22T08:10:18Z</time>
      </trkpt>
      <trkpt lat="44.0998" lon="6.76829">
        <ele>1499</ele>
        <time>2013-09-22T08:10:28Z</time>
      </trkpt>
      <trkpt lat="44.09966" lon="6.7683">
        <ele>1500</ele>
        <time>2013-09-22T08:10:36Z</time>
      </trkpt>
      <trkpt lat="44.09961" lon="6.76831">
        <ele>1501</ele>
        <time>2013-09-22T08:10:40Z</time>
      </trkpt>
      <trkpt lat="44.09947" lon="6.76833">
        <ele>1502</ele>
        <time>2013-09-22T08:10:48Z</time>
      </trkpt>
      <trkpt lat="44.09939" lon="6.76831">
        <ele>1502</ele>
        <time>2013-09-22T08:10:53Z</time>
      </trkpt>
      <trkpt lat="44.09929" lon="6.76828">
        <ele>1504</ele>
        <time>2013-09-22T08:11:01Z</time>
      </trkpt>
      <trkpt lat="44.09925" lon="6.76825">
        <ele>1505</ele>
        <time>2013-09-22T08:11:05Z</time>
      </trkpt>
      <trkpt lat="44.09919" lon="6.76823">
        <ele>1506</ele>
        <time>2013-09-22T08:11:10Z</time>
      </trkpt>
      <trkpt lat="44.09916" lon="6.76821">
        <ele>1507</ele>
        <time>2013-09-22T08:11:16Z</time>
      </trkpt>
      <trkpt lat="44.09915" lon="6.76825">
        <ele>1508</ele>
        <time>2013-09-22T08:11:19Z</time>
      </trkpt>
      <trkpt lat="44.09913" lon="6.76833">
        <ele>1511</ele>
        <time>2013-09-22T08:11:33Z</time>
      </trkpt>
      <trkpt lat="44.09913" lon="6.76841">
        <ele>1515</ele>
        <time>2013-09-22T08:11:46Z</time>
      </trkpt>
      <trkpt lat="44.09912" lon="6.76848">
        <ele>1518</ele>
        <time>2013-09-22T08:11:58Z</time>
      </trkpt>
      <trkpt lat="44.09909" lon="6.76852">
        <ele>1519</ele>
        <time>2013-09-22T08:12:03Z</time>
      </trkpt>
      <trkpt lat="44.09905" lon="6.76856">
        <ele>1520</ele>
        <time>2013-09-22T08:12:11Z</time>
      </trkpt>
      <trkpt lat="44.09904" lon="6.76861">
        <ele>1521</ele>
        <time>2013-09-22T08:12:19Z</time>
      </trkpt>
      <trkpt lat="44.09901" lon="6.76867">
        <ele>1522</ele>
        <time>2013-09-22T08:12:24Z</time>
      </trkpt>
      <trkpt lat="44.099" lon="6.76871">
        <ele>1523</ele>
        <time>2013-09-22T08:12:27Z</time>
      </trkpt>
      <trkpt lat="44.09897" lon="6.76877">
        <ele>1524</ele>
        <time>2013-09-22T08:12:37Z</time>
      </trkpt>
      <trkpt lat="44.09894" lon="6.76889">
        <ele>1525</ele>
        <time>2013-09-22T08:12:45Z</time>
      </trkpt>
      <trkpt lat="44.09896" lon="6.76901">
        <ele>1526</ele>
        <time>2013-09-22T08:12:51Z</time>
      </trkpt>
      <trkpt lat="44.099" lon="6.76909">
        <ele>1526</ele>
        <time>2013-09-22T08:12:56Z</time>
      </trkpt>
      <trkpt lat="44.099" lon="6.76914">
        <ele>1527</ele>
        <time>2013-09-22T08:12:59Z</time>
      </trkpt>
      <trkpt lat="44.09905" lon="6.76929">
        <ele>1528</ele>
        <time>2013-09-22T08:13:07Z</time>
      </trkpt>
      <trkpt lat="44.09908" lon="6.76937">
        <ele>1529</ele>
        <time>2013-09-22T08:13:11Z</time>
      </trkpt>
      <trkpt lat="44.09908" lon="6.76949">
        <ele>1529</ele>
        <time>2013-09-22T08:13:16Z</time>
      </trkpt>
      <trkpt lat="44.09905" lon="6.76957">
        <ele>1530</ele>
        <time>2013-09-22T08:13:20Z</time>
      </trkpt>
      <trkpt lat="44.09903" lon="6.76965">
        <ele>1530</ele>
        <time>2013-09-22T08:13:24Z</time>
      </trkpt>
      <trkpt lat="44.09901" lon="6.76985">
        <ele>1532</ele>
        <time>2013-09-22T08:13:34Z</time>
      </trkpt>
      <trkpt lat="44.09901" lon="6.76988">
        <ele>1533</ele>
        <time>2013-09-22T08:13:39Z</time>
      </trkpt>
      <trkpt lat="44.09898" lon="6.77011">
        <ele>1544</ele>
        <time>2013-09-22T08:14:41Z</time>
      </trkpt>
      <trkpt lat="44.09821" lon="6.77021">
        <ele>1553</ele>
        <time>2013-09-22T08:20:44Z</time>
      </trkpt>
      <trkpt lat="44.09821" lon="6.77016">
        <ele>1553</ele>
        <time>2013-09-22T08:20:49Z</time>
      </trkpt>
      <trkpt lat="44.098" lon="6.77025">
        <ele>1552</ele>
        <time>2013-09-22T08:20:54Z</time>
      </trkpt>
      <trkpt lat="44.09795" lon="6.7704">
        <ele>1552</ele>
        <time>2013-09-22T08:21:02Z</time>
      </trkpt>
      <trkpt lat="44.09793" lon="6.77048">
        <ele>1551</ele>
        <time>2013-09-22T08:21:06Z</time>
      </trkpt>
      <trkpt lat="44.09792" lon="6.77056">
        <ele>1551</ele>
        <time>2013-09-22T08:21:10Z</time>
      </trkpt>
      <trkpt lat="44.09785" lon="6.77072">
        <ele>1550</ele>
        <time>2013-09-22T08:21:18Z</time>
      </trkpt>
      <trkpt lat="44.09781" lon="6.77076">
        <ele>1549</ele>
        <time>2013-09-22T08:21:22Z</time>
      </trkpt>
      <trkpt lat="44.09778" lon="6.77078">
        <ele>1549</ele>
        <time>2013-09-22T08:21:28Z</time>
      </trkpt>
      <trkpt lat="44.09773" lon="6.77078">
        <ele>1548</ele>
        <time>2013-09-22T08:21:32Z</time>
      </trkpt>
      <trkpt lat="44.09764" lon="6.77082">
        <ele>1547</ele>
        <time>2013-09-22T08:21:43Z</time>
      </trkpt>
      <trkpt lat="44.0976" lon="6.77085">
        <ele>1546</ele>
        <time>2013-09-22T08:21:55Z</time>
      </trkpt>
      <trkpt lat="44.09748" lon="6.77092">
        <ele>1544</ele>
        <time>2013-09-22T08:22:10Z</time>
      </trkpt>
      <trkpt lat="44.09721" lon="6.77099">
        <ele>1543</ele>
        <time>2013-09-22T08:22:17Z</time>
      </trkpt>
      <trkpt lat="44.09692" lon="6.77109">
        <ele>1542</ele>
        <time>2013-09-22T08:22:26Z</time>
      </trkpt>
      <trkpt lat="44.09684" lon="6.77116">
        <ele>1541</ele>
        <time>2013-09-22T08:22:37Z</time>
      </trkpt>
      <trkpt lat="44.09681" lon="6.77119">
        <ele>1541</ele>
        <time>2013-09-22T08:22:43Z</time>
      </trkpt>
      <trkpt lat="44.09676" lon="6.77121">
        <ele>1541</ele>
        <time>2013-09-22T08:22:54Z</time>
      </trkpt>
      <trkpt lat="44.09673" lon="6.77129">
        <ele>1541</ele>
        <time>2013-09-22T08:23:08Z</time>
      </trkpt>
      <trkpt lat="44.09679" lon="6.77136">
        <ele>1541</ele>
        <time>2013-09-22T08:23:20Z</time>
      </trkpt>
      <trkpt lat="44.09686" lon="6.7714">
        <ele>1541</ele>
        <time>2013-09-22T08:23:35Z</time>
      </trkpt>
      <trkpt lat="44.09691" lon="6.77149">
        <ele>1540</ele>
        <time>2013-09-22T08:23:50Z</time>
      </trkpt>
      <trkpt lat="44.09692" lon="6.77149">
        <ele>1540</ele>
        <time>2013-09-22T08:24:01Z</time>
      </trkpt>
      <trkpt lat="44.09697" lon="6.77154">
        <ele>1539</ele>
        <time>2013-09-22T08:24:14Z</time>
      </trkpt>
      <trkpt lat="44.0971" lon="6.77167">
        <ele>1538</ele>
        <time>2013-09-22T08:24:25Z</time>
      </trkpt>
      <trkpt lat="44.09715" lon="6.77171">
        <ele>1538</ele>
        <time>2013-09-22T08:24:28Z</time>
      </trkpt>
      <trkpt lat="44.09718" lon="6.77179">
        <ele>1537</ele>
        <time>2013-09-22T08:24:34Z</time>
      </trkpt>
      <trkpt lat="44.09718" lon="6.77181">
        <ele>1537</ele>
        <time>2013-09-22T08:24:41Z</time>
      </trkpt>
      <trkpt lat="44.09722" lon="6.77185">
        <ele>1537</ele>
        <time>2013-09-22T08:24:46Z</time>
      </trkpt>
      <trkpt lat="44.09726" lon="6.7719">
        <ele>1536</ele>
        <time>2013-09-22T08:24:52Z</time>
      </trkpt>
      <trkpt lat="44.09723" lon="6.77196">
        <ele>1536</ele>
        <time>2013-09-22T08:24:57Z</time>
      </trkpt>
      <trkpt lat="44.09719" lon="6.77206">
        <ele>1536</ele>
        <time>2013-09-22T08:25:00Z</time>
      </trkpt>
      <trkpt lat="44.09709" lon="6.77219">
        <ele>1535</ele>
        <time>2013-09-22T08:25:05Z</time>
      </trkpt>
      <trkpt lat="44.09705" lon="6.77235">
        <ele>1535</ele>
        <time>2013-09-22T08:25:13Z</time>
      </trkpt>
      <trkpt lat="44.09704" lon="6.77243">
        <ele>1534</ele>
        <time>2013-09-22T08:25:19Z</time>
      </trkpt>
      <trkpt lat="44.09703" lon="6.77252">
        <ele>1534</ele>
        <time>2013-09-22T08:25:26Z</time>
      </trkpt>
      <trkpt lat="44.09707" lon="6.77265">
        <ele>1534</ele>
        <time>2013-09-22T08:25:38Z</time>
      </trkpt>
      <trkpt lat="44.09711" lon="6.77278">
        <ele>1534</ele>
        <time>2013-09-22T08:25:43Z</time>
      </trkpt>
      <trkpt lat="44.09718" lon="6.77301">
        <ele>1533</ele>
        <time>2013-09-22T08:25:54Z</time>
      </trkpt>
      <trkpt lat="44.09725" lon="6.7734">
        <ele>1533</ele>
        <time>2013-09-22T08:26:09Z</time>
      </trkpt>
      <trkpt lat="44.0973" lon="6.7735">
        <ele>1533</ele>
        <time>2013-09-22T08:26:16Z</time>
      </trkpt>
      <trkpt lat="44.09744" lon="6.77364">
        <ele>1534</ele>
        <time>2013-09-22T08:26:26Z</time>
      </trkpt>
      <trkpt lat="44.09752" lon="6.77373">
        <ele>1534</ele>
        <time>2013-09-22T08:26:32Z</time>
      </trkpt>
      <trkpt lat="44.09757" lon="6.77386">
        <ele>1534</ele>
        <time>2013-09-22T08:26:39Z</time>
      </trkpt>
      <trkpt lat="44.09758" lon="6.77397">
        <ele>1534</ele>
        <time>2013-09-22T08:26:44Z</time>
      </trkpt>
      <trkpt lat="44.09761" lon="6.77411">
        <ele>1534</ele>
        <time>2013-09-22T08:26:49Z</time>
      </trkpt>
      <trkpt lat="44.09759" lon="6.77425">
        <ele>1534</ele>
        <time>2013-09-22T08:26:53Z</time>
      </trkpt>
      <trkpt lat="44.09754" lon="6.7745">
        <ele>1535</ele>
        <time>2013-09-22T08:27:02Z</time>
      </trkpt>
      <trkpt lat="44.09754" lon="6.77466">
        <ele>1535</ele>
        <time>2013-09-22T08:27:07Z</time>
      </trkpt>
      <trkpt lat="44.09766" lon="6.77492">
        <ele>1537</ele>
        <time>2013-09-22T08:27:17Z</time>
      </trkpt>
      <trkpt lat="44.0977" lon="6.7751">
        <ele>1538</ele>
        <time>2013-09-22T08:27:24Z</time>
      </trkpt>
      <trkpt lat="44.0977" lon="6.77519">
        <ele>1538</ele>
        <time>2013-09-22T08:27:28Z</time>
      </trkpt>
      <trkpt lat="44.09771" lon="6.77534">
        <ele>1539</ele>
        <time>2013-09-22T08:27:35Z</time>
      </trkpt>
      <trkpt lat="44.09771" lon="6.77543">
        <ele>1540</ele>
        <time>2013-09-22T08:27:39Z</time>
      </trkpt>
      <trkpt lat="44.0977" lon="6.77554">
        <ele>1540</ele>
        <time>2013-09-22T08:27:44Z</time>
      </trkpt>
      <trkpt lat="44.09771" lon="6.7756">
        <ele>1541</ele>
        <time>2013-09-22T08:27:48Z</time>
      </trkpt>
      <trkpt lat="44.09769" lon="6.77576">
        <ele>1541</ele>
        <time>2013-09-22T08:27:55Z</time>
      </trkpt>
      <trkpt lat="44.09765" lon="6.7759">
        <ele>1542</ele>
        <time>2013-09-22T08:28:01Z</time>
      </trkpt>
      <trkpt lat="44.09763" lon="6.776">
        <ele>1542</ele>
        <time>2013-09-22T08:28:05Z</time>
      </trkpt>
      <trkpt lat="44.09764" lon="6.77615">
        <ele>1543</ele>
        <time>2013-09-22T08:28:11Z</time>
      </trkpt>
      <trkpt lat="44.09771" lon="6.77629">
        <ele>1544</ele>
        <time>2013-09-22T08:28:17Z</time>
      </trkpt>
      <trkpt lat="44.09782" lon="6.7765">
        <ele>1545</ele>
        <time>2013-09-22T08:28:29Z</time>
      </trkpt>
      <trkpt lat="44.09785" lon="6.77661">
        <ele>1545</ele>
        <time>2013-09-22T08:28:36Z</time>
      </trkpt>
      <trkpt lat="44.09792" lon="6.77669">
        <ele>1545</ele>
        <time>2013-09-22T08:28:42Z</time>
      </trkpt>
      <trkpt lat="44.09798" lon="6.7768">
        <ele>1546</ele>
        <time>2013-09-22T08:28:49Z</time>
      </trkpt>
      <trkpt lat="44.09805" lon="6.77698">
        <ele>1546</ele>
        <time>2013-09-22T08:28:57Z</time>
      </trkpt>
      <trkpt lat="44.09807" lon="6.77707">
        <ele>1546</ele>
        <time>2013-09-22T08:29:01Z</time>
      </trkpt>
      <trkpt lat="44.0981" lon="6.77721">
        <ele>1547</ele>
        <time>2013-09-22T08:29:07Z</time>
      </trkpt>
      <trkpt lat="44.09816" lon="6.77732">
        <ele>1548</ele>
        <time>2013-09-22T08:29:13Z</time>
      </trkpt>
      <trkpt lat="44.09824" lon="6.77743">
        <ele>1550</ele>
        <time>2013-09-22T08:29:20Z</time>
      </trkpt>
      <trkpt lat="44.09832" lon="6.77754">
        <ele>1551</ele>
        <time>2013-09-22T08:29:27Z</time>
      </trkpt>
      <trkpt lat="44.09835" lon="6.77765">
        <ele>1553</ele>
        <time>2013-09-22T08:29:33Z</time>
      </trkpt>
      <trkpt lat="44.09836" lon="6.77769">
        <ele>1553</ele>
        <time>2013-09-22T08:29:35Z</time>
      </trkpt>
      <trkpt lat="44.0984" lon="6.7778">
        <ele>1554</ele>
        <time>2013-09-22T08:29:41Z</time>
      </trkpt>
      <trkpt lat="44.09845" lon="6.77788">
        <ele>1555</ele>
        <time>2013-09-22T08:29:46Z</time>
      </trkpt>
      <trkpt lat="44.09853" lon="6.77814">
        <ele>1558</ele>
        <time>2013-09-22T08:29:59Z</time>
      </trkpt>
      <trkpt lat="44.09856" lon="6.77826">
        <ele>1559</ele>
        <time>2013-09-22T08:30:04Z</time>
      </trkpt>
      <trkpt lat="44.09865" lon="6.77843">
        <ele>1560</ele>
        <time>2013-09-22T08:30:11Z</time>
      </trkpt>
      <trkpt lat="44.09872" lon="6.77855">
        <ele>1561</ele>
        <time>2013-09-22T08:30:16Z</time>
      </trkpt>
      <trkpt lat="44.09881" lon="6.77869">
        <ele>1562</ele>
        <time>2013-09-22T08:30:23Z</time>
      </trkpt>
      <trkpt lat="44.09895" lon="6.77887">
        <ele>1565</ele>
        <time>2013-09-22T08:30:36Z</time>
      </trkpt>
      <trkpt lat="44.09905" lon="6.77905">
        <ele>1567</ele>
        <time>2013-09-22T08:30:48Z</time>
      </trkpt>
      <trkpt lat="44.09908" lon="6.77911">
        <ele>1568</ele>
        <time>2013-09-22T08:30:52Z</time>
      </trkpt>
      <trkpt lat="44.09912" lon="6.77931">
        <ele>1569</ele>
        <time>2013-09-22T08:31:02Z</time>
      </trkpt>
      <trkpt lat="44.09916" lon="6.77963">
        <ele>1570</ele>
        <time>2013-09-22T08:31:13Z</time>
      </trkpt>
      <trkpt lat="44.09915" lon="6.77981">
        <ele>1571</ele>
        <time>2013-09-22T08:31:20Z</time>
      </trkpt>
      <trkpt lat="44.09915" lon="6.77994">
        <ele>1571</ele>
        <time>2013-09-22T08:31:24Z</time>
      </trkpt>
      <trkpt lat="44.09917" lon="6.78026">
        <ele>1572</ele>
        <time>2013-09-22T08:31:33Z</time>
      </trkpt>
      <trkpt lat="44.09917" lon="6.78048">
        <ele>1573</ele>
        <time>2013-09-22T08:31:42Z</time>
      </trkpt>
      <trkpt lat="44.09921" lon="6.78058">
        <ele>1574</ele>
        <time>2013-09-22T08:31:46Z</time>
      </trkpt>
      <trkpt lat="44.09922" lon="6.78065">
        <ele>1575</ele>
        <time>2013-09-22T08:31:49Z</time>
      </trkpt>
      <trkpt lat="44.09925" lon="6.78077">
        <ele>1575</ele>
        <time>2013-09-22T08:31:53Z</time>
      </trkpt>
      <trkpt lat="44.09929" lon="6.781">
        <ele>1576</ele>
        <time>2013-09-22T08:32:01Z</time>
      </trkpt>
      <trkpt lat="44.09931" lon="6.78122">
        <ele>1577</ele>
        <time>2013-09-22T08:32:07Z</time>
      </trkpt>
      <trkpt lat="44.09931" lon="6.78132">
        <ele>1577</ele>
        <time>2013-09-22T08:32:10Z</time>
      </trkpt>
      <trkpt lat="44.09937" lon="6.78148">
        <ele>1577</ele>
        <time>2013-09-22T08:32:16Z</time>
      </trkpt>
      <trkpt lat="44.09946" lon="6.78179">
        <ele>1579</ele>
        <time>2013-09-22T08:32:30Z</time>
      </trkpt>
      <trkpt lat="44.09953" lon="6.78202">
        <ele>1580</ele>
        <time>2013-09-22T08:32:40Z</time>
      </trkpt>
      <trkpt lat="44.09954" lon="6.78216">
        <ele>1581</ele>
        <time>2013-09-22T08:32:47Z</time>
      </trkpt>
      <trkpt lat="44.09948" lon="6.78246">
        <ele>1582</ele>
        <time>2013-09-22T08:33:00Z</time>
      </trkpt>
      <trkpt lat="44.09941" lon="6.78269">
        <ele>1582</ele>
        <time>2013-09-22T08:33:09Z</time>
      </trkpt>
      <trkpt lat="44.09922" lon="6.78288">
        <ele>1584</ele>
        <time>2013-09-22T08:33:23Z</time>
      </trkpt>
      <trkpt lat="44.09903" lon="6.78311">
        <ele>1585</ele>
        <time>2013-09-22T08:33:36Z</time>
      </trkpt>
      <trkpt lat="44.09896" lon="6.78325">
        <ele>1585</ele>
        <time>2013-09-22T08:33:41Z</time>
      </trkpt>
      <trkpt lat="44.09888" lon="6.78341">
        <ele>1585</ele>
        <time>2013-09-22T08:33:46Z</time>
      </trkpt>
      <trkpt lat="44.09873" lon="6.78375">
        <ele>1586</ele>
        <time>2013-09-22T08:33:56Z</time>
      </trkpt>
      <trkpt lat="44.09851" lon="6.78413">
        <ele>1586</ele>
        <time>2013-09-22T08:34:03Z</time>
      </trkpt>
      <trkpt lat="44.09845" lon="6.78432">
        <ele>1586</ele>
        <time>2013-09-22T08:34:06Z</time>
      </trkpt>
      <trkpt lat="44.09838" lon="6.78445">
        <ele>1586</ele>
        <time>2013-09-22T08:34:09Z</time>
      </trkpt>
      <trkpt lat="44.0982" lon="6.78462">
        <ele>1586</ele>
        <time>2013-09-22T08:34:15Z</time>
      </trkpt>
      <trkpt lat="44.09813" lon="6.78473">
        <ele>1586</ele>
        <time>2013-09-22T08:34:23Z</time>
      </trkpt>
      <trkpt lat="44.09693" lon="6.78967">
        <ele>1572</ele>
        <time>2013-09-22T08:47:45Z</time>
      </trkpt>
      <trkpt lat="44.09684" lon="6.7899">
        <ele>1572</ele>
        <time>2013-09-22T08:47:54Z</time>
      </trkpt>
      <trkpt lat="44.09661" lon="6.79001">
        <ele>1572</ele>
        <time>2013-09-22T08:48:02Z</time>
      </trkpt>
      <trkpt lat="44.0963" lon="6.79006">
        <ele>1571</ele>
        <time>2013-09-22T08:48:11Z</time>
      </trkpt>
      <trkpt lat="44.09613" lon="6.79024">
        <ele>1571</ele>
        <time>2013-09-22T08:48:16Z</time>
      </trkpt>
      <trkpt lat="44.096" lon="6.79068">
        <ele>1571</ele>
        <time>2013-09-22T08:48:22Z</time>
      </trkpt>
      <trkpt lat="44.09597" lon="6.79109">
        <ele>1570</ele>
        <time>2013-09-22T08:48:27Z</time>
      </trkpt>
      <trkpt lat="44.096" lon="6.79134">
        <ele>1570</ele>
        <time>2013-09-22T08:48:30Z</time>
      </trkpt>
      <trkpt lat="44.09601" lon="6.79184">
        <ele>1569</ele>
        <time>2013-09-22T08:48:35Z</time>
      </trkpt>
      <trkpt lat="44.09604" lon="6.79216">
        <ele>1569</ele>
        <time>2013-09-22T08:48:38Z</time>
      </trkpt>
      <trkpt lat="44.09605" lon="6.79254">
        <ele>1568</ele>
        <time>2013-09-22T08:48:42Z</time>
      </trkpt>
      <trkpt lat="44.09594" lon="6.79291">
        <ele>1568</ele>
        <time>2013-09-22T08:48:46Z</time>
      </trkpt>
      <trkpt lat="44.09583" lon="6.79321">
        <ele>1567</ele>
        <time>2013-09-22T08:48:49Z</time>
      </trkpt>
      <trkpt lat="44.0956" lon="6.79366">
        <ele>1566</ele>
        <time>2013-09-22T08:48:55Z</time>
      </trkpt>
      <trkpt lat="44.09548" lon="6.79392">
        <ele>1565</ele>
        <time>2013-09-22T08:48:59Z</time>
      </trkpt>
      <trkpt lat="44.09536" lon="6.79412">
        <ele>1565</ele>
        <time>2013-09-22T08:49:03Z</time>
      </trkpt>
      <trkpt lat="44.09512" lon="6.79446">
        <ele>1563</ele>
        <time>2013-09-22T08:49:09Z</time>
      </trkpt>
      <trkpt lat="44.095" lon="6.79468">
        <ele>1562</ele>
        <time>2013-09-22T08:49:13Z</time>
      </trkpt>
      <trkpt lat="44.09485" lon="6.79529">
        <ele>1560</ele>
        <time>2013-09-22T08:49:21Z</time>
      </trkpt>
      <trkpt lat="44.0947" lon="6.79561">
        <ele>1559</ele>
        <time>2013-09-22T08:49:26Z</time>
      </trkpt>
      <trkpt lat="44.0946" lon="6.79596">
        <ele>1557</ele>
        <time>2013-09-22T08:49:31Z</time>
      </trkpt>
      <trkpt lat="44.09438" lon="6.79633">
        <ele>1555</ele>
        <time>2013-09-22T08:49:36Z</time>
      </trkpt>
      <trkpt lat="44.09417" lon="6.79654">
        <ele>1553</ele>
        <time>2013-09-22T08:49:40Z</time>
      </trkpt>
      <trkpt lat="44.09395" lon="6.79673">
        <ele>1551</ele>
        <time>2013-09-22T08:49:44Z</time>
      </trkpt>
      <trkpt lat="44.09385" lon="6.79688">
        <ele>1550</ele>
        <time>2013-09-22T08:49:48Z</time>
      </trkpt>
      <trkpt lat="44.09388" lon="6.7971">
        <ele>1548</ele>
        <time>2013-09-22T08:49:51Z</time>
      </trkpt>
      <trkpt lat="44.09383" lon="6.79728">
        <ele>1546</ele>
        <time>2013-09-22T08:49:55Z</time>
      </trkpt>
      <trkpt lat="44.09369" lon="6.79744">
        <ele>1544</ele>
        <time>2013-09-22T08:49:59Z</time>
      </trkpt>
      <trkpt lat="44.09354" lon="6.79753">
        <ele>1543</ele>
        <time>2013-09-22T08:50:02Z</time>
      </trkpt>
      <trkpt lat="44.09334" lon="6.79763">
        <ele>1541</ele>
        <time>2013-09-22T08:50:06Z</time>
      </trkpt>
      <trkpt lat="44.09327" lon="6.79767">
        <ele>1539</ele>
        <time>2013-09-22T08:50:10Z</time>
      </trkpt>
      <trkpt lat="44.09296" lon="6.79763">
        <ele>1512</ele>
        <time>2013-09-22T08:51:11Z</time>
      </trkpt>
      <trkpt lat="44.09256" lon="6.798">
        <ele>1508</ele>
        <time>2013-09-22T08:51:21Z</time>
      </trkpt>
      <trkpt lat="44.09235" lon="6.79833">
        <ele>1507</ele>
        <time>2013-09-22T08:51:25Z</time>
      </trkpt>
      <trkpt lat="44.09214" lon="6.79864">
        <ele>1505</ele>
        <time>2013-09-22T08:51:29Z</time>
      </trkpt>
      <trkpt lat="44.09194" lon="6.79895">
        <ele>1504</ele>
        <time>2013-09-22T08:51:33Z</time>
      </trkpt>
      <trkpt lat="44.09171" lon="6.79926">
        <ele>1502</ele>
        <time>2013-09-22T08:51:37Z</time>
      </trkpt>
      <trkpt lat="44.09113" lon="6.79961">
        <ele>1497</ele>
        <time>2013-09-22T08:51:47Z</time>
      </trkpt>
      <trkpt lat="44.09101" lon="6.7996">
        <ele>1495</ele>
        <time>2013-09-22T08:51:52Z</time>
      </trkpt>
      <trkpt lat="44.09091" lon="6.79963">
        <ele>1493</ele>
        <time>2013-09-22T08:51:56Z</time>
      </trkpt>
      <trkpt lat="44.09056" lon="6.79966">
        <ele>1487</ele>
        <time>2013-09-22T08:52:09Z</time>
      </trkpt>
      <trkpt lat="44.09029" lon="6.79973">
        <ele>1482</ele>
        <time>2013-09-22T08:52:22Z</time>
      </trkpt>
      <trkpt lat="44.09013" lon="6.79964">
        <ele>1478</ele>
        <time>2013-09-22T08:52:34Z</time>
      </trkpt>
      <trkpt lat="44.08989" lon="6.7994">
        <ele>1467</ele>
        <time>2013-09-22T08:53:07Z</time>
      </trkpt>
      <trkpt lat="44.08945" lon="6.79907">
        <ele>1464</ele>
        <time>2013-09-22T08:53:16Z</time>
      </trkpt>
      <trkpt lat="44.08929" lon="6.79911">
        <ele>1463</ele>
        <time>2013-09-22T08:53:19Z</time>
      </trkpt>
      <trkpt lat="44.08903" lon="6.79916">
        <ele>1460</ele>
        <time>2013-09-22T08:53:25Z</time>
      </trkpt>
      <trkpt lat="44.08891" lon="6.79918">
        <ele>1458</ele>
        <time>2013-09-22T08:53:30Z</time>
      </trkpt>
      <trkpt lat="44.08869" lon="6.79948">
        <ele>1454</ele>
        <time>2013-09-22T08:53:40Z</time>
      </trkpt>
      <trkpt lat="44.08863" lon="6.79975">
        <ele>1451</ele>
        <time>2013-09-22T08:53:49Z</time>
      </trkpt>
      <trkpt lat="44.08862" lon="6.7998">
        <ele>1447</ele>
        <time>2013-09-22T08:54:01Z</time>
      </trkpt>
      <trkpt lat="44.0885" lon="6.80004">
        <ele>1440</ele>
        <time>2013-09-22T08:54:25Z</time>
      </trkpt>
      <trkpt lat="44.08848" lon="6.80008">
        <ele>1435</ele>
        <time>2013-09-22T08:54:39Z</time>
      </trkpt>
      <trkpt lat="44.08845" lon="6.80016">
        <ele>1431</ele>
        <time>2013-09-22T08:54:51Z</time>
      </trkpt>
      <trkpt lat="44.08841" lon="6.80024">
        <ele>1428</ele>
        <time>2013-09-22T08:55:00Z</time>
      </trkpt>
      <trkpt lat="44.0884" lon="6.80031">
        <ele>1426</ele>
        <time>2013-09-22T08:55:07Z</time>
      </trkpt>
      <trkpt lat="44.08847" lon="6.80049">
        <ele>1417</ele>
        <time>2013-09-22T08:55:39Z</time>
      </trkpt>
      <trkpt lat="44.08878" lon="6.80088">
        <ele>1414</ele>
        <time>2013-09-22T08:55:49Z</time>
      </trkpt>
      <trkpt lat="44.08893" lon="6.80119">
        <ele>1413</ele>
        <time>2013-09-22T08:55:55Z</time>
      </trkpt>
      <trkpt lat="44.08905" lon="6.80144">
        <ele>1410</ele>
        <time>2013-09-22T08:56:04Z</time>
      </trkpt>
      <trkpt lat="44.08899" lon="6.80155">
        <ele>1409</ele>
        <time>2013-09-22T08:56:10Z</time>
      </trkpt>
      <trkpt lat="44.08896" lon="6.80165">
        <ele>1407</ele>
        <time>2013-09-22T08:56:16Z</time>
      </trkpt>
      <trkpt lat="44.08895" lon="6.80176">
        <ele>1405</ele>
        <time>2013-09-22T08:56:23Z</time>
      </trkpt>
      <trkpt lat="44.08898" lon="6.80196">
        <ele>1402</ele>
        <time>2013-09-22T08:56:31Z</time>
      </trkpt>
      <trkpt lat="44.08904" lon="6.80211">
        <ele>1401</ele>
        <time>2013-09-22T08:56:36Z</time>
      </trkpt>
      <trkpt lat="44.08907" lon="6.80252">
        <ele>1398</ele>
        <time>2013-09-22T08:56:43Z</time>
      </trkpt>
      <trkpt lat="44.08918" lon="6.80279">
        <ele>1396</ele>
        <time>2013-09-22T08:56:48Z</time>
      </trkpt>
      <trkpt lat="44.08924" lon="6.80292">
        <ele>1395</ele>
        <time>2013-09-22T08:56:51Z</time>
      </trkpt>
      <trkpt lat="44.08938" lon="6.80328">
        <ele>1393</ele>
        <time>2013-09-22T08:56:57Z</time>
      </trkpt>
      <trkpt lat="44.08959" lon="6.80352">
        <ele>1390</ele>
        <time>2013-09-22T08:57:03Z</time>
      </trkpt>
      <trkpt lat="44.0897" lon="6.8036">
        <ele>1389</ele>
        <time>2013-09-22T08:57:06Z</time>
      </trkpt>
      <trkpt lat="44.08976" lon="6.80377">
        <ele>1388</ele>
        <time>2013-09-22T08:57:09Z</time>
      </trkpt>
      <trkpt lat="44.08974" lon="6.80414">
        <ele>1386</ele>
        <time>2013-09-22T08:57:14Z</time>
      </trkpt>
      <trkpt lat="44.08964" lon="6.80438">
        <ele>1385</ele>
        <time>2013-09-22T08:57:18Z</time>
      </trkpt>
      <trkpt lat="44.08955" lon="6.80448">
        <ele>1383</ele>
        <time>2013-09-22T08:57:23Z</time>
      </trkpt>
      <trkpt lat="44.08951" lon="6.80469">
        <ele>1380</ele>
        <time>2013-09-22T08:57:30Z</time>
      </trkpt>
      <trkpt lat="44.08952" lon="6.80478">
        <ele>1378</ele>
        <time>2013-09-22T08:57:34Z</time>
      </trkpt>
      <trkpt lat="44.08942" lon="6.80487">
        <ele>1375</ele>
        <time>2013-09-22T08:57:41Z</time>
      </trkpt>
      <trkpt lat="44.08932" lon="6.80469">
        <ele>1372</ele>
        <time>2013-09-22T08:57:49Z</time>
      </trkpt>
      <trkpt lat="44.08932" lon="6.80466">
        <ele>1370</ele>
        <time>2013-09-22T08:57:53Z</time>
      </trkpt>
      <trkpt lat="44.08928" lon="6.80451">
        <ele>1368</ele>
        <time>2013-09-22T08:58:00Z</time>
      </trkpt>
      <trkpt lat="44.08919" lon="6.80423">
        <ele>1364</ele>
        <time>2013-09-22T08:58:10Z</time>
      </trkpt>
      <trkpt lat="44.08892" lon="6.80381">
        <ele>1360</ele>
        <time>2013-09-22T08:58:23Z</time>
      </trkpt>
      <trkpt lat="44.08869" lon="6.80374">
        <ele>1358</ele>
        <time>2013-09-22T08:58:30Z</time>
      </trkpt>
      <trkpt lat="44.08827" lon="6.80343">
        <ele>1355</ele>
        <time>2013-09-22T08:58:41Z</time>
      </trkpt>
      <trkpt lat="44.08772" lon="6.80322">
        <ele>1352</ele>
        <time>2013-09-22T08:58:51Z</time>
      </trkpt>
      <trkpt lat="44.08759" lon="6.80315">
        <ele>1351</ele>
        <time>2013-09-22T08:58:57Z</time>
      </trkpt>
      <trkpt lat="44.08753" lon="6.80313">
        <ele>1349</ele>
        <time>2013-09-22T08:59:07Z</time>
      </trkpt>
      <trkpt lat="44.08748" lon="6.80327">
        <ele>1345</ele>
        <time>2013-09-22T08:59:24Z</time>
      </trkpt>
      <trkpt lat="44.08729" lon="6.8033">
        <ele>1344</ele>
        <time>2013-09-22T08:59:28Z</time>
      </trkpt>
      <trkpt lat="44.08714" lon="6.80308">
        <ele>1342</ele>
        <time>2013-09-22T08:59:35Z</time>
      </trkpt>
      <trkpt lat="44.08695" lon="6.80284">
        <ele>1341</ele>
        <time>2013-09-22T08:59:41Z</time>
      </trkpt>
      <trkpt lat="44.0869" lon="6.80265">
        <ele>1340</ele>
        <time>2013-09-22T08:59:45Z</time>
      </trkpt>
      <trkpt lat="44.08684" lon="6.80255">
        <ele>1339</ele>
        <time>2013-09-22T08:59:48Z</time>
      </trkpt>
      <trkpt lat="44.08666" lon="6.80259">
        <ele>1338</ele>
        <time>2013-09-22T08:59:55Z</time>
      </trkpt>
      <trkpt lat="44.08658" lon="6.80266">
        <ele>1336</ele>
        <time>2013-09-22T09:00:02Z</time>
      </trkpt>
      <trkpt lat="44.08649" lon="6.80272">
        <ele>1335</ele>
        <time>2013-09-22T09:00:11Z</time>
      </trkpt>
      <trkpt lat="44.08643" lon="6.80281">
        <ele>1334</ele>
        <time>2013-09-22T09:00:17Z</time>
      </trkpt>
      <trkpt lat="44.08638" lon="6.803">
        <ele>1332</ele>
        <time>2013-09-22T09:00:28Z</time>
      </trkpt>
      <trkpt lat="44.08639" lon="6.80306">
        <ele>1331</ele>
        <time>2013-09-22T09:00:33Z</time>
      </trkpt>
      <trkpt lat="44.08639" lon="6.80313">
        <ele>1331</ele>
        <time>2013-09-22T09:00:39Z</time>
      </trkpt>
      <trkpt lat="44.08636" lon="6.80311">
        <ele>1330</ele>
        <time>2013-09-22T09:00:44Z</time>
      </trkpt>
      <trkpt lat="44.08633" lon="6.80301">
        <ele>1328</ele>
        <time>2013-09-22T09:00:56Z</time>
      </trkpt>
      <trkpt lat="44.08632" lon="6.80288">
        <ele>1328</ele>
        <time>2013-09-22T09:01:02Z</time>
      </trkpt>
      <trkpt lat="44.08632" lon="6.80285">
        <ele>1327</ele>
        <time>2013-09-22T09:01:04Z</time>
      </trkpt>
      <trkpt lat="44.08628" lon="6.80269">
        <ele>1326</ele>
        <time>2013-09-22T09:01:14Z</time>
      </trkpt>
      <trkpt lat="44.08627" lon="6.80262">
        <ele>1326</ele>
        <time>2013-09-22T09:01:19Z</time>
      </trkpt>
      <trkpt lat="44.08624" lon="6.80269">
        <ele>1325</ele>
        <time>2013-09-22T09:01:30Z</time>
      </trkpt>
      <trkpt lat="44.08616" lon="6.80292">
        <ele>1324</ele>
        <time>2013-09-22T09:01:45Z</time>
      </trkpt>
      <trkpt lat="44.08614" lon="6.80295">
        <ele>1324</ele>
        <time>2013-09-22T09:01:53Z</time>
      </trkpt>
      <trkpt lat="44.08613" lon="6.80287">
        <ele>1323</ele>
        <time>2013-09-22T09:02:00Z</time>
      </trkpt>
      <trkpt lat="44.08613" lon="6.80282">
        <ele>1323</ele>
        <time>2013-09-22T09:02:11Z</time>
      </trkpt>
      <trkpt lat="44.08614" lon="6.80272">
        <ele>1323</ele>
        <time>2013-09-22T09:02:17Z</time>
      </trkpt>
      <trkpt lat="44.08612" lon="6.80267">
        <ele>1323</ele>
        <time>2013-09-22T09:02:20Z</time>
      </trkpt>
      <trkpt lat="44.08608" lon="6.80252">
        <ele>1323</ele>
        <time>2013-09-22T09:02:29Z</time>
      </trkpt>
      <trkpt lat="44.08608" lon="6.80243">
        <ele>1323</ele>
        <time>2013-09-22T09:02:34Z</time>
      </trkpt>
      <trkpt lat="44.08606" lon="6.80246">
        <ele>1324</ele>
        <time>2013-09-22T09:02:42Z</time>
      </trkpt>
      <trkpt lat="44.08602" lon="6.80257">
        <ele>1324</ele>
        <time>2013-09-22T09:02:50Z</time>
      </trkpt>
      <trkpt lat="44.08601" lon="6.8026">
        <ele>1325</ele>
        <time>2013-09-22T09:02:59Z</time>
      </trkpt>
      <trkpt lat="44.08597" lon="6.80268">
        <ele>1326</ele>
        <time>2013-09-22T09:03:05Z</time>
      </trkpt>
      <trkpt lat="44.0859" lon="6.80277">
        <ele>1329</ele>
        <time>2013-09-22T09:03:21Z</time>
      </trkpt>
      <trkpt lat="44.08587" lon="6.80288">
        <ele>1331</ele>
        <time>2013-09-22T09:03:34Z</time>
      </trkpt>
      <trkpt lat="44.08583" lon="6.80295">
        <ele>1333</ele>
        <time>2013-09-22T09:03:46Z</time>
      </trkpt>
      <trkpt lat="44.08582" lon="6.80299">
        <ele>1334</ele>
        <time>2013-09-22T09:03:51Z</time>
      </trkpt>
      <trkpt lat="44.08577" lon="6.80308">
        <ele>1336</ele>
        <time>2013-09-22T09:04:00Z</time>
      </trkpt>
      <trkpt lat="44.08573" lon="6.80312">
        <ele>1337</ele>
        <time>2013-09-22T09:04:05Z</time>
      </trkpt>
      <trkpt lat="44.08564" lon="6.80312">
        <ele>1339</ele>
        <time>2013-09-22T09:04:15Z</time>
      </trkpt>
      <trkpt lat="44.08566" lon="6.80305">
        <ele>1340</ele>
        <time>2013-09-22T09:04:22Z</time>
      </trkpt>
      <trkpt lat="44.0857" lon="6.803">
        <ele>1341</ele>
        <time>2013-09-22T09:04:29Z</time>
      </trkpt>
      <trkpt lat="44.08569" lon="6.80297">
        <ele>1342</ele>
        <time>2013-09-22T09:04:33Z</time>
      </trkpt>
      <trkpt lat="44.08563" lon="6.8029">
        <ele>1345</ele>
        <time>2013-09-22T09:04:46Z</time>
      </trkpt>
      <trkpt lat="44.08563" lon="6.8028">
        <ele>1348</ele>
        <time>2013-09-22T09:05:02Z</time>
      </trkpt>
      <trkpt lat="44.08558" lon="6.80248">
        <ele>1350</ele>
        <time>2013-09-22T09:05:18Z</time>
      </trkpt>
      <trkpt lat="44.08559" lon="6.80239">
        <ele>1350</ele>
        <time>2013-09-22T09:05:23Z</time>
      </trkpt>
      <trkpt lat="44.08561" lon="6.80213">
        <ele>1352</ele>
        <time>2013-09-22T09:05:35Z</time>
      </trkpt>
      <trkpt lat="44.08561" lon="6.80204">
        <ele>1353</ele>
        <time>2013-09-22T09:05:40Z</time>
      </trkpt>
      <trkpt lat="44.08557" lon="6.8019">
        <ele>1355</ele>
        <time>2013-09-22T09:05:51Z</time>
      </trkpt>
      <trkpt lat="44.08546" lon="6.80176">
        <ele>1357</ele>
        <time>2013-09-22T09:06:04Z</time>
      </trkpt>
      <trkpt lat="44.08543" lon="6.80169">
        <ele>1358</ele>
        <time>2013-09-22T09:06:09Z</time>
      </trkpt>
      <trkpt lat="44.08538" lon="6.8016">
        <ele>1360</ele>
        <time>2013-09-22T09:06:16Z</time>
      </trkpt>
      <trkpt lat="44.08535" lon="6.80141">
        <ele>1362</ele>
        <time>2013-09-22T09:06:29Z</time>
      </trkpt>
      <trkpt lat="44.08525" lon="6.80133">
        <ele>1365</ele>
        <time>2013-09-22T09:06:38Z</time>
      </trkpt>
      <trkpt lat="44.08519" lon="6.80125">
        <ele>1366</ele>
        <time>2013-09-22T09:06:46Z</time>
      </trkpt>
      <trkpt lat="44.08514" lon="6.80119">
        <ele>1367</ele>
        <time>2013-09-22T09:06:52Z</time>
      </trkpt>
      <trkpt lat="44.085" lon="6.80104">
        <ele>1370</ele>
        <time>2013-09-22T09:07:07Z</time>
      </trkpt>
      <trkpt lat="44.08492" lon="6.80096">
        <ele>1371</ele>
        <time>2013-09-22T09:07:14Z</time>
      </trkpt>
      <trkpt lat="44.08482" lon="6.80087">
        <ele>1372</ele>
        <time>2013-09-22T09:07:24Z</time>
      </trkpt>
      <trkpt lat="44.08471" lon="6.80082">
        <ele>1374</ele>
        <time>2013-09-22T09:07:34Z</time>
      </trkpt>
      <trkpt lat="44.08463" lon="6.80079">
        <ele>1374</ele>
        <time>2013-09-22T09:07:40Z</time>
      </trkpt>
      <trkpt lat="44.08444" lon="6.80076">
        <ele>1376</ele>
        <time>2013-09-22T09:07:53Z</time>
      </trkpt>
      <trkpt lat="44.08429" lon="6.80067">
        <ele>1379</ele>
        <time>2013-09-22T09:08:07Z</time>
      </trkpt>
      <trkpt lat="44.0842" lon="6.80051">
        <ele>1381</ele>
        <time>2013-09-22T09:08:21Z</time>
      </trkpt>
      <trkpt lat="44.08415" lon="6.80044">
        <ele>1384</ele>
        <time>2013-09-22T09:08:34Z</time>
      </trkpt>
      <trkpt lat="44.08413" lon="6.80042">
        <ele>1387</ele>
        <time>2013-09-22T09:08:50Z</time>
      </trkpt>
      <trkpt lat="44.08407" lon="6.80034">
        <ele>1389</ele>
        <time>2013-09-22T09:09:02Z</time>
      </trkpt>
      <trkpt lat="44.08405" lon="6.80028">
        <ele>1391</ele>
        <time>2013-09-22T09:09:11Z</time>
      </trkpt>
      <trkpt lat="44.08401" lon="6.8002">
        <ele>1393</ele>
        <time>2013-09-22T09:09:25Z</time>
      </trkpt>
      <trkpt lat="44.08398" lon="6.80018">
        <ele>1394</ele>
        <time>2013-09-22T09:09:33Z</time>
      </trkpt>
      <trkpt lat="44.08384" lon="6.80012">
        <ele>1396</ele>
        <time>2013-09-22T09:09:46Z</time>
      </trkpt>
      <trkpt lat="44.08383" lon="6.80009">
        <ele>1397</ele>
        <time>2013-09-22T09:09:51Z</time>
      </trkpt>
      <trkpt lat="44.08381" lon="6.80005">
        <ele>1398</ele>
        <time>2013-09-22T09:09:58Z</time>
      </trkpt>
      <trkpt lat="44.08375" lon="6.79994">
        <ele>1400</ele>
        <time>2013-09-22T09:10:11Z</time>
      </trkpt>
      <trkpt lat="44.08371" lon="6.79987">
        <ele>1401</ele>
        <time>2013-09-22T09:10:18Z</time>
      </trkpt>
      <trkpt lat="44.08367" lon="6.79985">
        <ele>1402</ele>
        <time>2013-09-22T09:10:23Z</time>
      </trkpt>
      <trkpt lat="44.08361" lon="6.7998">
        <ele>1403</ele>
        <time>2013-09-22T09:10:31Z</time>
      </trkpt>
      <trkpt lat="44.08359" lon="6.7997">
        <ele>1406</ele>
        <time>2013-09-22T09:10:48Z</time>
      </trkpt>
      <trkpt lat="44.08354" lon="6.79961">
        <ele>1408</ele>
        <time>2013-09-22T09:11:01Z</time>
      </trkpt>
      <trkpt lat="44.08344" lon="6.79956">
        <ele>1410</ele>
        <time>2013-09-22T09:11:13Z</time>
      </trkpt>
      <trkpt lat="44.0834" lon="6.79947">
        <ele>1412</ele>
        <time>2013-09-22T09:11:23Z</time>
      </trkpt>
      <trkpt lat="44.08336" lon="6.79948">
        <ele>1412</ele>
        <time>2013-09-22T09:11:27Z</time>
      </trkpt>
      <trkpt lat="44.08333" lon="6.79947">
        <ele>1415</ele>
        <time>2013-09-22T09:11:44Z</time>
      </trkpt>
      <trkpt lat="44.08336" lon="6.7995">
        <ele>1418</ele>
        <time>2013-09-22T09:11:58Z</time>
      </trkpt>
      <trkpt lat="44.08345" lon="6.79947">
        <ele>1423</ele>
        <time>2013-09-22T09:12:31Z</time>
      </trkpt>
      <trkpt lat="44.08334" lon="6.79946">
        <ele>1424</ele>
        <time>2013-09-22T09:12:43Z</time>
      </trkpt>
      <trkpt lat="44.08333" lon="6.79953">
        <ele>1429</ele>
        <time>2013-09-22T09:15:02Z</time>
      </trkpt>
      <trkpt lat="44.0833" lon="6.79955">
        <ele>1430</ele>
        <time>2013-09-22T09:15:24Z</time>
      </trkpt>
      <trkpt lat="44.08329" lon="6.79961">
        <ele>1430</ele>
        <time>2013-09-22T09:15:29Z</time>
      </trkpt>
      <trkpt lat="44.08325" lon="6.79962">
        <ele>1430</ele>
        <time>2013-09-22T09:15:33Z</time>
      </trkpt>
      <trkpt lat="44.0832" lon="6.79964">
        <ele>1431</ele>
        <time>2013-09-22T09:15:43Z</time>
      </trkpt>
      <trkpt lat="44.08306" lon="6.79975">
        <ele>1433</ele>
        <time>2013-09-22T09:16:00Z</time>
      </trkpt>
      <trkpt lat="44.08302" lon="6.79977">
        <ele>1434</ele>
        <time>2013-09-22T09:16:06Z</time>
      </trkpt>
      <trkpt lat="44.08294" lon="6.79978">
        <ele>1435</ele>
        <time>2013-09-22T09:16:21Z</time>
      </trkpt>
      <trkpt lat="44.08287" lon="6.79977">
        <ele>1437</ele>
        <time>2013-09-22T09:16:34Z</time>
      </trkpt>
      <trkpt lat="44.08277" lon="6.7998">
        <ele>1439</ele>
        <time>2013-09-22T09:16:51Z</time>
      </trkpt>
      <trkpt lat="44.08272" lon="6.79982">
        <ele>1440</ele>
        <time>2013-09-22T09:16:56Z</time>
      </trkpt>
      <trkpt lat="44.08271" lon="6.79984">
        <ele>1441</ele>
        <time>2013-09-22T09:16:59Z</time>
      </trkpt>
      <trkpt lat="44.08266" lon="6.7999">
        <ele>1442</ele>
        <time>2013-09-22T09:17:08Z</time>
      </trkpt>
      <trkpt lat="44.08259" lon="6.79995">
        <ele>1443</ele>
        <time>2013-09-22T09:17:14Z</time>
      </trkpt>
      <trkpt lat="44.0825" lon="6.79998">
        <ele>1444</ele>
        <time>2013-09-22T09:17:20Z</time>
      </trkpt>
      <trkpt lat="44.08242" lon="6.80003">
        <ele>1447</ele>
        <time>2013-09-22T09:17:35Z</time>
      </trkpt>
      <trkpt lat="44.08234" lon="6.80005">
        <ele>1449</ele>
        <time>2013-09-22T09:17:45Z</time>
      </trkpt>
      <trkpt lat="44.08231" lon="6.79997">
        <ele>1450</ele>
        <time>2013-09-22T09:17:59Z</time>
      </trkpt>
      <trkpt lat="44.08221" lon="6.79999">
        <ele>1451</ele>
        <time>2013-09-22T09:18:12Z</time>
      </trkpt>
      <trkpt lat="44.08215" lon="6.8">
        <ele>1452</ele>
        <time>2013-09-22T09:18:19Z</time>
      </trkpt>
      <trkpt lat="44.08207" lon="6.79997">
        <ele>1453</ele>
        <time>2013-09-22T09:18:34Z</time>
      </trkpt>
      <trkpt lat="44.08204" lon="6.79993">
        <ele>1454</ele>
        <time>2013-09-22T09:18:45Z</time>
      </trkpt>
      <trkpt lat="44.08195" lon="6.79989">
        <ele>1457</ele>
        <time>2013-09-22T09:19:01Z</time>
      </trkpt>
      <trkpt lat="44.08187" lon="6.79993">
        <ele>1458</ele>
        <time>2013-09-22T09:19:10Z</time>
      </trkpt>
      <trkpt lat="44.08179" lon="6.79999">
        <ele>1458</ele>
        <time>2013-09-22T09:19:14Z</time>
      </trkpt>
      <trkpt lat="44.08169" lon="6.80013">
        <ele>1458</ele>
        <time>2013-09-22T09:19:20Z</time>
      </trkpt>
      <trkpt lat="44.08163" lon="6.80022">
        <ele>1459</ele>
        <time>2013-09-22T09:19:25Z</time>
      </trkpt>
      <trkpt lat="44.08158" lon="6.80024">
        <ele>1459</ele>
        <time>2013-09-22T09:19:28Z</time>
      </trkpt>
      <trkpt lat="44.0815" lon="6.80027">
        <ele>1461</ele>
        <time>2013-09-22T09:19:43Z</time>
      </trkpt>
      <trkpt lat="44.08153" lon="6.80035">
        <ele>1462</ele>
        <time>2013-09-22T09:19:52Z</time>
      </trkpt>
      <trkpt lat="44.0815" lon="6.80039">
        <ele>1463</ele>
        <time>2013-09-22T09:19:57Z</time>
      </trkpt>
      <trkpt lat="44.08145" lon="6.80041">
        <ele>1464</ele>
        <time>2013-09-22T09:20:07Z</time>
      </trkpt>
      <trkpt lat="44.08138" lon="6.80039">
        <ele>1466</ele>
        <time>2013-09-22T09:20:22Z</time>
      </trkpt>
      <trkpt lat="44.08128" lon="6.80049">
        <ele>1468</ele>
        <time>2013-09-22T09:20:35Z</time>
      </trkpt>
      <trkpt lat="44.08128" lon="6.80054">
        <ele>1469</ele>
        <time>2013-09-22T09:20:40Z</time>
      </trkpt>
      <trkpt lat="44.08128" lon="6.80057">
        <ele>1469</ele>
        <time>2013-09-22T09:20:42Z</time>
      </trkpt>
      <trkpt lat="44.08123" lon="6.80066">
        <ele>1471</ele>
        <time>2013-09-22T09:20:52Z</time>
      </trkpt>
      <trkpt lat="44.08116" lon="6.80072">
        <ele>1472</ele>
        <time>2013-09-22T09:21:00Z</time>
      </trkpt>
      <trkpt lat="44.08102" lon="6.80083">
        <ele>1474</ele>
        <time>2013-09-22T09:21:17Z</time>
      </trkpt>
      <trkpt lat="44.08099" lon="6.80085">
        <ele>1474</ele>
        <time>2013-09-22T09:21:22Z</time>
      </trkpt>
      <trkpt lat="44.08089" lon="6.80092">
        <ele>1477</ele>
        <time>2013-09-22T09:21:39Z</time>
      </trkpt>
      <trkpt lat="44.08078" lon="6.80103">
        <ele>1479</ele>
        <time>2013-09-22T09:21:55Z</time>
      </trkpt>
      <trkpt lat="44.08075" lon="6.80107">
        <ele>1480</ele>
        <time>2013-09-22T09:22:01Z</time>
      </trkpt>
      <trkpt lat="44.08064" lon="6.8012">
        <ele>1481</ele>
        <time>2013-09-22T09:22:13Z</time>
      </trkpt>
      <trkpt lat="44.08049" lon="6.80132">
        <ele>1482</ele>
        <time>2013-09-22T09:22:25Z</time>
      </trkpt>
      <trkpt lat="44.08023" lon="6.80153">
        <ele>1483</ele>
        <time>2013-09-22T09:22:39Z</time>
      </trkpt>
      <trkpt lat="44.07998" lon="6.80171">
        <ele>1484</ele>
        <time>2013-09-22T09:22:55Z</time>
      </trkpt>
      <trkpt lat="44.07977" lon="6.80186">
        <ele>1486</ele>
        <time>2013-09-22T09:23:11Z</time>
      </trkpt>
      <trkpt lat="44.07945" lon="6.80199">
        <ele>1489</ele>
        <time>2013-09-22T09:23:32Z</time>
      </trkpt>
      <trkpt lat="44.07917" lon="6.80198">
        <ele>1490</ele>
        <time>2013-09-22T09:23:46Z</time>
      </trkpt>
      <trkpt lat="44.07892" lon="6.80194">
        <ele>1491</ele>
        <time>2013-09-22T09:23:54Z</time>
      </trkpt>
      <trkpt lat="44.07857" lon="6.80194">
        <ele>1492</ele>
        <time>2013-09-22T09:24:03Z</time>
      </trkpt>
      <trkpt lat="44.07836" lon="6.80189">
        <ele>1492</ele>
        <time>2013-09-22T09:24:07Z</time>
      </trkpt>
      <trkpt lat="44.07812" lon="6.80177">
        <ele>1492</ele>
        <time>2013-09-22T09:24:14Z</time>
      </trkpt>
      <trkpt lat="44.07805" lon="6.80176">
        <ele>1492</ele>
        <time>2013-09-22T09:24:19Z</time>
      </trkpt>
      <trkpt lat="44.07803" lon="6.80177">
        <ele>1492</ele>
        <time>2013-09-22T09:24:21Z</time>
      </trkpt>
      <trkpt lat="44.07796" lon="6.80174">
        <ele>1492</ele>
        <time>2013-09-22T09:24:27Z</time>
      </trkpt>
      <trkpt lat="44.07787" lon="6.80173">
        <ele>1492</ele>
        <time>2013-09-22T09:24:33Z</time>
      </trkpt>
      <trkpt lat="44.07781" lon="6.80174">
        <ele>1494</ele>
        <time>2013-09-22T09:24:59Z</time>
      </trkpt>
      <trkpt lat="44.07761" lon="6.80178">
        <ele>1497</ele>
        <time>2013-09-22T09:25:20Z</time>
      </trkpt>
      <trkpt lat="44.07742" lon="6.80173">
        <ele>1501</ele>
        <time>2013-09-22T09:25:42Z</time>
      </trkpt>
      <trkpt lat="44.07731" lon="6.80176">
        <ele>1503</ele>
        <time>2013-09-22T09:25:56Z</time>
      </trkpt>
      <trkpt lat="44.07715" lon="6.8019">
        <ele>1504</ele>
        <time>2013-09-22T09:26:07Z</time>
      </trkpt>
      <trkpt lat="44.0771" lon="6.80187">
        <ele>1505</ele>
        <time>2013-09-22T09:26:11Z</time>
      </trkpt>
      <trkpt lat="44.07699" lon="6.80182">
        <ele>1505</ele>
        <time>2013-09-22T09:26:17Z</time>
      </trkpt>
      <trkpt lat="44.07683" lon="6.80177">
        <ele>1506</ele>
        <time>2013-09-22T09:26:29Z</time>
      </trkpt>
      <trkpt lat="44.07676" lon="6.80177">
        <ele>1507</ele>
        <time>2013-09-22T09:26:35Z</time>
      </trkpt>
      <trkpt lat="44.07666" lon="6.80172">
        <ele>1508</ele>
        <time>2013-09-22T09:26:43Z</time>
      </trkpt>
      <trkpt lat="44.07647" lon="6.80168">
        <ele>1510</ele>
        <time>2013-09-22T09:26:57Z</time>
      </trkpt>
      <trkpt lat="44.07636" lon="6.80169">
        <ele>1512</ele>
        <time>2013-09-22T09:27:10Z</time>
      </trkpt>
      <trkpt lat="44.07624" lon="6.80175">
        <ele>1515</ele>
        <time>2013-09-22T09:27:27Z</time>
      </trkpt>
      <trkpt lat="44.0761" lon="6.80179">
        <ele>1518</ele>
        <time>2013-09-22T09:27:46Z</time>
      </trkpt>
      <trkpt lat="44.07597" lon="6.8018">
        <ele>1521</ele>
        <time>2013-09-22T09:28:02Z</time>
      </trkpt>
      <trkpt lat="44.0758" lon="6.80184">
        <ele>1524</ele>
        <time>2013-09-22T09:28:19Z</time>
      </trkpt>
      <trkpt lat="44.07563" lon="6.80184">
        <ele>1528</ele>
        <time>2013-09-22T09:28:40Z</time>
      </trkpt>
      <trkpt lat="44.07547" lon="6.80188">
        <ele>1531</ele>
        <time>2013-09-22T09:28:57Z</time>
      </trkpt>
      <trkpt lat="44.07542" lon="6.80189">
        <ele>1532</ele>
        <time>2013-09-22T09:29:03Z</time>
      </trkpt>
      <trkpt lat="44.07533" lon="6.80187">
        <ele>1534</ele>
        <time>2013-09-22T09:29:18Z</time>
      </trkpt>
      <trkpt lat="44.07523" lon="6.80183">
        <ele>1537</ele>
        <time>2013-09-22T09:29:32Z</time>
      </trkpt>
      <trkpt lat="44.07518" lon="6.80181">
        <ele>1538</ele>
        <time>2013-09-22T09:29:43Z</time>
      </trkpt>
      <trkpt lat="44.07501" lon="6.8017">
        <ele>1540</ele>
        <time>2013-09-22T09:29:55Z</time>
      </trkpt>
      <trkpt lat="44.07484" lon="6.80147">
        <ele>1541</ele>
        <time>2013-09-22T09:30:09Z</time>
      </trkpt>
      <trkpt lat="44.07479" lon="6.8013">
        <ele>1541</ele>
        <time>2013-09-22T09:30:18Z</time>
      </trkpt>
      <trkpt lat="44.07473" lon="6.80101">
        <ele>1542</ele>
        <time>2013-09-22T09:30:33Z</time>
      </trkpt>
      <trkpt lat="44.07466" lon="6.8009">
        <ele>1543</ele>
        <time>2013-09-22T09:30:39Z</time>
      </trkpt>
      <trkpt lat="44.07454" lon="6.80076">
        <ele>1543</ele>
        <time>2013-09-22T09:30:47Z</time>
      </trkpt>
      <trkpt lat="44.07448" lon="6.8007">
        <ele>1544</ele>
        <time>2013-09-22T09:30:52Z</time>
      </trkpt>
      <trkpt lat="44.07437" lon="6.80059">
        <ele>1545</ele>
        <time>2013-09-22T09:31:01Z</time>
      </trkpt>
      <trkpt lat="44.07433" lon="6.80055">
        <ele>1547</ele>
        <time>2013-09-22T09:31:09Z</time>
      </trkpt>
      <trkpt lat="44.07428" lon="6.8005">
        <ele>1550</ele>
        <time>2013-09-22T09:31:23Z</time>
      </trkpt>
      <trkpt lat="44.07431" lon="6.80041">
        <ele>1552</ele>
        <time>2013-09-22T09:31:35Z</time>
      </trkpt>
      <trkpt lat="44.0743" lon="6.8004">
        <ele>1555</ele>
        <time>2013-09-22T09:31:52Z</time>
      </trkpt>
      <trkpt lat="44.07428" lon="6.80046">
        <ele>1556</ele>
        <time>2013-09-22T09:31:58Z</time>
      </trkpt>
      <trkpt lat="44.07429" lon="6.80045">
        <ele>1561</ele>
        <time>2013-09-22T09:33:04Z</time>
      </trkpt>
      <trkpt lat="44.07433" lon="6.80039">
        <ele>1562</ele>
        <time>2013-09-22T09:35:14Z</time>
      </trkpt>
      <trkpt lat="44.07431" lon="6.80033">
        <ele>1562</ele>
        <time>2013-09-22T09:35:34Z</time>
      </trkpt>
      <trkpt lat="44.07418" lon="6.80009">
        <ele>1562</ele>
        <time>2013-09-22T09:35:44Z</time>
      </trkpt>
      <trkpt lat="44.07407" lon="6.79997">
        <ele>1562</ele>
        <time>2013-09-22T09:35:48Z</time>
      </trkpt>
      <trkpt lat="44.07404" lon="6.79995">
        <ele>1562</ele>
        <time>2013-09-22T09:35:51Z</time>
      </trkpt>
      <trkpt lat="44.07401" lon="6.79993">
        <ele>1561</ele>
        <time>2013-09-22T09:36:04Z</time>
      </trkpt>
      <trkpt lat="44.07386" lon="6.79985">
        <ele>1567</ele>
        <time>2013-09-22T09:42:40Z</time>
      </trkpt>
      <trkpt lat="44.07383" lon="6.79977">
        <ele>1567</ele>
        <time>2013-09-22T09:42:45Z</time>
      </trkpt>
      <trkpt lat="44.07369" lon="6.79954">
        <ele>1567</ele>
        <time>2013-09-22T09:42:57Z</time>
      </trkpt>
      <trkpt lat="44.07363" lon="6.79947">
        <ele>1567</ele>
        <time>2013-09-22T09:43:01Z</time>
      </trkpt>
      <trkpt lat="44.07355" lon="6.79925">
        <ele>1567</ele>
        <time>2013-09-22T09:43:07Z</time>
      </trkpt>
      <trkpt lat="44.07353" lon="6.79917">
        <ele>1567</ele>
        <time>2013-09-22T09:43:32Z</time>
      </trkpt>
      <trkpt lat="44.07338" lon="6.79893">
        <ele>1567</ele>
        <time>2013-09-22T09:43:38Z</time>
      </trkpt>
      <trkpt lat="44.07311" lon="6.7987">
        <ele>1567</ele>
        <time>2013-09-22T09:43:44Z</time>
      </trkpt>
      <trkpt lat="44.07299" lon="6.79848">
        <ele>1567</ele>
        <time>2013-09-22T09:43:48Z</time>
      </trkpt>
      <trkpt lat="44.0729" lon="6.79826">
        <ele>1567</ele>
        <time>2013-09-22T09:43:54Z</time>
      </trkpt>
      <trkpt lat="44.07265" lon="6.79797">
        <ele>1566</ele>
        <time>2013-09-22T09:44:03Z</time>
      </trkpt>
      <trkpt lat="44.07254" lon="6.79798">
        <ele>1566</ele>
        <time>2013-09-22T09:44:06Z</time>
      </trkpt>
      <trkpt lat="44.07236" lon="6.79788">
        <ele>1566</ele>
        <time>2013-09-22T09:44:11Z</time>
      </trkpt>
      <trkpt lat="44.07228" lon="6.7979">
        <ele>1565</ele>
        <time>2013-09-22T09:44:15Z</time>
      </trkpt>
      <trkpt lat="44.07217" lon="6.79794">
        <ele>1565</ele>
        <time>2013-09-22T09:44:22Z</time>
      </trkpt>
      <trkpt lat="44.07212" lon="6.79786">
        <ele>1565</ele>
        <time>2013-09-22T09:44:27Z</time>
      </trkpt>
      <trkpt lat="44.07211" lon="6.79775">
        <ele>1564</ele>
        <time>2013-09-22T09:44:33Z</time>
      </trkpt>
      <trkpt lat="44.07212" lon="6.79769">
        <ele>1564</ele>
        <time>2013-09-22T09:44:38Z</time>
      </trkpt>
      <trkpt lat="44.07213" lon="6.7976">
        <ele>1563</ele>
        <time>2013-09-22T09:44:50Z</time>
      </trkpt>
      <trkpt lat="44.07216" lon="6.79746">
        <ele>1560</ele>
        <time>2013-09-22T09:46:31Z</time>
      </trkpt>
      <trkpt lat="44.0723" lon="6.79688">
        <ele>1560</ele>
        <time>2013-09-22T09:46:42Z</time>
      </trkpt>
      <trkpt lat="44.0723" lon="6.79661">
        <ele>1560</ele>
        <time>2013-09-22T09:46:47Z</time>
      </trkpt>
      <trkpt lat="44.07224" lon="6.79603">
        <ele>1559</ele>
        <time>2013-09-22T09:46:58Z</time>
      </trkpt>
      <trkpt lat="44.07224" lon="6.79574">
        <ele>1558</ele>
        <time>2013-09-22T09:47:07Z</time>
      </trkpt>
      <trkpt lat="44.07225" lon="6.79565">
        <ele>1558</ele>
        <time>2013-09-22T09:47:15Z</time>
      </trkpt>
      <trkpt lat="44.07223" lon="6.79559">
        <ele>1557</ele>
        <time>2013-09-22T09:47:21Z</time>
      </trkpt>
      <trkpt lat="44.0722" lon="6.79553">
        <ele>1557</ele>
        <time>2013-09-22T09:47:25Z</time>
      </trkpt>
      <trkpt lat="44.07219" lon="6.7954">
        <ele>1557</ele>
        <time>2013-09-22T09:47:30Z</time>
      </trkpt>
      <trkpt lat="44.07222" lon="6.79515">
        <ele>1556</ele>
        <time>2013-09-22T09:47:39Z</time>
      </trkpt>
      <trkpt lat="44.07227" lon="6.79508">
        <ele>1555</ele>
        <time>2013-09-22T09:47:46Z</time>
      </trkpt>
      <trkpt lat="44.07222" lon="6.79499">
        <ele>1555</ele>
        <time>2013-09-22T09:47:52Z</time>
      </trkpt>
      <trkpt lat="44.07224" lon="6.79487">
        <ele>1554</ele>
        <time>2013-09-22T09:48:01Z</time>
      </trkpt>
      <trkpt lat="44.07219" lon="6.79483">
        <ele>1553</ele>
        <time>2013-09-22T09:48:08Z</time>
      </trkpt>
      <trkpt lat="44.07209" lon="6.79491">
        <ele>1552</ele>
        <time>2013-09-22T09:48:18Z</time>
      </trkpt>
      <trkpt lat="44.07202" lon="6.79494">
        <ele>1551</ele>
        <time>2013-09-22T09:48:25Z</time>
      </trkpt>
      <trkpt lat="44.0719" lon="6.79495">
        <ele>1550</ele>
        <time>2013-09-22T09:48:36Z</time>
      </trkpt>
      <trkpt lat="44.07181" lon="6.79499">
        <ele>1549</ele>
        <time>2013-09-22T09:48:47Z</time>
      </trkpt>
      <trkpt lat="44.07164" lon="6.79507">
        <ele>1548</ele>
        <time>2013-09-22T09:48:58Z</time>
      </trkpt>
      <trkpt lat="44.07154" lon="6.79512">
        <ele>1547</ele>
        <time>2013-09-22T09:49:09Z</time>
      </trkpt>
      <trkpt lat="44.07145" lon="6.79517">
        <ele>1546</ele>
        <time>2013-09-22T09:49:17Z</time>
      </trkpt>
      <trkpt lat="44.07136" lon="6.79517">
        <ele>1545</ele>
        <time>2013-09-22T09:49:28Z</time>
      </trkpt>
      <trkpt lat="44.07106" lon="6.79511">
        <ele>1544</ele>
        <time>2013-09-22T09:49:39Z</time>
      </trkpt>
      <trkpt lat="44.0707" lon="6.79496">
        <ele>1543</ele>
        <time>2013-09-22T09:49:49Z</time>
      </trkpt>
      <trkpt lat="44.07032" lon="6.79491">
        <ele>1542</ele>
        <time>2013-09-22T09:50:00Z</time>
      </trkpt>
      <trkpt lat="44.07001" lon="6.79481">
        <ele>1541</ele>
        <time>2013-09-22T09:50:10Z</time>
      </trkpt>
      <trkpt lat="44.06998" lon="6.79482">
        <ele>1540</ele>
        <time>2013-09-22T09:50:15Z</time>
      </trkpt>
      <trkpt lat="44.06992" lon="6.79482">
        <ele>1540</ele>
        <time>2013-09-22T09:50:19Z</time>
      </trkpt>
      <trkpt lat="44.06982" lon="6.79479">
        <ele>1539</ele>
        <time>2013-09-22T09:50:29Z</time>
      </trkpt>
      <trkpt lat="44.06972" lon="6.79485">
        <ele>1538</ele>
        <time>2013-09-22T09:50:42Z</time>
      </trkpt>
      <trkpt lat="44.06954" lon="6.79479">
        <ele>1538</ele>
        <time>2013-09-22T09:50:53Z</time>
      </trkpt>
      <trkpt lat="44.06943" lon="6.79483">
        <ele>1538</ele>
        <time>2013-09-22T09:50:57Z</time>
      </trkpt>
      <trkpt lat="44.06936" lon="6.79488">
        <ele>1537</ele>
        <time>2013-09-22T09:51:01Z</time>
      </trkpt>
      <trkpt lat="44.06921" lon="6.79496">
        <ele>1537</ele>
        <time>2013-09-22T09:51:06Z</time>
      </trkpt>
      <trkpt lat="44.06898" lon="6.7949">
        <ele>1537</ele>
        <time>2013-09-22T09:51:16Z</time>
      </trkpt>
      <trkpt lat="44.0687" lon="6.7949">
        <ele>1536</ele>
        <time>2013-09-22T09:51:25Z</time>
      </trkpt>
      <trkpt lat="44.06842" lon="6.79484">
        <ele>1536</ele>
        <time>2013-09-22T09:51:33Z</time>
      </trkpt>
      <trkpt lat="44.06818" lon="6.7948">
        <ele>1535</ele>
        <time>2013-09-22T09:51:41Z</time>
      </trkpt>
      <trkpt lat="44.06799" lon="6.79478">
        <ele>1535</ele>
        <time>2013-09-22T09:51:50Z</time>
      </trkpt>
      <trkpt lat="44.06785" lon="6.7947">
        <ele>1535</ele>
        <time>2013-09-22T09:52:01Z</time>
      </trkpt>
      <trkpt lat="44.06779" lon="6.79472">
        <ele>1535</ele>
        <time>2013-09-22T09:52:07Z</time>
      </trkpt>
      <trkpt lat="44.06763" lon="6.79471">
        <ele>1535</ele>
        <time>2013-09-22T09:52:19Z</time>
      </trkpt>
      <trkpt lat="44.06761" lon="6.79469">
        <ele>1535</ele>
        <time>2013-09-22T09:52:25Z</time>
      </trkpt>
      <trkpt lat="44.06757" lon="6.79468">
        <ele>1535</ele>
        <time>2013-09-22T09:52:30Z</time>
      </trkpt>
      <trkpt lat="44.06747" lon="6.79467">
        <ele>1536</ele>
        <time>2013-09-22T09:52:44Z</time>
      </trkpt>
      <trkpt lat="44.06739" lon="6.79463">
        <ele>1538</ele>
        <time>2013-09-22T09:52:57Z</time>
      </trkpt>
      <trkpt lat="44.06732" lon="6.79457">
        <ele>1539</ele>
        <time>2013-09-22T09:53:10Z</time>
      </trkpt>
      <trkpt lat="44.06722" lon="6.79452">
        <ele>1540</ele>
        <time>2013-09-22T09:53:25Z</time>
      </trkpt>
      <trkpt lat="44.06699" lon="6.79448">
        <ele>1542</ele>
        <time>2013-09-22T09:53:39Z</time>
      </trkpt>
      <trkpt lat="44.0668" lon="6.79445">
        <ele>1542</ele>
        <time>2013-09-22T09:53:47Z</time>
      </trkpt>
      <trkpt lat="44.06656" lon="6.79431">
        <ele>1543</ele>
        <time>2013-09-22T09:53:56Z</time>
      </trkpt>
      <trkpt lat="44.06633" lon="6.79422">
        <ele>1543</ele>
        <time>2013-09-22T09:54:05Z</time>
      </trkpt>
      <trkpt lat="44.06604" lon="6.79412">
        <ele>1543</ele>
        <time>2013-09-22T09:54:14Z</time>
      </trkpt>
      <trkpt lat="44.06575" lon="6.79405">
        <ele>1543</ele>
        <time>2013-09-22T09:54:23Z</time>
      </trkpt>
      <trkpt lat="44.06551" lon="6.79375">
        <ele>1543</ele>
        <time>2013-09-22T09:54:31Z</time>
      </trkpt>
      <trkpt lat="44.0654" lon="6.7936">
        <ele>1543</ele>
        <time>2013-09-22T09:54:34Z</time>
      </trkpt>
      <trkpt lat="44.0653" lon="6.79347">
        <ele>1543</ele>
        <time>2013-09-22T09:54:37Z</time>
      </trkpt>
      <trkpt lat="44.06519" lon="6.79324">
        <ele>1543</ele>
        <time>2013-09-22T09:54:42Z</time>
      </trkpt>
      <trkpt lat="44.06512" lon="6.79309">
        <ele>1543</ele>
        <time>2013-09-22T09:54:45Z</time>
      </trkpt>
      <trkpt lat="44.06499" lon="6.79285">
        <ele>1542</ele>
        <time>2013-09-22T09:54:51Z</time>
      </trkpt>
      <trkpt lat="44.06491" lon="6.79267">
        <ele>1542</ele>
        <time>2013-09-22T09:54:54Z</time>
      </trkpt>
      <trkpt lat="44.06485" lon="6.79263">
        <ele>1542</ele>
        <time>2013-09-22T09:54:57Z</time>
      </trkpt>
      <trkpt lat="44.06476" lon="6.79253">
        <ele>1542</ele>
        <time>2013-09-22T09:55:01Z</time>
      </trkpt>
      <trkpt lat="44.06469" lon="6.79244">
        <ele>1542</ele>
        <time>2013-09-22T09:55:04Z</time>
      </trkpt>
      <trkpt lat="44.06445" lon="6.79235">
        <ele>1541</ele>
        <time>2013-09-22T09:55:11Z</time>
      </trkpt>
      <trkpt lat="44.06416" lon="6.79208">
        <ele>1540</ele>
        <time>2013-09-22T09:55:20Z</time>
      </trkpt>
      <trkpt lat="44.06383" lon="6.79197">
        <ele>1539</ele>
        <time>2013-09-22T09:55:30Z</time>
      </trkpt>
      <trkpt lat="44.06389" lon="6.79211">
        <ele>1538</ele>
        <time>2013-09-22T09:55:37Z</time>
      </trkpt>
      <trkpt lat="44.06393" lon="6.79214">
        <ele>1537</ele>
        <time>2013-09-22T09:55:42Z</time>
      </trkpt>
      <trkpt lat="44.06386" lon="6.79212">
        <ele>1535</ele>
        <time>2013-09-22T09:55:51Z</time>
      </trkpt>
      <trkpt lat="44.06359" lon="6.79209">
        <ele>1533</ele>
        <time>2013-09-22T09:55:59Z</time>
      </trkpt>
      <trkpt lat="44.06345" lon="6.79207">
        <ele>1532</ele>
        <time>2013-09-22T09:56:03Z</time>
      </trkpt>
      <trkpt lat="44.06314" lon="6.79201">
        <ele>1530</ele>
        <time>2013-09-22T09:56:09Z</time>
      </trkpt>
      <trkpt lat="44.06306" lon="6.79208">
        <ele>1530</ele>
        <time>2013-09-22T09:56:12Z</time>
      </trkpt>
      <trkpt lat="44.06291" lon="6.79234">
        <ele>1528</ele>
        <time>2013-09-22T09:56:18Z</time>
      </trkpt>
      <trkpt lat="44.06282" lon="6.79238">
        <ele>1528</ele>
        <time>2013-09-22T09:56:21Z</time>
      </trkpt>
      <trkpt lat="44.06281" lon="6.7924">
        <ele>1516</ele>
        <time>2013-09-22T09:57:12Z</time>
      </trkpt>
      <trkpt lat="44.06269" lon="6.79228">
        <ele>1504</ele>
        <time>2013-09-22T09:58:35Z</time>
      </trkpt>
      <trkpt lat="44.06261" lon="6.79198">
        <ele>1503</ele>
        <time>2013-09-22T09:58:44Z</time>
      </trkpt>
      <trkpt lat="44.06258" lon="6.79192">
        <ele>1503</ele>
        <time>2013-09-22T09:58:48Z</time>
      </trkpt>
      <trkpt lat="44.06255" lon="6.79187">
        <ele>1502</ele>
        <time>2013-09-22T09:58:56Z</time>
      </trkpt>
      <trkpt lat="44.06255" lon="6.79174">
        <ele>1498</ele>
        <time>2013-09-22T09:59:31Z</time>
      </trkpt>
      <trkpt lat="44.06252" lon="6.79174">
        <ele>1496</ele>
        <time>2013-09-22T09:59:47Z</time>
      </trkpt>
      <trkpt lat="44.06247" lon="6.79178">
        <ele>1495</ele>
        <time>2013-09-22T10:00:05Z</time>
      </trkpt>
      <trkpt lat="44.0624" lon="6.79181">
        <ele>1494</ele>
        <time>2013-09-22T10:00:17Z</time>
      </trkpt>
      <trkpt lat="44.0623" lon="6.79202">
        <ele>1492</ele>
        <time>2013-09-22T10:00:43Z</time>
      </trkpt>
      <trkpt lat="44.06216" lon="6.79229">
        <ele>1491</ele>
        <time>2013-09-22T10:00:58Z</time>
      </trkpt>
      <trkpt lat="44.06209" lon="6.7927">
        <ele>1490</ele>
        <time>2013-09-22T10:01:16Z</time>
      </trkpt>
      <trkpt lat="44.06207" lon="6.79295">
        <ele>1490</ele>
        <time>2013-09-22T10:01:26Z</time>
      </trkpt>
      <trkpt lat="44.062" lon="6.79311">
        <ele>1490</ele>
        <time>2013-09-22T10:01:31Z</time>
      </trkpt>
      <trkpt lat="44.06197" lon="6.79325">
        <ele>1490</ele>
        <time>2013-09-22T10:01:35Z</time>
      </trkpt>
      <trkpt lat="44.0619" lon="6.79338">
        <ele>1490</ele>
        <time>2013-09-22T10:01:39Z</time>
      </trkpt>
      <trkpt lat="44.06184" lon="6.79348">
        <ele>1490</ele>
        <time>2013-09-22T10:01:43Z</time>
      </trkpt>
      <trkpt lat="44.06173" lon="6.79375">
        <ele>1490</ele>
        <time>2013-09-22T10:01:53Z</time>
      </trkpt>
      <trkpt lat="44.06171" lon="6.79379">
        <ele>1490</ele>
        <time>2013-09-22T10:01:55Z</time>
      </trkpt>
      <trkpt lat="44.06167" lon="6.79387">
        <ele>1489</ele>
        <time>2013-09-22T10:02:00Z</time>
      </trkpt>
      <trkpt lat="44.06163" lon="6.79394">
        <ele>1489</ele>
        <time>2013-09-22T10:02:05Z</time>
      </trkpt>
      <trkpt lat="44.06156" lon="6.79415">
        <ele>1490</ele>
        <time>2013-09-22T10:02:20Z</time>
      </trkpt>
      <trkpt lat="44.06146" lon="6.79441">
        <ele>1491</ele>
        <time>2013-09-22T10:02:36Z</time>
      </trkpt>
      <trkpt lat="44.06132" lon="6.79459">
        <ele>1492</ele>
        <time>2013-09-22T10:02:50Z</time>
      </trkpt>
      <trkpt lat="44.06116" lon="6.79481">
        <ele>1492</ele>
        <time>2013-09-22T10:03:05Z</time>
      </trkpt>
      <trkpt lat="44.06099" lon="6.79507">
        <ele>1494</ele>
        <time>2013-09-22T10:03:22Z</time>
      </trkpt>
      <trkpt lat="44.06081" lon="6.79531">
        <ele>1496</ele>
        <time>2013-09-22T10:03:37Z</time>
      </trkpt>
      <trkpt lat="44.06066" lon="6.79554">
        <ele>1497</ele>
        <time>2013-09-22T10:03:48Z</time>
      </trkpt>
      <trkpt lat="44.06053" lon="6.79583">
        <ele>1498</ele>
        <time>2013-09-22T10:04:01Z</time>
      </trkpt>
      <trkpt lat="44.06044" lon="6.79617">
        <ele>1500</ele>
        <time>2013-09-22T10:04:17Z</time>
      </trkpt>
      <trkpt lat="44.06043" lon="6.79646">
        <ele>1502</ele>
        <time>2013-09-22T10:04:30Z</time>
      </trkpt>
      <trkpt lat="44.06044" lon="6.79689">
        <ele>1503</ele>
        <time>2013-09-22T10:04:43Z</time>
      </trkpt>
      <trkpt lat="44.06045" lon="6.79737">
        <ele>1504</ele>
        <time>2013-09-22T10:04:58Z</time>
      </trkpt>
      <trkpt lat="44.06038" lon="6.7978">
        <ele>1505</ele>
        <time>2013-09-22T10:05:13Z</time>
      </trkpt>
      <trkpt lat="44.0603" lon="6.79808">
        <ele>1506</ele>
        <time>2013-09-22T10:05:26Z</time>
      </trkpt>
      <trkpt lat="44.0603" lon="6.7984">
        <ele>1507</ele>
        <time>2013-09-22T10:05:40Z</time>
      </trkpt>
      <trkpt lat="44.06025" lon="6.79869">
        <ele>1508</ele>
        <time>2013-09-22T10:05:52Z</time>
      </trkpt>
      <trkpt lat="44.06021" lon="6.79885">
        <ele>1509</ele>
        <time>2013-09-22T10:06:00Z</time>
      </trkpt>
      <trkpt lat="44.06016" lon="6.79903">
        <ele>1510</ele>
        <time>2013-09-22T10:06:09Z</time>
      </trkpt>
      <trkpt lat="44.06014" lon="6.79911">
        <ele>1511</ele>
        <time>2013-09-22T10:06:13Z</time>
      </trkpt>
      <trkpt lat="44.06014" lon="6.79912">
        <ele>1511</ele>
        <time>2013-09-22T10:06:15Z</time>
      </trkpt>
      <trkpt lat="44.06009" lon="6.79923">
        <ele>1519</ele>
        <time>2013-09-22T10:07:16Z</time>
      </trkpt>
      <trkpt lat="44.06011" lon="6.79921">
        <ele>1520</ele>
        <time>2013-09-22T10:07:23Z</time>
      </trkpt>
      <trkpt lat="44.06012" lon="6.7992">
        <ele>1521</ele>
        <time>2013-09-22T10:07:34Z</time>
      </trkpt>
      <trkpt lat="44.06007" lon="6.79928">
        <ele>1527</ele>
        <time>2013-09-22T10:25:28Z</time>
      </trkpt>
      <trkpt lat="44.05994" lon="6.79945">
        <ele>1526</ele>
        <time>2013-09-22T10:25:39Z</time>
      </trkpt>
      <trkpt lat="44.05969" lon="6.79961">
        <ele>1526</ele>
        <time>2013-09-22T10:25:45Z</time>
      </trkpt>
      <trkpt lat="44.05973" lon="6.79977">
        <ele>1526</ele>
        <time>2013-09-22T10:25:51Z</time>
      </trkpt>
      <trkpt lat="44.05975" lon="6.79997">
        <ele>1526</ele>
        <time>2013-09-22T10:26:02Z</time>
      </trkpt>
      <trkpt lat="44.05976" lon="6.80004">
        <ele>1525</ele>
        <time>2013-09-22T10:26:07Z</time>
      </trkpt>
      <trkpt lat="44.05979" lon="6.8002">
        <ele>1525</ele>
        <time>2013-09-22T10:26:19Z</time>
      </trkpt>
      <trkpt lat="44.05979" lon="6.80034">
        <ele>1525</ele>
        <time>2013-09-22T10:26:27Z</time>
      </trkpt>
      <trkpt lat="44.05975" lon="6.80058">
        <ele>1525</ele>
        <time>2013-09-22T10:26:39Z</time>
      </trkpt>
      <trkpt lat="44.05964" lon="6.80076">
        <ele>1526</ele>
        <time>2013-09-22T10:26:52Z</time>
      </trkpt>
      <trkpt lat="44.05964" lon="6.80092">
        <ele>1530</ele>
        <time>2013-09-22T10:27:47Z</time>
      </trkpt>
      <trkpt lat="44.05966" lon="6.80093">
        <ele>1530</ele>
        <time>2013-09-22T10:27:51Z</time>
      </trkpt>
      <trkpt lat="44.05966" lon="6.80102">
        <ele>1530</ele>
        <time>2013-09-22T10:27:56Z</time>
      </trkpt>
      <trkpt lat="44.05961" lon="6.80127">
        <ele>1530</ele>
        <time>2013-09-22T10:28:05Z</time>
      </trkpt>
      <trkpt lat="44.05956" lon="6.80143">
        <ele>1529</ele>
        <time>2013-09-22T10:28:10Z</time>
      </trkpt>
      <trkpt lat="44.05957" lon="6.80148">
        <ele>1529</ele>
        <time>2013-09-22T10:28:13Z</time>
      </trkpt>
      <trkpt lat="44.05967" lon="6.80154">
        <ele>1527</ele>
        <time>2013-09-22T10:28:35Z</time>
      </trkpt>
      <trkpt lat="44.05974" lon="6.80162">
        <ele>1526</ele>
        <time>2013-09-22T10:28:50Z</time>
      </trkpt>
      <trkpt lat="44.05981" lon="6.80181">
        <ele>1525</ele>
        <time>2013-09-22T10:28:55Z</time>
      </trkpt>
      <trkpt lat="44.0599" lon="6.80215">
        <ele>1524</ele>
        <time>2013-09-22T10:29:04Z</time>
      </trkpt>
      <trkpt lat="44.05986" lon="6.80221">
        <ele>1523</ele>
        <time>2013-09-22T10:29:07Z</time>
      </trkpt>
      <trkpt lat="44.05988" lon="6.8022">
        <ele>1522</ele>
        <time>2013-09-22T10:29:15Z</time>
      </trkpt>
      <trkpt lat="44.05995" lon="6.80225">
        <ele>1521</ele>
        <time>2013-09-22T10:29:21Z</time>
      </trkpt>
      <trkpt lat="44.05999" lon="6.80249">
        <ele>1520</ele>
        <time>2013-09-22T10:29:33Z</time>
      </trkpt>
      <trkpt lat="44.05997" lon="6.80273">
        <ele>1519</ele>
        <time>2013-09-22T10:29:42Z</time>
      </trkpt>
      <trkpt lat="44.0599" lon="6.80293">
        <ele>1518</ele>
        <time>2013-09-22T10:29:46Z</time>
      </trkpt>
      <trkpt lat="44.05989" lon="6.80303">
        <ele>1518</ele>
        <time>2013-09-22T10:29:51Z</time>
      </trkpt>
      <trkpt lat="44.05983" lon="6.80318">
        <ele>1517</ele>
        <time>2013-09-22T10:29:57Z</time>
      </trkpt>
      <trkpt lat="44.05973" lon="6.80346">
        <ele>1516</ele>
        <time>2013-09-22T10:30:03Z</time>
      </trkpt>
      <trkpt lat="44.05973" lon="6.80358">
        <ele>1516</ele>
        <time>2013-09-22T10:30:07Z</time>
      </trkpt>
      <trkpt lat="44.05972" lon="6.80372">
        <ele>1515</ele>
        <time>2013-09-22T10:30:11Z</time>
      </trkpt>
      <trkpt lat="44.05968" lon="6.80384">
        <ele>1515</ele>
        <time>2013-09-22T10:30:14Z</time>
      </trkpt>
      <trkpt lat="44.05967" lon="6.80397">
        <ele>1514</ele>
        <time>2013-09-22T10:30:19Z</time>
      </trkpt>
      <trkpt lat="44.05945" lon="6.8041">
        <ele>1513</ele>
        <time>2013-09-22T10:30:28Z</time>
      </trkpt>
      <trkpt lat="44.05924" lon="6.80429">
        <ele>1511</ele>
        <time>2013-09-22T10:30:36Z</time>
      </trkpt>
      <trkpt lat="44.05904" lon="6.80465">
        <ele>1510</ele>
        <time>2013-09-22T10:30:46Z</time>
      </trkpt>
      <trkpt lat="44.05897" lon="6.80487">
        <ele>1508</ele>
        <time>2013-09-22T10:30:55Z</time>
      </trkpt>
      <trkpt lat="44.0589" lon="6.80504">
        <ele>1507</ele>
        <time>2013-09-22T10:31:01Z</time>
      </trkpt>
      <trkpt lat="44.05888" lon="6.80516">
        <ele>1506</ele>
        <time>2013-09-22T10:31:06Z</time>
      </trkpt>
      <trkpt lat="44.05891" lon="6.8052">
        <ele>1505</ele>
        <time>2013-09-22T10:31:14Z</time>
      </trkpt>
      <trkpt lat="44.05896" lon="6.8055">
        <ele>1502</ele>
        <time>2013-09-22T10:31:25Z</time>
      </trkpt>
      <trkpt lat="44.05905" lon="6.80585">
        <ele>1500</ele>
        <time>2013-09-22T10:31:35Z</time>
      </trkpt>
      <trkpt lat="44.05909" lon="6.806">
        <ele>1498</ele>
        <time>2013-09-22T10:31:45Z</time>
      </trkpt>
      <trkpt lat="44.0591" lon="6.80614">
        <ele>1496</ele>
        <time>2013-09-22T10:31:51Z</time>
      </trkpt>
      <trkpt lat="44.05912" lon="6.80652">
        <ele>1494</ele>
        <time>2013-09-22T10:31:59Z</time>
      </trkpt>
      <trkpt lat="44.05906" lon="6.80686">
        <ele>1492</ele>
        <time>2013-09-22T10:32:08Z</time>
      </trkpt>
      <trkpt lat="44.05905" lon="6.807">
        <ele>1490</ele>
        <time>2013-09-22T10:32:14Z</time>
      </trkpt>
      <trkpt lat="44.05906" lon="6.80701">
        <ele>1487</ele>
        <time>2013-09-22T10:32:28Z</time>
      </trkpt>
      <trkpt lat="44.05907" lon="6.80695">
        <ele>1479</ele>
        <time>2013-09-22T10:32:57Z</time>
      </trkpt>
      <trkpt lat="44.05907" lon="6.80688">
        <ele>1478</ele>
        <time>2013-09-22T10:33:03Z</time>
      </trkpt>
      <trkpt lat="44.05911" lon="6.8066">
        <ele>1474</ele>
        <time>2013-09-22T10:33:20Z</time>
      </trkpt>
      <trkpt lat="44.05913" lon="6.80644">
        <ele>1471</ele>
        <time>2013-09-22T10:33:36Z</time>
      </trkpt>
      <trkpt lat="44.05914" lon="6.80632">
        <ele>1468</ele>
        <time>2013-09-22T10:33:50Z</time>
      </trkpt>
      <trkpt lat="44.05911" lon="6.80611">
        <ele>1466</ele>
        <time>2013-09-22T10:34:09Z</time>
      </trkpt>
      <trkpt lat="44.05908" lon="6.80596">
        <ele>1464</ele>
        <time>2013-09-22T10:34:25Z</time>
      </trkpt>
      <trkpt lat="44.05907" lon="6.80587">
        <ele>1463</ele>
        <time>2013-09-22T10:34:37Z</time>
      </trkpt>
      <trkpt lat="44.05903" lon="6.80573">
        <ele>1462</ele>
        <time>2013-09-22T10:34:50Z</time>
      </trkpt>
      <trkpt lat="44.05899" lon="6.80562">
        <ele>1461</ele>
        <time>2013-09-22T10:34:59Z</time>
      </trkpt>
      <trkpt lat="44.05892" lon="6.80541">
        <ele>1460</ele>
        <time>2013-09-22T10:35:15Z</time>
      </trkpt>
      <trkpt lat="44.05889" lon="6.80524">
        <ele>1460</ele>
        <time>2013-09-22T10:35:32Z</time>
      </trkpt>
      <trkpt lat="44.05886" lon="6.80515">
        <ele>1460</ele>
        <time>2013-09-22T10:35:43Z</time>
      </trkpt>
      <trkpt lat="44.05887" lon="6.80506">
        <ele>1460</ele>
        <time>2013-09-22T10:35:51Z</time>
      </trkpt>
      <trkpt lat="44.05888" lon="6.805">
        <ele>1460</ele>
        <time>2013-09-22T10:35:56Z</time>
      </trkpt>
      <trkpt lat="44.05889" lon="6.80492">
        <ele>1461</ele>
        <time>2013-09-22T10:36:04Z</time>
      </trkpt>
      <trkpt lat="44.05892" lon="6.80486">
        <ele>1461</ele>
        <time>2013-09-22T10:36:11Z</time>
      </trkpt>
      <trkpt lat="44.05894" lon="6.80472">
        <ele>1461</ele>
        <time>2013-09-22T10:36:24Z</time>
      </trkpt>
      <trkpt lat="44.05902" lon="6.80449">
        <ele>1462</ele>
        <time>2013-09-22T10:36:41Z</time>
      </trkpt>
      <trkpt lat="44.05909" lon="6.80432">
        <ele>1462</ele>
        <time>2013-09-22T10:36:56Z</time>
      </trkpt>
      <trkpt lat="44.05912" lon="6.80425">
        <ele>1463</ele>
        <time>2013-09-22T10:37:03Z</time>
      </trkpt>
      <trkpt lat="44.05919" lon="6.8041">
        <ele>1464</ele>
        <time>2013-09-22T10:37:19Z</time>
      </trkpt>
      <trkpt lat="44.0592" lon="6.804">
        <ele>1464</ele>
        <time>2013-09-22T10:37:26Z</time>
      </trkpt>
      <trkpt lat="44.05916" lon="6.80397">
        <ele>1465</ele>
        <time>2013-09-22T10:37:35Z</time>
      </trkpt>
      <trkpt lat="44.05914" lon="6.80396">
        <ele>1466</ele>
        <time>2013-09-22T10:37:46Z</time>
      </trkpt>
      <trkpt lat="44.05905" lon="6.8039">
        <ele>1469</ele>
        <time>2013-09-22T10:38:03Z</time>
      </trkpt>
      <trkpt lat="44.05898" lon="6.80389">
        <ele>1470</ele>
        <time>2013-09-22T10:38:11Z</time>
      </trkpt>
      <trkpt lat="44.05889" lon="6.80387">
        <ele>1471</ele>
        <time>2013-09-22T10:38:20Z</time>
      </trkpt>
      <trkpt lat="44.05889" lon="6.80383">
        <ele>1474</ele>
        <time>2013-09-22T10:38:43Z</time>
      </trkpt>
      <trkpt lat="44.05888" lon="6.80374">
        <ele>1475</ele>
        <time>2013-09-22T10:38:50Z</time>
      </trkpt>
      <trkpt lat="44.05889" lon="6.80369">
        <ele>1476</ele>
        <time>2013-09-22T10:38:58Z</time>
      </trkpt>
      <trkpt lat="44.05893" lon="6.8036">
        <ele>1477</ele>
        <time>2013-09-22T10:39:12Z</time>
      </trkpt>
      <trkpt lat="44.05892" lon="6.80361">
        <ele>1477</ele>
        <time>2013-09-22T10:39:22Z</time>
      </trkpt>
      <trkpt lat="44.05896" lon="6.80346">
        <ele>1486</ele>
        <time>2013-09-22T10:41:07Z</time>
      </trkpt>
      <trkpt lat="44.05891" lon="6.80334">
        <ele>1486</ele>
        <time>2013-09-22T10:41:20Z</time>
      </trkpt>
      <trkpt lat="44.05887" lon="6.80327">
        <ele>1486</ele>
        <time>2013-09-22T10:41:32Z</time>
      </trkpt>
      <trkpt lat="44.05879" lon="6.80328">
        <ele>1487</ele>
        <time>2013-09-22T10:41:43Z</time>
      </trkpt>
      <trkpt lat="44.05865" lon="6.80326">
        <ele>1487</ele>
        <time>2013-09-22T10:42:00Z</time>
      </trkpt>
      <trkpt lat="44.0586" lon="6.80318">
        <ele>1488</ele>
        <time>2013-09-22T10:42:15Z</time>
      </trkpt>
      <trkpt lat="44.05859" lon="6.8031">
        <ele>1488</ele>
        <time>2013-09-22T10:42:26Z</time>
      </trkpt>
      <trkpt lat="44.05854" lon="6.80306">
        <ele>1488</ele>
        <time>2013-09-22T10:42:39Z</time>
      </trkpt>
      <trkpt lat="44.05849" lon="6.80313">
        <ele>1488</ele>
        <time>2013-09-22T10:42:50Z</time>
      </trkpt>
      <trkpt lat="44.05845" lon="6.80317">
        <ele>1487</ele>
        <time>2013-09-22T10:43:06Z</time>
      </trkpt>
      <trkpt lat="44.05838" lon="6.80323">
        <ele>1486</ele>
        <time>2013-09-22T10:43:28Z</time>
      </trkpt>
      <trkpt lat="44.05833" lon="6.80322">
        <ele>1486</ele>
        <time>2013-09-22T10:43:42Z</time>
      </trkpt>
      <trkpt lat="44.05824" lon="6.80335">
        <ele>1486</ele>
        <time>2013-09-22T10:43:52Z</time>
      </trkpt>
      <trkpt lat="44.05798" lon="6.80375">
        <ele>1485</ele>
        <time>2013-09-22T10:44:02Z</time>
      </trkpt>
      <trkpt lat="44.05777" lon="6.80393">
        <ele>1484</ele>
        <time>2013-09-22T10:44:08Z</time>
      </trkpt>
      <trkpt lat="44.05762" lon="6.80395">
        <ele>1484</ele>
        <time>2013-09-22T10:44:12Z</time>
      </trkpt>
      <trkpt lat="44.05747" lon="6.80402">
        <ele>1484</ele>
        <time>2013-09-22T10:44:19Z</time>
      </trkpt>
      <trkpt lat="44.05737" lon="6.80413">
        <ele>1483</ele>
        <time>2013-09-22T10:44:25Z</time>
      </trkpt>
      <trkpt lat="44.05718" lon="6.80435">
        <ele>1483</ele>
        <time>2013-09-22T10:44:35Z</time>
      </trkpt>
      <trkpt lat="44.05711" lon="6.80439">
        <ele>1482</ele>
        <time>2013-09-22T10:44:40Z</time>
      </trkpt>
      <trkpt lat="44.05695" lon="6.80457">
        <ele>1482</ele>
        <time>2013-09-22T10:44:51Z</time>
      </trkpt>
      <trkpt lat="44.05677" lon="6.80463">
        <ele>1481</ele>
        <time>2013-09-22T10:45:01Z</time>
      </trkpt>
      <trkpt lat="44.05647" lon="6.8046">
        <ele>1481</ele>
        <time>2013-09-22T10:45:09Z</time>
      </trkpt>
      <trkpt lat="44.05634" lon="6.80455">
        <ele>1481</ele>
        <time>2013-09-22T10:45:13Z</time>
      </trkpt>
      <trkpt lat="44.05605" lon="6.80446">
        <ele>1480</ele>
        <time>2013-09-22T10:45:19Z</time>
      </trkpt>
      <trkpt lat="44.05591" lon="6.80442">
        <ele>1480</ele>
        <time>2013-09-22T10:45:23Z</time>
      </trkpt>
      <trkpt lat="44.05576" lon="6.80445">
        <ele>1479</ele>
        <time>2013-09-22T10:45:29Z</time>
      </trkpt>
      <trkpt lat="44.05556" lon="6.80438">
        <ele>1479</ele>
        <time>2013-09-22T10:45:35Z</time>
      </trkpt>
      <trkpt lat="44.05521" lon="6.80425">
        <ele>1478</ele>
        <time>2013-09-22T10:45:45Z</time>
      </trkpt>
      <trkpt lat="44.05487" lon="6.80401">
        <ele>1476</ele>
        <time>2013-09-22T10:45:54Z</time>
      </trkpt>
      <trkpt lat="44.0547" lon="6.8039">
        <ele>1476</ele>
        <time>2013-09-22T10:45:58Z</time>
      </trkpt>
      <trkpt lat="44.05453" lon="6.80387">
        <ele>1475</ele>
        <time>2013-09-22T10:46:02Z</time>
      </trkpt>
      <trkpt lat="44.05439" lon="6.8038">
        <ele>1475</ele>
        <time>2013-09-22T10:46:07Z</time>
      </trkpt>
      <trkpt lat="44.05423" lon="6.80381">
        <ele>1474</ele>
        <time>2013-09-22T10:46:11Z</time>
      </trkpt>
      <trkpt lat="44.05394" lon="6.80386">
        <ele>1473</ele>
        <time>2013-09-22T10:46:17Z</time>
      </trkpt>
      <trkpt lat="44.05379" lon="6.80398">
        <ele>1473</ele>
        <time>2013-09-22T10:46:21Z</time>
      </trkpt>
      <trkpt lat="44.05362" lon="6.80411">
        <ele>1472</ele>
        <time>2013-09-22T10:46:25Z</time>
      </trkpt>
      <trkpt lat="44.05356" lon="6.8041">
        <ele>1471</ele>
        <time>2013-09-22T10:46:28Z</time>
      </trkpt>
      <trkpt lat="44.05343" lon="6.80415">
        <ele>1471</ele>
        <time>2013-09-22T10:46:31Z</time>
      </trkpt>
      <trkpt lat="44.05317" lon="6.80414">
        <ele>1470</ele>
        <time>2013-09-22T10:46:38Z</time>
      </trkpt>
      <trkpt lat="44.05304" lon="6.8042">
        <ele>1469</ele>
        <time>2013-09-22T10:46:42Z</time>
      </trkpt>
      <trkpt lat="44.05279" lon="6.80427">
        <ele>1468</ele>
        <time>2013-09-22T10:46:49Z</time>
      </trkpt>
      <trkpt lat="44.05276" lon="6.80428">
        <ele>1467</ele>
        <time>2013-09-22T10:46:53Z</time>
      </trkpt>
      <trkpt lat="44.05272" lon="6.80432">
        <ele>1466</ele>
        <time>2013-09-22T10:46:59Z</time>
      </trkpt>
      <trkpt lat="44.05271" lon="6.80432">
        <ele>1466</ele>
        <time>2013-09-22T10:47:01Z</time>
      </trkpt>
      <trkpt lat="44.05262" lon="6.80435">
        <ele>1461</ele>
        <time>2013-09-22T10:47:30Z</time>
      </trkpt>
      <trkpt lat="44.05257" lon="6.80428">
        <ele>1451</ele>
        <time>2013-09-22T10:48:58Z</time>
      </trkpt>
      <trkpt lat="44.05241" lon="6.80427">
        <ele>1450</ele>
        <time>2013-09-22T10:49:04Z</time>
      </trkpt>
      <trkpt lat="44.0523" lon="6.80425">
        <ele>1450</ele>
        <time>2013-09-22T10:49:08Z</time>
      </trkpt>
      <trkpt lat="44.05192" lon="6.80411">
        <ele>1449</ele>
        <time>2013-09-22T10:49:17Z</time>
      </trkpt>
      <trkpt lat="44.0518" lon="6.80399">
        <ele>1448</ele>
        <time>2013-09-22T10:49:21Z</time>
      </trkpt>
      <trkpt lat="44.05169" lon="6.80391">
        <ele>1448</ele>
        <time>2013-09-22T10:49:24Z</time>
      </trkpt>
      <trkpt lat="44.05151" lon="6.80373">
        <ele>1447</ele>
        <time>2013-09-22T10:49:29Z</time>
      </trkpt>
      <trkpt lat="44.05149" lon="6.80371">
        <ele>1447</ele>
        <time>2013-09-22T10:49:35Z</time>
      </trkpt>
      <trkpt lat="44.05143" lon="6.80361">
        <ele>1446</ele>
        <time>2013-09-22T10:49:43Z</time>
      </trkpt>
      <trkpt lat="44.05143" lon="6.80352">
        <ele>1445</ele>
        <time>2013-09-22T10:49:50Z</time>
      </trkpt>
      <trkpt lat="44.05135" lon="6.80347">
        <ele>1444</ele>
        <time>2013-09-22T10:50:02Z</time>
      </trkpt>
      <trkpt lat="44.05133" lon="6.80345">
        <ele>1443</ele>
        <time>2013-09-22T10:50:15Z</time>
      </trkpt>
      <trkpt lat="44.05134" lon="6.80344">
        <ele>1440</ele>
        <time>2013-09-22T10:50:51Z</time>
      </trkpt>
      <trkpt lat="44.05136" lon="6.80348">
        <ele>1439</ele>
        <time>2013-09-22T10:51:01Z</time>
      </trkpt>
      <trkpt lat="44.05135" lon="6.80352">
        <ele>1438</ele>
        <time>2013-09-22T10:51:19Z</time>
      </trkpt>
      <trkpt lat="44.05139" lon="6.8036">
        <ele>1437</ele>
        <time>2013-09-22T10:51:37Z</time>
      </trkpt>
      <trkpt lat="44.05145" lon="6.80375">
        <ele>1436</ele>
        <time>2013-09-22T10:51:48Z</time>
      </trkpt>
      <trkpt lat="44.05154" lon="6.80384">
        <ele>1435</ele>
        <time>2013-09-22T10:51:58Z</time>
      </trkpt>
      <trkpt lat="44.05157" lon="6.80389">
        <ele>1435</ele>
        <time>2013-09-22T10:52:04Z</time>
      </trkpt>
      <trkpt lat="44.05167" lon="6.80395">
        <ele>1434</ele>
        <time>2013-09-22T10:52:17Z</time>
      </trkpt>
      <trkpt lat="44.0518" lon="6.80408">
        <ele>1434</ele>
        <time>2013-09-22T10:52:31Z</time>
      </trkpt>
      <trkpt lat="44.05183" lon="6.8041">
        <ele>1433</ele>
        <time>2013-09-22T10:52:37Z</time>
      </trkpt>
      <trkpt lat="44.05177" lon="6.80414">
        <ele>1432</ele>
        <time>2013-09-22T10:52:56Z</time>
      </trkpt>
      <trkpt lat="44.05169" lon="6.80414">
        <ele>1432</ele>
        <time>2013-09-22T10:52:59Z</time>
      </trkpt>
      <trkpt lat="44.0516" lon="6.80411">
        <ele>1432</ele>
        <time>2013-09-22T10:53:04Z</time>
      </trkpt>
      <trkpt lat="44.05151" lon="6.8041">
        <ele>1431</ele>
        <time>2013-09-22T10:53:10Z</time>
      </trkpt>
      <trkpt lat="44.05133" lon="6.80414">
        <ele>1430</ele>
        <time>2013-09-22T10:53:17Z</time>
      </trkpt>
      <trkpt lat="44.05122" lon="6.80408">
        <ele>1429</ele>
        <time>2013-09-22T10:53:21Z</time>
      </trkpt>
      <trkpt lat="44.05111" lon="6.80412">
        <ele>1429</ele>
        <time>2013-09-22T10:53:25Z</time>
      </trkpt>
      <trkpt lat="44.05101" lon="6.80415">
        <ele>1428</ele>
        <time>2013-09-22T10:53:29Z</time>
      </trkpt>
      <trkpt lat="44.05077" lon="6.80408">
        <ele>1427</ele>
        <time>2013-09-22T10:53:35Z</time>
      </trkpt>
      <trkpt lat="44.05063" lon="6.80423">
        <ele>1425</ele>
        <time>2013-09-22T10:53:42Z</time>
      </trkpt>
      <trkpt lat="44.0505" lon="6.80438">
        <ele>1424</ele>
        <time>2013-09-22T10:53:47Z</time>
      </trkpt>
      <trkpt lat="44.05043" lon="6.80461">
        <ele>1423</ele>
        <time>2013-09-22T10:53:54Z</time>
      </trkpt>
      <trkpt lat="44.05037" lon="6.8048">
        <ele>1420</ele>
        <time>2013-09-22T10:54:09Z</time>
      </trkpt>
      <trkpt lat="44.05032" lon="6.805">
        <ele>1419</ele>
        <time>2013-09-22T10:54:16Z</time>
      </trkpt>
      <trkpt lat="44.05016" lon="6.80546">
        <ele>1412</ele>
        <time>2013-09-22T10:54:59Z</time>
      </trkpt>
      <trkpt lat="44.05013" lon="6.8057">
        <ele>1411</ele>
        <time>2013-09-22T10:55:04Z</time>
      </trkpt>
      <trkpt lat="44.05013" lon="6.80594">
        <ele>1410</ele>
        <time>2013-09-22T10:55:09Z</time>
      </trkpt>
      <trkpt lat="44.05" lon="6.80614">
        <ele>1409</ele>
        <time>2013-09-22T10:55:15Z</time>
      </trkpt>
      <trkpt lat="44.04978" lon="6.80626">
        <ele>1408</ele>
        <time>2013-09-22T10:55:22Z</time>
      </trkpt>
      <trkpt lat="44.04971" lon="6.80631">
        <ele>1407</ele>
        <time>2013-09-22T10:55:24Z</time>
      </trkpt>
      <trkpt lat="44.04958" lon="6.80651">
        <ele>1405</ele>
        <time>2013-09-22T10:55:32Z</time>
      </trkpt>
      <trkpt lat="44.04955" lon="6.80652">
        <ele>1403</ele>
        <time>2013-09-22T10:55:40Z</time>
      </trkpt>
      <trkpt lat="44.04941" lon="6.80693">
        <ele>1392</ele>
        <time>2013-09-22T10:56:22Z</time>
      </trkpt>
      <trkpt lat="44.04934" lon="6.80721">
        <ele>1391</ele>
        <time>2013-09-22T10:56:26Z</time>
      </trkpt>
      <trkpt lat="44.0493" lon="6.80736">
        <ele>1390</ele>
        <time>2013-09-22T10:56:30Z</time>
      </trkpt>
      <trkpt lat="44.04922" lon="6.8075">
        <ele>1389</ele>
        <time>2013-09-22T10:56:35Z</time>
      </trkpt>
      <trkpt lat="44.04908" lon="6.8076">
        <ele>1387</ele>
        <time>2013-09-22T10:56:44Z</time>
      </trkpt>
      <trkpt lat="44.04909" lon="6.80762">
        <ele>1385</ele>
        <time>2013-09-22T10:56:53Z</time>
      </trkpt>
      <trkpt lat="44.04907" lon="6.80765">
        <ele>1379</ele>
        <time>2013-09-22T10:57:23Z</time>
      </trkpt>
      <trkpt lat="44.04899" lon="6.80771">
        <ele>1378</ele>
        <time>2013-09-22T10:57:27Z</time>
      </trkpt>
      <trkpt lat="44.04888" lon="6.80794">
        <ele>1377</ele>
        <time>2013-09-22T10:57:32Z</time>
      </trkpt>
      <trkpt lat="44.0487" lon="6.80825">
        <ele>1375</ele>
        <time>2013-09-22T10:57:40Z</time>
      </trkpt>
      <trkpt lat="44.04857" lon="6.80857">
        <ele>1374</ele>
        <time>2013-09-22T10:57:45Z</time>
      </trkpt>
      <trkpt lat="44.04848" lon="6.80876">
        <ele>1373</ele>
        <time>2013-09-22T10:57:48Z</time>
      </trkpt>
      <trkpt lat="44.04838" lon="6.80895">
        <ele>1371</ele>
        <time>2013-09-22T10:57:53Z</time>
      </trkpt>
      <trkpt lat="44.04814" lon="6.80931">
        <ele>1368</ele>
        <time>2013-09-22T10:58:06Z</time>
      </trkpt>
      <trkpt lat="44.04801" lon="6.80944">
        <ele>1366</ele>
        <time>2013-09-22T10:58:17Z</time>
      </trkpt>
      <trkpt lat="44.048" lon="6.8095">
        <ele>1365</ele>
        <time>2013-09-22T10:58:22Z</time>
      </trkpt>
      <trkpt lat="44.04799" lon="6.80957">
        <ele>1364</ele>
        <time>2013-09-22T10:58:29Z</time>
      </trkpt>
      <trkpt lat="44.04798" lon="6.80965">
        <ele>1362</ele>
        <time>2013-09-22T10:58:41Z</time>
      </trkpt>
      <trkpt lat="44.04801" lon="6.80973">
        <ele>1361</ele>
        <time>2013-09-22T10:58:55Z</time>
      </trkpt>
      <trkpt lat="44.04801" lon="6.80987">
        <ele>1359</ele>
        <time>2013-09-22T10:59:08Z</time>
      </trkpt>
      <trkpt lat="44.04797" lon="6.81004">
        <ele>1359</ele>
        <time>2013-09-22T10:59:22Z</time>
      </trkpt>
      <trkpt lat="44.04797" lon="6.81007">
        <ele>1358</ele>
        <time>2013-09-22T10:59:28Z</time>
      </trkpt>
      <trkpt lat="44.04795" lon="6.81036">
        <ele>1358</ele>
        <time>2013-09-22T10:59:38Z</time>
      </trkpt>
      <trkpt lat="44.04782" lon="6.81059">
        <ele>1357</ele>
        <time>2013-09-22T10:59:45Z</time>
      </trkpt>
      <trkpt lat="44.04777" lon="6.81067">
        <ele>1357</ele>
        <time>2013-09-22T10:59:50Z</time>
      </trkpt>
      <trkpt lat="44.0478" lon="6.8108">
        <ele>1356</ele>
        <time>2013-09-22T11:00:01Z</time>
      </trkpt>
      <trkpt lat="44.04779" lon="6.81082">
        <ele>1356</ele>
        <time>2013-09-22T11:00:05Z</time>
      </trkpt>
      <trkpt lat="44.04782" lon="6.81098">
        <ele>1355</ele>
        <time>2013-09-22T11:00:18Z</time>
      </trkpt>
      <trkpt lat="44.04784" lon="6.81118">
        <ele>1352</ele>
        <time>2013-09-22T11:01:46Z</time>
      </trkpt>
      <trkpt lat="44.04785" lon="6.81129">
        <ele>1352</ele>
        <time>2013-09-22T11:01:50Z</time>
      </trkpt>
      <trkpt lat="44.04783" lon="6.81136">
        <ele>1352</ele>
        <time>2013-09-22T11:01:53Z</time>
      </trkpt>
      <trkpt lat="44.04779" lon="6.81141">
        <ele>1352</ele>
        <time>2013-09-22T11:01:58Z</time>
      </trkpt>
      <trkpt lat="44.0478" lon="6.81144">
        <ele>1352</ele>
        <time>2013-09-22T11:02:05Z</time>
      </trkpt>
      <trkpt lat="44.04783" lon="6.81144">
        <ele>1352</ele>
        <time>2013-09-22T11:02:38Z</time>
      </trkpt>
      <trkpt lat="44.04784" lon="6.81134">
        <ele>1353</ele>
        <time>2013-09-22T11:02:47Z</time>
      </trkpt>
      <trkpt lat="44.04787" lon="6.81119">
        <ele>1354</ele>
        <time>2013-09-22T11:03:02Z</time>
      </trkpt>
      <trkpt lat="44.04788" lon="6.81122">
        <ele>1357</ele>
        <time>2013-09-22T11:03:37Z</time>
      </trkpt>
      <trkpt lat="44.04791" lon="6.81142">
        <ele>1357</ele>
        <time>2013-09-22T11:03:42Z</time>
      </trkpt>
      <trkpt lat="44.04798" lon="6.8116">
        <ele>1357</ele>
        <time>2013-09-22T11:03:47Z</time>
      </trkpt>
      <trkpt lat="44.04804" lon="6.8117">
        <ele>1357</ele>
        <time>2013-09-22T11:03:52Z</time>
      </trkpt>
      <trkpt lat="44.04804" lon="6.81184">
        <ele>1357</ele>
        <time>2013-09-22T11:04:01Z</time>
      </trkpt>
      <trkpt lat="44.04803" lon="6.81193">
        <ele>1356</ele>
        <time>2013-09-22T11:04:55Z</time>
      </trkpt>
      <trkpt lat="44.048" lon="6.81199">
        <ele>1356</ele>
        <time>2013-09-22T11:05:01Z</time>
      </trkpt>
      <trkpt lat="44.04796" lon="6.81208">
        <ele>1355</ele>
        <time>2013-09-22T11:05:15Z</time>
      </trkpt>
      <trkpt lat="44.04794" lon="6.81216">
        <ele>1354</ele>
        <time>2013-09-22T11:05:30Z</time>
      </trkpt>
      <trkpt lat="44.04795" lon="6.81221">
        <ele>1353</ele>
        <time>2013-09-22T11:05:44Z</time>
      </trkpt>
      <trkpt lat="44.04795" lon="6.81231">
        <ele>1350</ele>
        <time>2013-09-22T11:06:09Z</time>
      </trkpt>
      <trkpt lat="44.04797" lon="6.81237">
        <ele>1349</ele>
        <time>2013-09-22T11:06:22Z</time>
      </trkpt>
      <trkpt lat="44.04796" lon="6.81247">
        <ele>1347</ele>
        <time>2013-09-22T11:06:36Z</time>
      </trkpt>
      <trkpt lat="44.04797" lon="6.8126">
        <ele>1346</ele>
        <time>2013-09-22T11:06:51Z</time>
      </trkpt>
      <trkpt lat="44.04799" lon="6.81275">
        <ele>1345</ele>
        <time>2013-09-22T11:06:57Z</time>
      </trkpt>
      <trkpt lat="44.04799" lon="6.81275">
        <ele>1343</ele>
        <time>2013-09-22T11:07:06Z</time>
      </trkpt>
      <trkpt lat="44.04795" lon="6.81286">
        <ele>1341</ele>
        <time>2013-09-22T11:07:23Z</time>
      </trkpt>
      <trkpt lat="44.04797" lon="6.81296">
        <ele>1338</ele>
        <time>2013-09-22T11:07:43Z</time>
      </trkpt>
      <trkpt lat="44.04802" lon="6.81299">
        <ele>1336</ele>
        <time>2013-09-22T11:07:54Z</time>
      </trkpt>
      <trkpt lat="44.04803" lon="6.81302">
        <ele>1334</ele>
        <time>2013-09-22T11:08:02Z</time>
      </trkpt>
      <trkpt lat="44.04808" lon="6.81309">
        <ele>1330</ele>
        <time>2013-09-22T11:08:31Z</time>
      </trkpt>
      <trkpt lat="44.04819" lon="6.81332">
        <ele>1328</ele>
        <time>2013-09-22T11:08:39Z</time>
      </trkpt>
      <trkpt lat="44.04828" lon="6.81352">
        <ele>1326</ele>
        <time>2013-09-22T11:08:45Z</time>
      </trkpt>
      <trkpt lat="44.04831" lon="6.81376">
        <ele>1325</ele>
        <time>2013-09-22T11:08:50Z</time>
      </trkpt>
      <trkpt lat="44.0483" lon="6.81392">
        <ele>1323</ele>
        <time>2013-09-22T11:08:55Z</time>
      </trkpt>
      <trkpt lat="44.04828" lon="6.81389">
        <ele>1305</ele>
        <time>2013-09-22T11:10:15Z</time>
      </trkpt>
      <trkpt lat="44.04845" lon="6.81404">
        <ele>1296</ele>
        <time>2013-09-22T11:11:21Z</time>
      </trkpt>
      <trkpt lat="44.04844" lon="6.81434">
        <ele>1295</ele>
        <time>2013-09-22T11:11:26Z</time>
      </trkpt>
      <trkpt lat="44.04833" lon="6.81457">
        <ele>1294</ele>
        <time>2013-09-22T11:11:33Z</time>
      </trkpt>
      <trkpt lat="44.04816" lon="6.81468">
        <ele>1292</ele>
        <time>2013-09-22T11:11:42Z</time>
      </trkpt>
      <trkpt lat="44.04806" lon="6.8147">
        <ele>1292</ele>
        <time>2013-09-22T11:11:46Z</time>
      </trkpt>
      <trkpt lat="44.04795" lon="6.81479">
        <ele>1290</ele>
        <time>2013-09-22T11:11:53Z</time>
      </trkpt>
      <trkpt lat="44.04793" lon="6.81486">
        <ele>1287</ele>
        <time>2013-09-22T11:12:09Z</time>
      </trkpt>
      <trkpt lat="44.04792" lon="6.81489">
        <ele>1284</ele>
        <time>2013-09-22T11:12:19Z</time>
      </trkpt>
      <trkpt lat="44.04789" lon="6.81494">
        <ele>1279</ele>
        <time>2013-09-22T11:12:45Z</time>
      </trkpt>
      <trkpt lat="44.04781" lon="6.815">
        <ele>1279</ele>
        <time>2013-09-22T11:12:48Z</time>
      </trkpt>
      <trkpt lat="44.04773" lon="6.81516">
        <ele>1278</ele>
        <time>2013-09-22T11:12:53Z</time>
      </trkpt>
      <trkpt lat="44.0477" lon="6.81526">
        <ele>1277</ele>
        <time>2013-09-22T11:12:59Z</time>
      </trkpt>
      <trkpt lat="44.04765" lon="6.81546">
        <ele>1276</ele>
        <time>2013-09-22T11:13:06Z</time>
      </trkpt>
      <trkpt lat="44.04767" lon="6.81562">
        <ele>1275</ele>
        <time>2013-09-22T11:13:12Z</time>
      </trkpt>
      <trkpt lat="44.04765" lon="6.81567">
        <ele>1275</ele>
        <time>2013-09-22T11:13:20Z</time>
      </trkpt>
      <trkpt lat="44.04762" lon="6.81573">
        <ele>1274</ele>
        <time>2013-09-22T11:13:33Z</time>
      </trkpt>
      <trkpt lat="44.04754" lon="6.81579">
        <ele>1273</ele>
        <time>2013-09-22T11:13:49Z</time>
      </trkpt>
      <trkpt lat="44.04744" lon="6.81583">
        <ele>1272</ele>
        <time>2013-09-22T11:14:08Z</time>
      </trkpt>
      <trkpt lat="44.04741" lon="6.81583">
        <ele>1273</ele>
        <time>2013-09-22T11:14:54Z</time>
      </trkpt>
      <trkpt lat="44.04725" lon="6.81601">
        <ele>1275</ele>
        <time>2013-09-22T11:15:15Z</time>
      </trkpt>
      <trkpt lat="44.0471" lon="6.8161">
        <ele>1277</ele>
        <time>2013-09-22T11:15:33Z</time>
      </trkpt>
      <trkpt lat="44.04699" lon="6.81618">
        <ele>1279</ele>
        <time>2013-09-22T11:15:50Z</time>
      </trkpt>
      <trkpt lat="44.04691" lon="6.81628">
        <ele>1280</ele>
        <time>2013-09-22T11:16:01Z</time>
      </trkpt>
      <trkpt lat="44.0466" lon="6.81666">
        <ele>1280</ele>
        <time>2013-09-22T11:16:11Z</time>
      </trkpt>
      <trkpt lat="44.04652" lon="6.8168">
        <ele>1280</ele>
        <time>2013-09-22T11:16:14Z</time>
      </trkpt>
      <trkpt lat="44.04636" lon="6.81701">
        <ele>1280</ele>
        <time>2013-09-22T11:16:19Z</time>
      </trkpt>
      <trkpt lat="44.04622" lon="6.81718">
        <ele>1279</ele>
        <time>2013-09-22T11:16:24Z</time>
      </trkpt>
      <trkpt lat="44.04616" lon="6.81729">
        <ele>1279</ele>
        <time>2013-09-22T11:16:30Z</time>
      </trkpt>
      <trkpt lat="44.0461" lon="6.8174">
        <ele>1278</ele>
        <time>2013-09-22T11:16:36Z</time>
      </trkpt>
      <trkpt lat="44.04593" lon="6.81769">
        <ele>1278</ele>
        <time>2013-09-22T11:16:52Z</time>
      </trkpt>
      <trkpt lat="44.04587" lon="6.81784">
        <ele>1277</ele>
        <time>2013-09-22T11:17:01Z</time>
      </trkpt>
      <trkpt lat="44.04583" lon="6.81787">
        <ele>1277</ele>
        <time>2013-09-22T11:17:06Z</time>
      </trkpt>
      <trkpt lat="44.04577" lon="6.81781">
        <ele>1276</ele>
        <time>2013-09-22T11:18:10Z</time>
      </trkpt>
      <trkpt lat="44.04552" lon="6.81756">
        <ele>1276</ele>
        <time>2013-09-22T11:18:20Z</time>
      </trkpt>
      <trkpt lat="44.04519" lon="6.81754">
        <ele>1275</ele>
        <time>2013-09-22T11:18:31Z</time>
      </trkpt>
      <trkpt lat="44.04492" lon="6.81766">
        <ele>1275</ele>
        <time>2013-09-22T11:18:39Z</time>
      </trkpt>
      <trkpt lat="44.04489" lon="6.81769">
        <ele>1272</ele>
        <time>2013-09-22T11:19:02Z</time>
      </trkpt>
      <trkpt lat="44.0448" lon="6.8177">
        <ele>1272</ele>
        <time>2013-09-22T11:19:08Z</time>
      </trkpt>
      <trkpt lat="44.04473" lon="6.81772">
        <ele>1270</ele>
        <time>2013-09-22T11:19:16Z</time>
      </trkpt>
      <trkpt lat="44.04462" lon="6.81796">
        <ele>1269</ele>
        <time>2013-09-22T11:19:25Z</time>
      </trkpt>
      <trkpt lat="44.04448" lon="6.81828">
        <ele>1267</ele>
        <time>2013-09-22T11:19:38Z</time>
      </trkpt>
      <trkpt lat="44.04448" lon="6.81832">
        <ele>1267</ele>
        <time>2013-09-22T11:19:43Z</time>
      </trkpt>
      <trkpt lat="44.04449" lon="6.81833">
        <ele>1263</ele>
        <time>2013-09-22T11:20:14Z</time>
      </trkpt>
      <trkpt lat="44.04446" lon="6.81834">
        <ele>1258</ele>
        <time>2013-09-22T11:21:03Z</time>
      </trkpt>
      <trkpt lat="44.04432" lon="6.81835">
        <ele>1256</ele>
        <time>2013-09-22T11:21:45Z</time>
      </trkpt>
      <trkpt lat="44.04419" lon="6.8185">
        <ele>1255</ele>
        <time>2013-09-22T11:21:50Z</time>
      </trkpt>
      <trkpt lat="44.04419" lon="6.81851">
        <ele>1255</ele>
        <time>2013-09-22T11:21:52Z</time>
      </trkpt>
      <trkpt lat="44.04413" lon="6.81852">
        <ele>1254</ele>
        <time>2013-09-22T11:22:01Z</time>
      </trkpt>
      <trkpt lat="44.04409" lon="6.81856">
        <ele>1253</ele>
        <time>2013-09-22T11:22:05Z</time>
      </trkpt>
      <trkpt lat="44.04398" lon="6.81866">
        <ele>1252</ele>
        <time>2013-09-22T11:22:09Z</time>
      </trkpt>
      <trkpt lat="44.04382" lon="6.81868">
        <ele>1251</ele>
        <time>2013-09-22T11:22:15Z</time>
      </trkpt>
      <trkpt lat="44.04366" lon="6.81846">
        <ele>1249</ele>
        <time>2013-09-22T11:22:23Z</time>
      </trkpt>
      <trkpt lat="44.0436" lon="6.81838">
        <ele>1248</ele>
        <time>2013-09-22T11:22:28Z</time>
      </trkpt>
      <trkpt lat="44.04358" lon="6.81843">
        <ele>1247</ele>
        <time>2013-09-22T11:22:33Z</time>
      </trkpt>
      <trkpt lat="44.04358" lon="6.81847">
        <ele>1246</ele>
        <time>2013-09-22T11:22:38Z</time>
      </trkpt>
      <trkpt lat="44.04356" lon="6.81854">
        <ele>1243</ele>
        <time>2013-09-22T11:22:49Z</time>
      </trkpt>
      <trkpt lat="44.04352" lon="6.81864">
        <ele>1240</ele>
        <time>2013-09-22T11:23:04Z</time>
      </trkpt>
      <trkpt lat="44.04351" lon="6.81868">
        <ele>1238</ele>
        <time>2013-09-22T11:23:13Z</time>
      </trkpt>
      <trkpt lat="44.04333" lon="6.81794">
        <ele>1216</ele>
        <time>2013-09-22T11:25:51Z</time>
      </trkpt>
      <trkpt lat="44.04338" lon="6.81783">
        <ele>1215</ele>
        <time>2013-09-22T11:26:03Z</time>
      </trkpt>
      <trkpt lat="44.04343" lon="6.81779">
        <ele>1215</ele>
        <time>2013-09-22T11:26:17Z</time>
      </trkpt>
      <trkpt lat="44.04348" lon="6.81772">
        <ele>1214</ele>
        <time>2013-09-22T11:26:31Z</time>
      </trkpt>
      <trkpt lat="44.04358" lon="6.81744">
        <ele>1214</ele>
        <time>2013-09-22T11:26:40Z</time>
      </trkpt>
      <trkpt lat="44.04366" lon="6.81733">
        <ele>1213</ele>
        <time>2013-09-22T11:26:44Z</time>
      </trkpt>
      <trkpt lat="44.0437" lon="6.81725">
        <ele>1213</ele>
        <time>2013-09-22T11:26:48Z</time>
      </trkpt>
      <trkpt lat="44.04375" lon="6.81726">
        <ele>1213</ele>
        <time>2013-09-22T11:27:01Z</time>
      </trkpt>
      <trkpt lat="44.04381" lon="6.81719">
        <ele>1212</ele>
        <time>2013-09-22T11:27:20Z</time>
      </trkpt>
      <trkpt lat="44.04397" lon="6.81694">
        <ele>1212</ele>
        <time>2013-09-22T11:27:30Z</time>
      </trkpt>
      <trkpt lat="44.04398" lon="6.81681">
        <ele>1211</ele>
        <time>2013-09-22T11:27:34Z</time>
      </trkpt>
      <trkpt lat="44.04408" lon="6.81652">
        <ele>1210</ele>
        <time>2013-09-22T11:27:42Z</time>
      </trkpt>
      <trkpt lat="44.04417" lon="6.81628">
        <ele>1209</ele>
        <time>2013-09-22T11:27:50Z</time>
      </trkpt>
      <trkpt lat="44.04417" lon="6.81592">
        <ele>1208</ele>
        <time>2013-09-22T11:27:59Z</time>
      </trkpt>
      <trkpt lat="44.04425" lon="6.81568">
        <ele>1206</ele>
        <time>2013-09-22T11:28:09Z</time>
      </trkpt>
      <trkpt lat="44.04434" lon="6.81537">
        <ele>1205</ele>
        <time>2013-09-22T11:28:19Z</time>
      </trkpt>
      <trkpt lat="44.04431" lon="6.81514">
        <ele>1203</ele>
        <time>2013-09-22T11:28:26Z</time>
      </trkpt>
      <trkpt lat="44.04423" lon="6.81515">
        <ele>1203</ele>
        <time>2013-09-22T11:28:30Z</time>
      </trkpt>
      <trkpt lat="44.04407" lon="6.81519">
        <ele>1201</ele>
        <time>2013-09-22T11:28:38Z</time>
      </trkpt>
      <trkpt lat="44.0438" lon="6.81523">
        <ele>1199</ele>
        <time>2013-09-22T11:28:48Z</time>
      </trkpt>
      <trkpt lat="44.04358" lon="6.81531">
        <ele>1198</ele>
        <time>2013-09-22T11:28:57Z</time>
      </trkpt>
      <trkpt lat="44.04346" lon="6.81538">
        <ele>1196</ele>
        <time>2013-09-22T11:29:04Z</time>
      </trkpt>
      <trkpt lat="44.04346" lon="6.81549">
        <ele>1193</ele>
        <time>2013-09-22T11:29:26Z</time>
      </trkpt>
      <trkpt lat="44.04346" lon="6.81556">
        <ele>1192</ele>
        <time>2013-09-22T11:29:33Z</time>
      </trkpt>
      <trkpt lat="44.04336" lon="6.8156">
        <ele>1189</ele>
        <time>2013-09-22T11:29:48Z</time>
      </trkpt>
      <trkpt lat="44.04316" lon="6.81552">
        <ele>1187</ele>
        <time>2013-09-22T11:30:00Z</time>
      </trkpt>
      <trkpt lat="44.04287" lon="6.81551">
        <ele>1185</ele>
        <time>2013-09-22T11:30:09Z</time>
      </trkpt>
      <trkpt lat="44.04278" lon="6.81548">
        <ele>1184</ele>
        <time>2013-09-22T11:30:13Z</time>
      </trkpt>
      <trkpt lat="44.04259" lon="6.81543">
        <ele>1181</ele>
        <time>2013-09-22T11:30:23Z</time>
      </trkpt>
      <trkpt lat="44.04258" lon="6.81537">
        <ele>1178</ele>
        <time>2013-09-22T11:30:36Z</time>
      </trkpt>
      <trkpt lat="44.0426" lon="6.81527">
        <ele>1177</ele>
        <time>2013-09-22T11:30:40Z</time>
      </trkpt>
      <trkpt lat="44.04261" lon="6.81512">
        <ele>1176</ele>
        <time>2013-09-22T11:30:44Z</time>
      </trkpt>
      <trkpt lat="44.04261" lon="6.81507">
        <ele>1172</ele>
        <time>2013-09-22T11:31:00Z</time>
      </trkpt>
      <trkpt lat="44.04261" lon="6.81502">
        <ele>1170</ele>
        <time>2013-09-22T11:31:08Z</time>
      </trkpt>
      <trkpt lat="44.04255" lon="6.81502">
        <ele>1165</ele>
        <time>2013-09-22T11:31:33Z</time>
      </trkpt>
      <trkpt lat="44.04248" lon="6.81506">
        <ele>1162</ele>
        <time>2013-09-22T11:31:47Z</time>
      </trkpt>
      <trkpt lat="44.04243" lon="6.81517">
        <ele>1159</ele>
        <time>2013-09-22T11:32:01Z</time>
      </trkpt>
      <trkpt lat="44.04233" lon="6.81521">
        <ele>1155</ele>
        <time>2013-09-22T11:32:19Z</time>
      </trkpt>
      <trkpt lat="44.04229" lon="6.81515">
        <ele>1153</ele>
        <time>2013-09-22T11:32:33Z</time>
      </trkpt>
      <trkpt lat="44.04222" lon="6.8152">
        <ele>1151</ele>
        <time>2013-09-22T11:32:43Z</time>
      </trkpt>
      <trkpt lat="44.04219" lon="6.81524">
        <ele>1150</ele>
        <time>2013-09-22T11:32:48Z</time>
      </trkpt>
      <trkpt lat="44.04216" lon="6.81531">
        <ele>1148</ele>
        <time>2013-09-22T11:32:59Z</time>
      </trkpt>
      <trkpt lat="44.04211" lon="6.81543">
        <ele>1144</ele>
        <time>2013-09-22T11:33:14Z</time>
      </trkpt>
      <trkpt lat="44.04205" lon="6.81555">
        <ele>1143</ele>
        <time>2013-09-22T11:33:19Z</time>
      </trkpt>
      <trkpt lat="44.04198" lon="6.81552">
        <ele>1142</ele>
        <time>2013-09-22T11:33:27Z</time>
      </trkpt>
      <trkpt lat="44.04189" lon="6.8155">
        <ele>1140</ele>
        <time>2013-09-22T11:33:32Z</time>
      </trkpt>
      <trkpt lat="44.04191" lon="6.81557">
        <ele>1139</ele>
        <time>2013-09-22T11:33:37Z</time>
      </trkpt>
      <trkpt lat="44.04194" lon="6.81564">
        <ele>1137</ele>
        <time>2013-09-22T11:33:46Z</time>
      </trkpt>
      <trkpt lat="44.04187" lon="6.81564">
        <ele>1134</ele>
        <time>2013-09-22T11:33:57Z</time>
      </trkpt>
      <trkpt lat="44.04182" lon="6.81563">
        <ele>1130</ele>
        <time>2013-09-22T11:34:13Z</time>
      </trkpt>
      <trkpt lat="44.0417" lon="6.81555">
        <ele>1128</ele>
        <time>2013-09-22T11:34:24Z</time>
      </trkpt>
      <trkpt lat="44.04163" lon="6.8155">
        <ele>1125</ele>
        <time>2013-09-22T11:34:35Z</time>
      </trkpt>
      <trkpt lat="44.04159" lon="6.8155">
        <ele>1124</ele>
        <time>2013-09-22T11:34:40Z</time>
      </trkpt>
      <trkpt lat="44.04157" lon="6.81547">
        <ele>1123</ele>
        <time>2013-09-22T11:34:44Z</time>
      </trkpt>
      <trkpt lat="44.04156" lon="6.81542">
        <ele>1118</ele>
        <time>2013-09-22T11:35:10Z</time>
      </trkpt>
      <trkpt lat="44.04152" lon="6.81534">
        <ele>1115</ele>
        <time>2013-09-22T11:35:22Z</time>
      </trkpt>
      <trkpt lat="44.04147" lon="6.81539">
        <ele>1113</ele>
        <time>2013-09-22T11:35:30Z</time>
      </trkpt>
      <trkpt lat="44.04144" lon="6.81544">
        <ele>1112</ele>
        <time>2013-09-22T11:35:37Z</time>
      </trkpt>
      <trkpt lat="44.04138" lon="6.81555">
        <ele>1109</ele>
        <time>2013-09-22T11:35:49Z</time>
      </trkpt>
      <trkpt lat="44.04134" lon="6.81558">
        <ele>1108</ele>
        <time>2013-09-22T11:35:54Z</time>
      </trkpt>
      <trkpt lat="44.04131" lon="6.81554">
        <ele>1106</ele>
        <time>2013-09-22T11:36:00Z</time>
      </trkpt>
      <trkpt lat="44.04127" lon="6.81551">
        <ele>1105</ele>
        <time>2013-09-22T11:36:06Z</time>
      </trkpt>
      <trkpt lat="44.04125" lon="6.81551">
        <ele>1103</ele>
        <time>2013-09-22T11:36:11Z</time>
      </trkpt>
      <trkpt lat="44.04116" lon="6.81554">
        <ele>1100</ele>
        <time>2013-09-22T11:36:24Z</time>
      </trkpt>
      <trkpt lat="44.0411" lon="6.8156">
        <ele>1098</ele>
        <time>2013-09-22T11:36:33Z</time>
      </trkpt>
      <trkpt lat="44.04107" lon="6.8156">
        <ele>1097</ele>
        <time>2013-09-22T11:36:36Z</time>
      </trkpt>
      <trkpt lat="44.04099" lon="6.8156">
        <ele>1094</ele>
        <time>2013-09-22T11:36:46Z</time>
      </trkpt>
      <trkpt lat="44.04097" lon="6.8156">
        <ele>1092</ele>
        <time>2013-09-22T11:36:53Z</time>
      </trkpt>
      <trkpt lat="44.04094" lon="6.81553">
        <ele>1075</ele>
        <time>2013-09-22T11:38:39Z</time>
      </trkpt>
      <trkpt lat="44.04092" lon="6.81539">
        <ele>1074</ele>
        <time>2013-09-22T11:38:51Z</time>
      </trkpt>
      <trkpt lat="44.04088" lon="6.81542">
        <ele>1073</ele>
        <time>2013-09-22T11:38:59Z</time>
      </trkpt>
      <trkpt lat="44.04079" lon="6.81542">
        <ele>1072</ele>
        <time>2013-09-22T11:39:08Z</time>
      </trkpt>
      <trkpt lat="44.0407" lon="6.81546">
        <ele>1071</ele>
        <time>2013-09-22T11:39:13Z</time>
      </trkpt>
      <trkpt lat="44.0405" lon="6.81543">
        <ele>1070</ele>
        <time>2013-09-22T11:39:22Z</time>
      </trkpt>
      <trkpt lat="44.04039" lon="6.81544">
        <ele>1068</ele>
        <time>2013-09-22T11:39:31Z</time>
      </trkpt>
      <trkpt lat="44.04042" lon="6.81549">
        <ele>1067</ele>
        <time>2013-09-22T11:39:44Z</time>
      </trkpt>
      <trkpt lat="44.04039" lon="6.81551">
        <ele>1066</ele>
        <time>2013-09-22T11:39:49Z</time>
      </trkpt>
      <trkpt lat="44.04029" lon="6.81544">
        <ele>1064</ele>
        <time>2013-09-22T11:40:00Z</time>
      </trkpt>
      <trkpt lat="44.0402" lon="6.81539">
        <ele>1063</ele>
        <time>2013-09-22T11:40:07Z</time>
      </trkpt>
      <trkpt lat="44.04007" lon="6.81539">
        <ele>1061</ele>
        <time>2013-09-22T11:40:20Z</time>
      </trkpt>
      <trkpt lat="44.04005" lon="6.81537">
        <ele>1061</ele>
        <time>2013-09-22T11:40:25Z</time>
      </trkpt>
      <trkpt lat="44.04002" lon="6.81534">
        <ele>1058</ele>
        <time>2013-09-22T11:40:46Z</time>
      </trkpt>
      <trkpt lat="44.03996" lon="6.81534">
        <ele>1056</ele>
        <time>2013-09-22T11:40:58Z</time>
      </trkpt>
      <trkpt lat="44.03971" lon="6.81528">
        <ele>1055</ele>
        <time>2013-09-22T11:41:08Z</time>
      </trkpt>
      <trkpt lat="44.0394" lon="6.81512">
        <ele>1053</ele>
        <time>2013-09-22T11:41:19Z</time>
      </trkpt>
      <trkpt lat="44.03915" lon="6.81476">
        <ele>1051</ele>
        <time>2013-09-22T11:41:30Z</time>
      </trkpt>
      <trkpt lat="44.03897" lon="6.81459">
        <ele>1049</ele>
        <time>2013-09-22T11:41:39Z</time>
      </trkpt>
      <trkpt lat="44.03893" lon="6.81458">
        <ele>1047</ele>
        <time>2013-09-22T11:41:49Z</time>
      </trkpt>
      <trkpt lat="44.03888" lon="6.81449">
        <ele>1044</ele>
        <time>2013-09-22T11:42:02Z</time>
      </trkpt>
      <trkpt lat="44.03879" lon="6.81445">
        <ele>1041</ele>
        <time>2013-09-22T11:42:14Z</time>
      </trkpt>
      <trkpt lat="44.03881" lon="6.81435">
        <ele>1039</ele>
        <time>2013-09-22T11:42:24Z</time>
      </trkpt>
      <trkpt lat="44.0388" lon="6.81432">
        <ele>1038</ele>
        <time>2013-09-22T11:42:28Z</time>
      </trkpt>
      <trkpt lat="44.03879" lon="6.81431">
        <ele>1037</ele>
        <time>2013-09-22T11:42:31Z</time>
      </trkpt>
      <trkpt lat="44.03873" lon="6.81427">
        <ele>1034</ele>
        <time>2013-09-22T11:42:44Z</time>
      </trkpt>
      <trkpt lat="44.03867" lon="6.81425">
        <ele>1031</ele>
        <time>2013-09-22T11:42:56Z</time>
      </trkpt>
      <trkpt lat="44.03861" lon="6.81417">
        <ele>1028</ele>
        <time>2013-09-22T11:43:08Z</time>
      </trkpt>
      <trkpt lat="44.03849" lon="6.814">
        <ele>1026</ele>
        <time>2013-09-22T11:43:18Z</time>
      </trkpt>
      <trkpt lat="44.03829" lon="6.81379">
        <ele>1023</ele>
        <time>2013-09-22T11:43:27Z</time>
      </trkpt>
      <trkpt lat="44.03822" lon="6.8137">
        <ele>1022</ele>
        <time>2013-09-22T11:43:31Z</time>
      </trkpt>
      <trkpt lat="44.03811" lon="6.81347">
        <ele>1020</ele>
        <time>2013-09-22T11:43:40Z</time>
      </trkpt>
      <trkpt lat="44.03792" lon="6.81328">
        <ele>1017</ele>
        <time>2013-09-22T11:43:49Z</time>
      </trkpt>
      <trkpt lat="44.03774" lon="6.81304">
        <ele>1013</ele>
        <time>2013-09-22T11:43:58Z</time>
      </trkpt>
      <trkpt lat="44.03753" lon="6.81279">
        <ele>1010</ele>
        <time>2013-09-22T11:44:06Z</time>
      </trkpt>
      <trkpt lat="44.03736" lon="6.81267">
        <ele>1008</ele>
        <time>2013-09-22T11:44:12Z</time>
      </trkpt>
      <trkpt lat="44.03726" lon="6.8125">
        <ele>1006</ele>
        <time>2013-09-22T11:44:17Z</time>
      </trkpt>
      <trkpt lat="44.03699" lon="6.81238">
        <ele>1002</ele>
        <time>2013-09-22T11:44:27Z</time>
      </trkpt>
      <trkpt lat="44.03678" lon="6.81219">
        <ele>999</ele>
        <time>2013-09-22T11:44:38Z</time>
      </trkpt>
      <trkpt lat="44.03656" lon="6.81186">
        <ele>995</ele>
        <time>2013-09-22T11:44:51Z</time>
      </trkpt>
      <trkpt lat="44.03638" lon="6.8116">
        <ele>992</ele>
        <time>2013-09-22T11:45:02Z</time>
      </trkpt>
      <trkpt lat="44.03622" lon="6.81136">
        <ele>988</ele>
        <time>2013-09-22T11:45:15Z</time>
      </trkpt>
      <trkpt lat="44.03623" lon="6.81121">
        <ele>987</ele>
        <time>2013-09-22T11:45:21Z</time>
      </trkpt>
      <trkpt lat="44.03625" lon="6.81117">
        <ele>986</ele>
        <time>2013-09-22T11:45:25Z</time>
      </trkpt>
      <trkpt lat="44.03624" lon="6.81117">
        <ele>985</ele>
        <time>2013-09-22T11:45:31Z</time>
      </trkpt>
      <trkpt lat="44.03623" lon="6.8112">
        <ele>969</ele>
        <time>2013-09-22T11:47:00Z</time>
      </trkpt>
      <trkpt lat="44.03629" lon="6.8112">
        <ele>964</ele>
        <time>2013-09-22T11:47:47Z</time>
      </trkpt>
      <trkpt lat="44.0363" lon="6.81118">
        <ele>962</ele>
        <time>2013-09-22T11:48:03Z</time>
      </trkpt>
      <trkpt lat="44.0363" lon="6.81111">
        <ele>962</ele>
        <time>2013-09-22T11:48:08Z</time>
      </trkpt>
      <trkpt lat="44.03621" lon="6.81098">
        <ele>961</ele>
        <time>2013-09-22T11:48:16Z</time>
      </trkpt>
      <trkpt lat="44.03621" lon="6.81092">
        <ele>960</ele>
        <time>2013-09-22T11:48:24Z</time>
      </trkpt>
      <trkpt lat="44.03608" lon="6.81091">
        <ele>958</ele>
        <time>2013-09-22T11:48:37Z</time>
      </trkpt>
      <trkpt lat="44.036" lon="6.81085">
        <ele>957</ele>
        <time>2013-09-22T11:48:49Z</time>
      </trkpt>
      <trkpt lat="44.03588" lon="6.81074">
        <ele>956</ele>
        <time>2013-09-22T11:48:59Z</time>
      </trkpt>
      <trkpt lat="44.03597" lon="6.81071">
        <ele>955</ele>
        <time>2013-09-22T11:49:12Z</time>
      </trkpt>
      <trkpt lat="44.03603" lon="6.81066">
        <ele>953</ele>
        <time>2013-09-22T11:49:27Z</time>
      </trkpt>
      <trkpt lat="44.03605" lon="6.81064">
        <ele>952</ele>
        <time>2013-09-22T11:49:38Z</time>
      </trkpt>
      <trkpt lat="44.03608" lon="6.81054">
        <ele>951</ele>
        <time>2013-09-22T11:49:52Z</time>
      </trkpt>
      <trkpt lat="44.03613" lon="6.81049">
        <ele>949</ele>
        <time>2013-09-22T11:50:06Z</time>
      </trkpt>
      <trkpt lat="44.03617" lon="6.81044">
        <ele>948</ele>
        <time>2013-09-22T11:50:18Z</time>
      </trkpt>
      <trkpt lat="44.03615" lon="6.81037">
        <ele>947</ele>
        <time>2013-09-22T11:50:37Z</time>
      </trkpt>
      <trkpt lat="44.03592" lon="6.81018">
        <ele>946</ele>
        <time>2013-09-22T11:50:47Z</time>
      </trkpt>
      <trkpt lat="44.03601" lon="6.81004">
        <ele>945</ele>
        <time>2013-09-22T11:50:55Z</time>
      </trkpt>
      <trkpt lat="44.0359" lon="6.80994">
        <ele>944</ele>
        <time>2013-09-22T11:51:02Z</time>
      </trkpt>
      <trkpt lat="44.0359" lon="6.80992">
        <ele>943</ele>
        <time>2013-09-22T11:51:17Z</time>
      </trkpt>
      <trkpt lat="44.0359" lon="6.80987">
        <ele>941</ele>
        <time>2013-09-22T11:51:30Z</time>
      </trkpt>
      <trkpt lat="44.0358" lon="6.80988">
        <ele>939</ele>
        <time>2013-09-22T11:51:41Z</time>
      </trkpt>
      <trkpt lat="44.03578" lon="6.80985">
        <ele>938</ele>
        <time>2013-09-22T11:51:46Z</time>
      </trkpt>
      <trkpt lat="44.0358" lon="6.80979">
        <ele>937</ele>
        <time>2013-09-22T11:51:54Z</time>
      </trkpt>
      <trkpt lat="44.03582" lon="6.80969">
        <ele>935</ele>
        <time>2013-09-22T11:52:07Z</time>
      </trkpt>
      <trkpt lat="44.03576" lon="6.80966">
        <ele>933</ele>
        <time>2013-09-22T11:52:20Z</time>
      </trkpt>
      <trkpt lat="44.03572" lon="6.80964">
        <ele>933</ele>
        <time>2013-09-22T11:52:23Z</time>
      </trkpt>
      <trkpt lat="44.03564" lon="6.8096">
        <ele>932</ele>
        <time>2013-09-22T11:52:28Z</time>
      </trkpt>
      <trkpt lat="44.0356" lon="6.80949">
        <ele>930</ele>
        <time>2013-09-22T11:52:36Z</time>
      </trkpt>
      <trkpt lat="44.03561" lon="6.80941">
        <ele>929</ele>
        <time>2013-09-22T11:52:44Z</time>
      </trkpt>
      <trkpt lat="44.03559" lon="6.8093">
        <ele>928</ele>
        <time>2013-09-22T11:52:49Z</time>
      </trkpt>
      <trkpt lat="44.03548" lon="6.80919">
        <ele>926</ele>
        <time>2013-09-22T11:52:57Z</time>
      </trkpt>
      <trkpt lat="44.03545" lon="6.80919">
        <ele>925</ele>
        <time>2013-09-22T11:53:02Z</time>
      </trkpt>
      <trkpt lat="44.03527" lon="6.80909">
        <ele>923</ele>
        <time>2013-09-22T11:53:10Z</time>
      </trkpt>
      <trkpt lat="44.03519" lon="6.80908">
        <ele>923</ele>
        <time>2013-09-22T11:53:13Z</time>
      </trkpt>
      <trkpt lat="44.03509" lon="6.80901">
        <ele>922</ele>
        <time>2013-09-22T11:53:17Z</time>
      </trkpt>
      <trkpt lat="44.03493" lon="6.80894">
        <ele>920</ele>
        <time>2013-09-22T11:53:23Z</time>
      </trkpt>
      <trkpt lat="44.03478" lon="6.80888">
        <ele>919</ele>
        <time>2013-09-22T11:53:29Z</time>
      </trkpt>
      <trkpt lat="44.03468" lon="6.80885">
        <ele>917</ele>
        <time>2013-09-22T11:53:34Z</time>
      </trkpt>
      <trkpt lat="44.03465" lon="6.80879">
        <ele>916</ele>
        <time>2013-09-22T11:53:37Z</time>
      </trkpt>
      <trkpt lat="44.03463" lon="6.80875">
        <ele>915</ele>
        <time>2013-09-22T11:53:42Z</time>
      </trkpt>
      <trkpt lat="44.03456" lon="6.8087">
        <ele>913</ele>
        <time>2013-09-22T11:53:49Z</time>
      </trkpt>
      <trkpt lat="44.03455" lon="6.80861">
        <ele>911</ele>
        <time>2013-09-22T11:53:53Z</time>
      </trkpt>
      <trkpt lat="44.03454" lon="6.80858">
        <ele>909</ele>
        <time>2013-09-22T11:54:02Z</time>
      </trkpt>
      <trkpt lat="44.03449" lon="6.80862">
        <ele>904</ele>
        <time>2013-09-22T11:54:16Z</time>
      </trkpt>
      <trkpt lat="44.03446" lon="6.8086">
        <ele>903</ele>
        <time>2013-09-22T11:54:21Z</time>
      </trkpt>
      <trkpt lat="44.03446" lon="6.8085">
        <ele>900</ele>
        <time>2013-09-22T11:54:29Z</time>
      </trkpt>
      <trkpt lat="44.03449" lon="6.80838">
        <ele>897</ele>
        <time>2013-09-22T11:54:40Z</time>
      </trkpt>
      <trkpt lat="44.03446" lon="6.80832">
        <ele>895</ele>
        <time>2013-09-22T11:54:44Z</time>
      </trkpt>
      <trkpt lat="44.03442" lon="6.80835">
        <ele>894</ele>
        <time>2013-09-22T11:54:49Z</time>
      </trkpt>
      <trkpt lat="44.03432" lon="6.80846">
        <ele>891</ele>
        <time>2013-09-22T11:54:58Z</time>
      </trkpt>
      <trkpt lat="44.03429" lon="6.80851">
        <ele>890</ele>
        <time>2013-09-22T11:55:03Z</time>
      </trkpt>
      <trkpt lat="44.03416" lon="6.80862">
        <ele>887</ele>
        <time>2013-09-22T11:55:12Z</time>
      </trkpt>
      <trkpt lat="44.03411" lon="6.80865">
        <ele>884</ele>
        <time>2013-09-22T11:55:21Z</time>
      </trkpt>
      <trkpt lat="44.03406" lon="6.80867">
        <ele>880</ele>
        <time>2013-09-22T11:55:32Z</time>
      </trkpt>
      <trkpt lat="44.03399" lon="6.80873">
        <ele>877</ele>
        <time>2013-09-22T11:55:43Z</time>
      </trkpt>
      <trkpt lat="44.03394" lon="6.80873">
        <ele>874</ele>
        <time>2013-09-22T11:55:52Z</time>
      </trkpt>
      <trkpt lat="44.03395" lon="6.80865">
        <ele>872</ele>
        <time>2013-09-22T11:55:59Z</time>
      </trkpt>
      <trkpt lat="44.03397" lon="6.80856">
        <ele>868</ele>
        <time>2013-09-22T11:56:11Z</time>
      </trkpt>
      <trkpt lat="44.03398" lon="6.80843">
        <ele>865</ele>
        <time>2013-09-22T11:56:19Z</time>
      </trkpt>
      <trkpt lat="44.03391" lon="6.8084">
        <ele>861</ele>
        <time>2013-09-22T11:56:34Z</time>
      </trkpt>
      <trkpt lat="44.03394" lon="6.80829">
        <ele>858</ele>
        <time>2013-09-22T11:56:45Z</time>
      </trkpt>
      <trkpt lat="44.03395" lon="6.80823">
        <ele>856</ele>
        <time>2013-09-22T11:56:50Z</time>
      </trkpt>
      <trkpt lat="44.03395" lon="6.80819">
        <ele>855</ele>
        <time>2013-09-22T11:56:55Z</time>
      </trkpt>
      <trkpt lat="44.03391" lon="6.80808">
        <ele>851</ele>
        <time>2013-09-22T11:57:08Z</time>
      </trkpt>
      <trkpt lat="44.03389" lon="6.8081">
        <ele>850</ele>
        <time>2013-09-22T11:57:14Z</time>
      </trkpt>
      <trkpt lat="44.03386" lon="6.80814">
        <ele>848</ele>
        <time>2013-09-22T11:57:20Z</time>
      </trkpt>
      <trkpt lat="44.03379" lon="6.80808">
        <ele>847</ele>
        <time>2013-09-22T11:57:25Z</time>
      </trkpt>
      <trkpt lat="44.03373" lon="6.80807">
        <ele>845</ele>
        <time>2013-09-22T11:57:30Z</time>
      </trkpt>
      <trkpt lat="44.03368" lon="6.80808">
        <ele>844</ele>
        <time>2013-09-22T11:57:35Z</time>
      </trkpt>
      <trkpt lat="44.03368" lon="6.80803">
        <ele>841</ele>
        <time>2013-09-22T11:57:45Z</time>
      </trkpt>
      <trkpt lat="44.03363" lon="6.80768">
        <ele>839</ele>
        <time>2013-09-22T11:57:53Z</time>
      </trkpt>
      <trkpt lat="44.03369" lon="6.80759">
        <ele>835</ele>
        <time>2013-09-22T11:58:09Z</time>
      </trkpt>
      <trkpt lat="44.03371" lon="6.80752">
        <ele>833</ele>
        <time>2013-09-22T11:58:19Z</time>
      </trkpt>
      <trkpt lat="44.0337" lon="6.80743">
        <ele>831</ele>
        <time>2013-09-22T11:58:30Z</time>
      </trkpt>
      <trkpt lat="44.0337" lon="6.80726">
        <ele>828</ele>
        <time>2013-09-22T11:58:43Z</time>
      </trkpt>
      <trkpt lat="44.03371" lon="6.80718">
        <ele>825</ele>
        <time>2013-09-22T11:58:57Z</time>
      </trkpt>
      <trkpt lat="44.0337" lon="6.80711">
        <ele>825</ele>
        <time>2013-09-22T11:59:02Z</time>
      </trkpt>
      <trkpt lat="44.03368" lon="6.80701">
        <ele>823</ele>
        <time>2013-09-22T11:59:10Z</time>
      </trkpt>
      <trkpt lat="44.03366" lon="6.80699">
        <ele>822</ele>
        <time>2013-09-22T11:59:15Z</time>
      </trkpt>
      <trkpt lat="44.03365" lon="6.80696">
        <ele>821</ele>
        <time>2013-09-22T11:59:21Z</time>
      </trkpt>
      <trkpt lat="44.0336" lon="6.80694">
        <ele>816</ele>
        <time>2013-09-22T11:59:53Z</time>
      </trkpt>
      <trkpt lat="44.03365" lon="6.80699">
        <ele>808</ele>
        <time>2013-09-22T12:00:45Z</time>
      </trkpt>
      <trkpt lat="44.03366" lon="6.80706">
        <ele>789</ele>
        <time>2013-09-22T12:04:14Z</time>
      </trkpt>
      <trkpt lat="44.03345" lon="6.80718">
        <ele>788</ele>
        <time>2013-09-22T12:04:25Z</time>
      </trkpt>
      <trkpt lat="44.03329" lon="6.80741">
        <ele>787</ele>
        <time>2013-09-22T12:04:32Z</time>
      </trkpt>
      <trkpt lat="44.03308" lon="6.80764">
        <ele>786</ele>
        <time>2013-09-22T12:04:39Z</time>
      </trkpt>
      <trkpt lat="44.03299" lon="6.80776">
        <ele>785</ele>
        <time>2013-09-22T12:04:44Z</time>
      </trkpt>
      <trkpt lat="44.03297" lon="6.80822">
        <ele>784</ele>
        <time>2013-09-22T12:04:52Z</time>
      </trkpt>
      <trkpt lat="44.03291" lon="6.80831">
        <ele>784</ele>
        <time>2013-09-22T12:04:55Z</time>
      </trkpt>
      <trkpt lat="44.0328" lon="6.80841">
        <ele>783</ele>
        <time>2013-09-22T12:05:01Z</time>
      </trkpt>
      <trkpt lat="44.03265" lon="6.80856">
        <ele>782</ele>
        <time>2013-09-22T12:05:11Z</time>
      </trkpt>
      <trkpt lat="44.0326" lon="6.80857">
        <ele>781</ele>
        <time>2013-09-22T12:05:16Z</time>
      </trkpt>
      <trkpt lat="44.03259" lon="6.80857">
        <ele>780</ele>
        <time>2013-09-22T12:05:22Z</time>
      </trkpt>
      <trkpt lat="44.03238" lon="6.80872">
        <ele>779</ele>
        <time>2013-09-22T12:05:34Z</time>
      </trkpt>
      <trkpt lat="44.03201" lon="6.8089">
        <ele>778</ele>
        <time>2013-09-22T12:05:41Z</time>
      </trkpt>
      <trkpt lat="44.03188" lon="6.80902">
        <ele>777</ele>
        <time>2013-09-22T12:05:44Z</time>
      </trkpt>
      <trkpt lat="44.03162" lon="6.80902">
        <ele>776</ele>
        <time>2013-09-22T12:05:50Z</time>
      </trkpt>
      <trkpt lat="44.03125" lon="6.80886">
        <ele>775</ele>
        <time>2013-09-22T12:05:57Z</time>
      </trkpt>
      <trkpt lat="44.03094" lon="6.80884">
        <ele>774</ele>
        <time>2013-09-22T12:06:07Z</time>
      </trkpt>
      <trkpt lat="44.03064" lon="6.8089">
        <ele>772</ele>
        <time>2013-09-22T12:06:20Z</time>
      </trkpt>
      <trkpt lat="44.03031" lon="6.80879">
        <ele>770</ele>
        <time>2013-09-22T12:06:29Z</time>
      </trkpt>
      <trkpt lat="44.02977" lon="6.80882">
        <ele>769</ele>
        <time>2013-09-22T12:06:39Z</time>
      </trkpt>
      <trkpt lat="44.02948" lon="6.8089">
        <ele>768</ele>
        <time>2013-09-22T12:06:43Z</time>
      </trkpt>
      <trkpt lat="44.02929" lon="6.809">
        <ele>767</ele>
        <time>2013-09-22T12:06:46Z</time>
      </trkpt>
      <trkpt lat="44.02906" lon="6.80909">
        <ele>766</ele>
        <time>2013-09-22T12:06:50Z</time>
      </trkpt>
      <trkpt lat="44.02897" lon="6.80934">
        <ele>765</ele>
        <time>2013-09-22T12:06:55Z</time>
      </trkpt>
      <trkpt lat="44.02872" lon="6.80958">
        <ele>763</ele>
        <time>2013-09-22T12:07:01Z</time>
      </trkpt>
      <trkpt lat="44.02845" lon="6.80967">
        <ele>762</ele>
        <time>2013-09-22T12:07:05Z</time>
      </trkpt>
      <trkpt lat="44.02831" lon="6.80965">
        <ele>761</ele>
        <time>2013-09-22T12:07:08Z</time>
      </trkpt>
      <trkpt lat="44.02809" lon="6.80991">
        <ele>759</ele>
        <time>2013-09-22T12:07:14Z</time>
      </trkpt>
      <trkpt lat="44.02802" lon="6.8102">
        <ele>758</ele>
        <time>2013-09-22T12:07:17Z</time>
      </trkpt>
      <trkpt lat="44.02823" lon="6.81067">
        <ele>755</ele>
        <time>2013-09-22T12:07:23Z</time>
      </trkpt>
      <trkpt lat="44.02857" lon="6.8109">
        <ele>752</ele>
        <time>2013-09-22T12:07:29Z</time>
      </trkpt>
      <trkpt lat="44.02849" lon="6.81099">
        <ele>750</ele>
        <time>2013-09-22T12:07:33Z</time>
      </trkpt>
      <trkpt lat="44.0284" lon="6.81093">
        <ele>749</ele>
        <time>2013-09-22T12:07:35Z</time>
      </trkpt>
      <trkpt lat="44.02801" lon="6.81078">
        <ele>746</ele>
        <time>2013-09-22T12:07:42Z</time>
      </trkpt>
      <trkpt lat="44.02785" lon="6.81104">
        <ele>743</ele>
        <time>2013-09-22T12:07:49Z</time>
      </trkpt>
      <trkpt lat="44.0277" lon="6.81109">
        <ele>741</ele>
        <time>2013-09-22T12:07:53Z</time>
      </trkpt>
      <trkpt lat="44.0271" lon="6.81126">
        <ele>737</ele>
        <time>2013-09-22T12:08:05Z</time>
      </trkpt>
      <trkpt lat="44.02653" lon="6.81153">
        <ele>733</ele>
        <time>2013-09-22T12:08:14Z</time>
      </trkpt>
      <trkpt lat="44.02643" lon="6.8117">
        <ele>732</ele>
        <time>2013-09-22T12:08:18Z</time>
      </trkpt>
      <trkpt lat="44.02639" lon="6.81174">
        <ele>730</ele>
        <time>2013-09-22T12:08:22Z</time>
      </trkpt>
      <trkpt lat="44.0264" lon="6.81176">
        <ele>728</ele>
        <time>2013-09-22T12:08:27Z</time>
      </trkpt>
      <trkpt lat="44.02638" lon="6.81172">
        <ele>713</ele>
        <time>2013-09-22T12:09:13Z</time>
      </trkpt>
      <trkpt lat="44.0262" lon="6.81157">
        <ele>710</ele>
        <time>2013-09-22T12:09:23Z</time>
      </trkpt>
      <trkpt lat="44.02597" lon="6.81174">
        <ele>707</ele>
        <time>2013-09-22T12:09:33Z</time>
      </trkpt>
      <trkpt lat="44.0257" lon="6.81214">
        <ele>704</ele>
        <time>2013-09-22T12:09:46Z</time>
      </trkpt>
      <trkpt lat="44.02554" lon="6.81239">
        <ele>702</ele>
        <time>2013-09-22T12:09:53Z</time>
      </trkpt>
      <trkpt lat="44.02541" lon="6.81242">
        <ele>701</ele>
        <time>2013-09-22T12:09:58Z</time>
      </trkpt>
      <trkpt lat="44.02525" lon="6.81234">
        <ele>700</ele>
        <time>2013-09-22T12:10:03Z</time>
      </trkpt>
      <trkpt lat="44.02483" lon="6.81199">
        <ele>697</ele>
        <time>2013-09-22T12:10:15Z</time>
      </trkpt>
      <trkpt lat="44.02457" lon="6.81175">
        <ele>696</ele>
        <time>2013-09-22T12:10:21Z</time>
      </trkpt>
      <trkpt lat="44.02445" lon="6.81164">
        <ele>695</ele>
        <time>2013-09-22T12:10:24Z</time>
      </trkpt>
      <trkpt lat="44.02425" lon="6.81145">
        <ele>694</ele>
        <time>2013-09-22T12:10:28Z</time>
      </trkpt>
      <trkpt lat="44.02335" lon="6.81094">
        <ele>691</ele>
        <time>2013-09-22T12:10:41Z</time>
      </trkpt>
      <trkpt lat="44.02254" lon="6.81037">
        <ele>688</ele>
        <time>2013-09-22T12:10:52Z</time>
      </trkpt>
      <trkpt lat="44.02207" lon="6.81021">
        <ele>686</ele>
        <time>2013-09-22T12:10:58Z</time>
      </trkpt>
      <trkpt lat="44.02192" lon="6.80969">
        <ele>685</ele>
        <time>2013-09-22T12:11:03Z</time>
      </trkpt>
      <trkpt lat="44.02178" lon="6.80942">
        <ele>684</ele>
        <time>2013-09-22T12:11:06Z</time>
      </trkpt>
      <trkpt lat="44.02106" lon="6.80863">
        <ele>681</ele>
        <time>2013-09-22T12:11:18Z</time>
      </trkpt>
      <trkpt lat="44.02055" lon="6.80859">
        <ele>679</ele>
        <time>2013-09-22T12:11:25Z</time>
      </trkpt>
      <trkpt lat="44.0201" lon="6.80854">
        <ele>678</ele>
        <time>2013-09-22T12:11:31Z</time>
      </trkpt>
      <trkpt lat="44.01943" lon="6.80812">
        <ele>676</ele>
        <time>2013-09-22T12:11:41Z</time>
      </trkpt>
      <trkpt lat="44.01897" lon="6.80806">
        <ele>675</ele>
        <time>2013-09-22T12:11:47Z</time>
      </trkpt>
      <trkpt lat="44.01859" lon="6.80819">
        <ele>674</ele>
        <time>2013-09-22T12:11:52Z</time>
      </trkpt>
      <trkpt lat="44.01821" lon="6.80847">
        <ele>673</ele>
        <time>2013-09-22T12:11:58Z</time>
      </trkpt>
      <trkpt lat="44.01788" lon="6.80817">
        <ele>672</ele>
        <time>2013-09-22T12:12:04Z</time>
      </trkpt>
      <trkpt lat="44.01762" lon="6.80765">
        <ele>671</ele>
        <time>2013-09-22T12:12:09Z</time>
      </trkpt>
      <trkpt lat="44.01732" lon="6.80744">
        <ele>670</ele>
        <time>2013-09-22T12:12:14Z</time>
      </trkpt>
      <trkpt lat="44.01708" lon="6.80703">
        <ele>669</ele>
        <time>2013-09-22T12:12:20Z</time>
      </trkpt>
      <trkpt lat="44.01696" lon="6.80672">
        <ele>668</ele>
        <time>2013-09-22T12:12:24Z</time>
      </trkpt>
      <trkpt lat="44.0167" lon="6.80567">
        <ele>666</ele>
        <time>2013-09-22T12:12:37Z</time>
      </trkpt>
      <trkpt lat="44.01635" lon="6.80513">
        <ele>665</ele>
        <time>2013-09-22T12:12:46Z</time>
      </trkpt>
      <trkpt lat="44.01593" lon="6.80473">
        <ele>663</ele>
        <time>2013-09-22T12:12:56Z</time>
      </trkpt>
      <trkpt lat="44.01572" lon="6.80455">
        <ele>663</ele>
        <time>2013-09-22T12:13:01Z</time>
      </trkpt>
      <trkpt lat="44.01543" lon="6.8041">
        <ele>661</ele>
        <time>2013-09-22T12:13:10Z</time>
      </trkpt>
      <trkpt lat="44.015" lon="6.80372">
        <ele>660</ele>
        <time>2013-09-22T12:13:20Z</time>
      </trkpt>
      <trkpt lat="44.01485" lon="6.80365">
        <ele>660</ele>
        <time>2013-09-22T12:13:23Z</time>
      </trkpt>
      <trkpt lat="44.0146" lon="6.80322">
        <ele>659</ele>
        <time>2013-09-22T12:13:31Z</time>
      </trkpt>
      <trkpt lat="44.01442" lon="6.80295">
        <ele>658</ele>
        <time>2013-09-22T12:13:36Z</time>
      </trkpt>
      <trkpt lat="44.01427" lon="6.80282">
        <ele>658</ele>
        <time>2013-09-22T12:13:39Z</time>
      </trkpt>
      <trkpt lat="44.01373" lon="6.80253">
        <ele>657</ele>
        <time>2013-09-22T12:13:49Z</time>
      </trkpt>
      <trkpt lat="44.01316" lon="6.80209">
        <ele>655</ele>
        <time>2013-09-22T12:14:00Z</time>
      </trkpt>
      <trkpt lat="44.01302" lon="6.8018">
        <ele>655</ele>
        <time>2013-09-22T12:14:04Z</time>
      </trkpt>
      <trkpt lat="44.01295" lon="6.80157">
        <ele>654</ele>
        <time>2013-09-22T12:14:07Z</time>
      </trkpt>
      <trkpt lat="44.01278" lon="6.8012">
        <ele>654</ele>
        <time>2013-09-22T12:14:13Z</time>
      </trkpt>
      <trkpt lat="44.01271" lon="6.80089">
        <ele>653</ele>
        <time>2013-09-22T12:14:18Z</time>
      </trkpt>
      <trkpt lat="44.01264" lon="6.80072">
        <ele>653</ele>
        <time>2013-09-22T12:14:22Z</time>
      </trkpt>
      <trkpt lat="44.01243" lon="6.80033">
        <ele>652</ele>
        <time>2013-09-22T12:14:31Z</time>
      </trkpt>
      <trkpt lat="44.01213" lon="6.7996">
        <ele>650</ele>
        <time>2013-09-22T12:14:48Z</time>
      </trkpt>
      <trkpt lat="44.01184" lon="6.79915">
        <ele>649</ele>
        <time>2013-09-22T12:14:59Z</time>
      </trkpt>
      <trkpt lat="44.01165" lon="6.79886">
        <ele>649</ele>
        <time>2013-09-22T12:15:06Z</time>
      </trkpt>
      <trkpt lat="44.01122" lon="6.79847">
        <ele>648</ele>
        <time>2013-09-22T12:15:18Z</time>
      </trkpt>
      <trkpt lat="44.01071" lon="6.79806">
        <ele>647</ele>
        <time>2013-09-22T12:15:30Z</time>
      </trkpt>
      <trkpt lat="44.01009" lon="6.79732">
        <ele>646</ele>
        <time>2013-09-22T12:15:46Z</time>
      </trkpt>
      <trkpt lat="44.00952" lon="6.79652">
        <ele>645</ele>
        <time>2013-09-22T12:16:01Z</time>
      </trkpt>
      <trkpt lat="44.00908" lon="6.79578">
        <ele>644</ele>
        <time>2013-09-22T12:16:13Z</time>
      </trkpt>
      <trkpt lat="44.00871" lon="6.79528">
        <ele>643</ele>
        <time>2013-09-22T12:16:22Z</time>
      </trkpt>
      <trkpt lat="44.00851" lon="6.79498">
        <ele>643</ele>
        <time>2013-09-22T12:16:27Z</time>
      </trkpt>
      <trkpt lat="44.0079" lon="6.79393">
        <ele>642</ele>
        <time>2013-09-22T12:16:43Z</time>
      </trkpt>
      <trkpt lat="44.00746" lon="6.793">
        <ele>641</ele>
        <time>2013-09-22T12:16:56Z</time>
      </trkpt>
      <trkpt lat="44.00726" lon="6.79256">
        <ele>641</ele>
        <time>2013-09-22T12:17:02Z</time>
      </trkpt>
      <trkpt lat="44.00693" lon="6.79215">
        <ele>640</ele>
        <time>2013-09-22T12:17:09Z</time>
      </trkpt>
      <trkpt lat="44.0066" lon="6.79158">
        <ele>640</ele>
        <time>2013-09-22T12:17:17Z</time>
      </trkpt>
      <trkpt lat="44.00631" lon="6.79089">
        <ele>639</ele>
        <time>2013-09-22T12:17:25Z</time>
      </trkpt>
      <trkpt lat="44.00621" lon="6.79019">
        <ele>638</ele>
        <time>2013-09-22T12:17:32Z</time>
      </trkpt>
      <trkpt lat="44.00583" lon="6.78918">
        <ele>636</ele>
        <time>2013-09-22T12:17:44Z</time>
      </trkpt>
      <trkpt lat="44.00551" lon="6.78839">
        <ele>634</ele>
        <time>2013-09-22T12:17:55Z</time>
      </trkpt>
      <trkpt lat="44.00518" lon="6.78766">
        <ele>633</ele>
        <time>2013-09-22T12:18:05Z</time>
      </trkpt>
      <trkpt lat="44.00476" lon="6.78703">
        <ele>631</ele>
        <time>2013-09-22T12:18:14Z</time>
      </trkpt>
      <trkpt lat="44.00408" lon="6.78626">
        <ele>630</ele>
        <time>2013-09-22T12:18:25Z</time>
      </trkpt>
      <trkpt lat="44.0039" lon="6.78607">
        <ele>629</ele>
        <time>2013-09-22T12:18:28Z</time>
      </trkpt>
      <trkpt lat="44.00347" lon="6.78573">
        <ele>628</ele>
        <time>2013-09-22T12:18:35Z</time>
      </trkpt>
      <trkpt lat="44.00284" lon="6.78516">
        <ele>627</ele>
        <time>2013-09-22T12:18:46Z</time>
      </trkpt>
      <trkpt lat="44.0025" lon="6.7842">
        <ele>625</ele>
        <time>2013-09-22T12:18:56Z</time>
      </trkpt>
      <trkpt lat="44.00201" lon="6.7832">
        <ele>623</ele>
        <time>2013-09-22T12:19:08Z</time>
      </trkpt>
      <trkpt lat="44.00137" lon="6.78272">
        <ele>622</ele>
        <time>2013-09-22T12:19:19Z</time>
      </trkpt>
      <trkpt lat="44.00095" lon="6.78251">
        <ele>621</ele>
        <time>2013-09-22T12:19:26Z</time>
      </trkpt>
      <trkpt lat="44.00047" lon="6.78203">
        <ele>619</ele>
        <time>2013-09-22T12:19:35Z</time>
      </trkpt>
      <trkpt lat="44.00018" lon="6.78127">
        <ele>618</ele>
        <time>2013-09-22T12:19:44Z</time>
      </trkpt>
      <trkpt lat="43.99969" lon="6.78006">
        <ele>616</ele>
        <time>2013-09-22T12:19:58Z</time>
      </trkpt>
      <trkpt lat="43.99933" lon="6.77937">
        <ele>615</ele>
        <time>2013-09-22T12:20:06Z</time>
      </trkpt>
      <trkpt lat="43.99888" lon="6.77835">
        <ele>613</ele>
        <time>2013-09-22T12:20:18Z</time>
      </trkpt>
      <trkpt lat="43.99879" lon="6.77814">
        <ele>612</ele>
        <time>2013-09-22T12:20:24Z</time>
      </trkpt>
      <trkpt lat="43.99876" lon="6.77811">
        <ele>612</ele>
        <time>2013-09-22T12:20:29Z</time>
      </trkpt>
      <trkpt lat="43.99874" lon="6.77808">
        <ele>603</ele>
        <time>2013-09-22T12:22:44Z</time>
      </trkpt>
      <trkpt lat="43.9987" lon="6.77803">
        <ele>603</ele>
        <time>2013-09-22T12:22:47Z</time>
      </trkpt>
      <trkpt lat="43.99839" lon="6.77765">
        <ele>603</ele>
        <time>2013-09-22T12:22:56Z</time>
      </trkpt>
      <trkpt lat="43.99773" lon="6.77686">
        <ele>603</ele>
        <time>2013-09-22T12:23:10Z</time>
      </trkpt>
      <trkpt lat="43.99752" lon="6.77654">
        <ele>602</ele>
        <time>2013-09-22T12:23:15Z</time>
      </trkpt>
      <trkpt lat="43.99731" lon="6.77618">
        <ele>602</ele>
        <time>2013-09-22T12:23:20Z</time>
      </trkpt>
      <trkpt lat="43.99704" lon="6.77576">
        <ele>601</ele>
        <time>2013-09-22T12:23:26Z</time>
      </trkpt>
      <trkpt lat="43.99633" lon="6.77498">
        <ele>600</ele>
        <time>2013-09-22T12:23:38Z</time>
      </trkpt>
      <trkpt lat="43.99583" lon="6.77439">
        <ele>599</ele>
        <time>2013-09-22T12:23:46Z</time>
      </trkpt>
      <trkpt lat="43.99541" lon="6.77393">
        <ele>599</ele>
        <time>2013-09-22T12:23:52Z</time>
      </trkpt>
      <trkpt lat="43.99491" lon="6.77355">
        <ele>598</ele>
        <time>2013-09-22T12:23:58Z</time>
      </trkpt>
      <trkpt lat="43.99425" lon="6.77234">
        <ele>597</ele>
        <time>2013-09-22T12:24:09Z</time>
      </trkpt>
      <trkpt lat="43.99379" lon="6.77082">
        <ele>595</ele>
        <time>2013-09-22T12:24:21Z</time>
      </trkpt>
      <trkpt lat="43.99349" lon="6.76999">
        <ele>594</ele>
        <time>2013-09-22T12:24:28Z</time>
      </trkpt>
      <trkpt lat="43.99337" lon="6.7697">
        <ele>594</ele>
        <time>2013-09-22T12:24:31Z</time>
      </trkpt>
      <trkpt lat="43.99312" lon="6.76943">
        <ele>593</ele>
        <time>2013-09-22T12:24:35Z</time>
      </trkpt>
      <trkpt lat="43.99252" lon="6.76889">
        <ele>592</ele>
        <time>2013-09-22T12:24:45Z</time>
      </trkpt>
      <trkpt lat="43.99185" lon="6.76798">
        <ele>591</ele>
        <time>2013-09-22T12:25:00Z</time>
      </trkpt>
      <trkpt lat="43.99148" lon="6.76756">
        <ele>590</ele>
        <time>2013-09-22T12:25:08Z</time>
      </trkpt>
      <trkpt lat="43.99133" lon="6.76744">
        <ele>590</ele>
        <time>2013-09-22T12:25:11Z</time>
      </trkpt>
      <trkpt lat="43.99107" lon="6.76725">
        <ele>589</ele>
        <time>2013-09-22T12:25:16Z</time>
      </trkpt>
      <trkpt lat="43.99052" lon="6.76688">
        <ele>589</ele>
        <time>2013-09-22T12:25:25Z</time>
      </trkpt>
      <trkpt lat="43.99028" lon="6.7667">
        <ele>588</ele>
        <time>2013-09-22T12:25:29Z</time>
      </trkpt>
      <trkpt lat="43.99012" lon="6.76654">
        <ele>588</ele>
        <time>2013-09-22T12:25:32Z</time>
      </trkpt>
      <trkpt lat="43.98989" lon="6.76633">
        <ele>588</ele>
        <time>2013-09-22T12:25:36Z</time>
      </trkpt>
      <trkpt lat="43.98946" lon="6.76582">
        <ele>587</ele>
        <time>2013-09-22T12:25:45Z</time>
      </trkpt>
      <trkpt lat="43.98911" lon="6.76529">
        <ele>586</ele>
        <time>2013-09-22T12:25:54Z</time>
      </trkpt>
      <trkpt lat="43.98893" lon="6.76501">
        <ele>586</ele>
        <time>2013-09-22T12:25:59Z</time>
      </trkpt>
      <trkpt lat="43.98876" lon="6.76488">
        <ele>586</ele>
        <time>2013-09-22T12:26:02Z</time>
      </trkpt>
      <trkpt lat="43.9884" lon="6.76475">
        <ele>585</ele>
        <time>2013-09-22T12:26:08Z</time>
      </trkpt>
      <trkpt lat="43.9878" lon="6.76461">
        <ele>585</ele>
        <time>2013-09-22T12:26:17Z</time>
      </trkpt>
      <trkpt lat="43.98758" lon="6.76444">
        <ele>584</ele>
        <time>2013-09-22T12:26:21Z</time>
      </trkpt>
      <trkpt lat="43.98713" lon="6.76402">
        <ele>584</ele>
        <time>2013-09-22T12:26:30Z</time>
      </trkpt>
      <trkpt lat="43.98642" lon="6.76386">
        <ele>583</ele>
        <time>2013-09-22T12:26:42Z</time>
      </trkpt>
      <trkpt lat="43.98574" lon="6.76357">
        <ele>582</ele>
        <time>2013-09-22T12:26:55Z</time>
      </trkpt>
      <trkpt lat="43.98501" lon="6.76293">
        <ele>580</ele>
        <time>2013-09-22T12:27:11Z</time>
      </trkpt>
      <trkpt lat="43.98478" lon="6.76264">
        <ele>580</ele>
        <time>2013-09-22T12:27:17Z</time>
      </trkpt>
      <trkpt lat="43.98469" lon="6.76222">
        <ele>579</ele>
        <time>2013-09-22T12:27:23Z</time>
      </trkpt>
      <trkpt lat="43.98466" lon="6.76194">
        <ele>579</ele>
        <time>2013-09-22T12:27:27Z</time>
      </trkpt>
      <trkpt lat="43.98455" lon="6.76159">
        <ele>578</ele>
        <time>2013-09-22T12:27:32Z</time>
      </trkpt>
      <trkpt lat="43.98444" lon="6.76128">
        <ele>578</ele>
        <time>2013-09-22T12:27:36Z</time>
      </trkpt>
      <trkpt lat="43.9841" lon="6.76073">
        <ele>577</ele>
        <time>2013-09-22T12:27:44Z</time>
      </trkpt>
      <trkpt lat="43.98393" lon="6.76023">
        <ele>577</ele>
        <time>2013-09-22T12:27:50Z</time>
      </trkpt>
      <trkpt lat="43.98362" lon="6.75999">
        <ele>576</ele>
        <time>2013-09-22T12:27:55Z</time>
      </trkpt>
      <trkpt lat="43.98326" lon="6.75963">
        <ele>576</ele>
        <time>2013-09-22T12:28:01Z</time>
      </trkpt>
      <trkpt lat="43.98237" lon="6.759">
        <ele>574</ele>
        <time>2013-09-22T12:28:15Z</time>
      </trkpt>
      <trkpt lat="43.98154" lon="6.75827">
        <ele>573</ele>
        <time>2013-09-22T12:28:31Z</time>
      </trkpt>
      <trkpt lat="43.98127" lon="6.75805">
        <ele>572</ele>
        <time>2013-09-22T12:28:36Z</time>
      </trkpt>
      <trkpt lat="43.9808" lon="6.75807">
        <ele>572</ele>
        <time>2013-09-22T12:28:44Z</time>
      </trkpt>
      <trkpt lat="43.98026" lon="6.75826">
        <ele>571</ele>
        <time>2013-09-22T12:28:53Z</time>
      </trkpt>
      <trkpt lat="43.97923" lon="6.75826">
        <ele>569</ele>
        <time>2013-09-22T12:29:09Z</time>
      </trkpt>
      <trkpt lat="43.97845" lon="6.75812">
        <ele>568</ele>
        <time>2013-09-22T12:29:21Z</time>
      </trkpt>
      <trkpt lat="43.97795" lon="6.75813">
        <ele>568</ele>
        <time>2013-09-22T12:29:29Z</time>
      </trkpt>
      <trkpt lat="43.97734" lon="6.75818">
        <ele>567</ele>
        <time>2013-09-22T12:29:38Z</time>
      </trkpt>
      <trkpt lat="43.9766" lon="6.75848">
        <ele>566</ele>
        <time>2013-09-22T12:29:49Z</time>
      </trkpt>
      <trkpt lat="43.97628" lon="6.75872">
        <ele>565</ele>
        <time>2013-09-22T12:29:54Z</time>
      </trkpt>
      <trkpt lat="43.97567" lon="6.75941">
        <ele>564</ele>
        <time>2013-09-22T12:30:04Z</time>
      </trkpt>
      <trkpt lat="43.97525" lon="6.75938">
        <ele>564</ele>
        <time>2013-09-22T12:30:09Z</time>
      </trkpt>
      <trkpt lat="43.97484" lon="6.75937">
        <ele>563</ele>
        <time>2013-09-22T12:30:14Z</time>
      </trkpt>
      <trkpt lat="43.97447" lon="6.7593">
        <ele>562</ele>
        <time>2013-09-22T12:30:19Z</time>
      </trkpt>
      <trkpt lat="43.97433" lon="6.75928">
        <ele>562</ele>
        <time>2013-09-22T12:30:21Z</time>
      </trkpt>
      <trkpt lat="43.97366" lon="6.75898">
        <ele>561</ele>
        <time>2013-09-22T12:30:31Z</time>
      </trkpt>
      <trkpt lat="43.97331" lon="6.7589">
        <ele>561</ele>
        <time>2013-09-22T12:30:36Z</time>
      </trkpt>
      <trkpt lat="43.97294" lon="6.75878">
        <ele>560</ele>
        <time>2013-09-22T12:30:41Z</time>
      </trkpt>
      <trkpt lat="43.97235" lon="6.75852">
        <ele>559</ele>
        <time>2013-09-22T12:30:49Z</time>
      </trkpt>
      <trkpt lat="43.97196" lon="6.7585">
        <ele>559</ele>
        <time>2013-09-22T12:30:54Z</time>
      </trkpt>
      <trkpt lat="43.97166" lon="6.7587">
        <ele>559</ele>
        <time>2013-09-22T12:30:58Z</time>
      </trkpt>
      <trkpt lat="43.97113" lon="6.75914">
        <ele>558</ele>
        <time>2013-09-22T12:31:07Z</time>
      </trkpt>
      <trkpt lat="43.97081" lon="6.7598">
        <ele>557</ele>
        <time>2013-09-22T12:31:19Z</time>
      </trkpt>
      <trkpt lat="43.97081" lon="6.75993">
        <ele>557</ele>
        <time>2013-09-22T12:31:22Z</time>
      </trkpt>
      <trkpt lat="43.97089" lon="6.75997">
        <ele>556</ele>
        <time>2013-09-22T12:31:28Z</time>
      </trkpt>
      <trkpt lat="43.97093" lon="6.75999">
        <ele>552</ele>
        <time>2013-09-22T12:33:01Z</time>
      </trkpt>
      <trkpt lat="43.97095" lon="6.75998">
        <ele>554</ele>
        <time>2013-09-22T12:34:41Z</time>
      </trkpt>
      <trkpt lat="43.971" lon="6.75998">
        <ele>555</ele>
        <time>2013-09-22T12:34:44Z</time>
      </trkpt>
      <trkpt lat="43.97121" lon="6.7602">
        <ele>555</ele>
        <time>2013-09-22T12:34:55Z</time>
      </trkpt>
      <trkpt lat="43.97149" lon="6.76078">
        <ele>554</ele>
        <time>2013-09-22T12:35:06Z</time>
      </trkpt>
      <trkpt lat="43.97158" lon="6.76155">
        <ele>554</ele>
        <time>2013-09-22T12:35:16Z</time>
      </trkpt>
      <trkpt lat="43.97191" lon="6.76286">
        <ele>554</ele>
        <time>2013-09-22T12:35:32Z</time>
      </trkpt>
      <trkpt lat="43.97229" lon="6.76418">
        <ele>553</ele>
        <time>2013-09-22T12:35:47Z</time>
      </trkpt>
      <trkpt lat="43.97246" lon="6.76516">
        <ele>553</ele>
        <time>2013-09-22T12:35:57Z</time>
      </trkpt>
      <trkpt lat="43.97266" lon="6.76628">
        <ele>553</ele>
        <time>2013-09-22T12:36:08Z</time>
      </trkpt>
      <trkpt lat="43.97266" lon="6.76696">
        <ele>552</ele>
        <time>2013-09-22T12:36:15Z</time>
      </trkpt>
      <trkpt lat="43.97249" lon="6.76767">
        <ele>552</ele>
        <time>2013-09-22T12:36:23Z</time>
      </trkpt>
      <trkpt lat="43.97212" lon="6.76894">
        <ele>552</ele>
        <time>2013-09-22T12:36:38Z</time>
      </trkpt>
      <trkpt lat="43.97206" lon="6.77041">
        <ele>551</ele>
        <time>2013-09-22T12:36:54Z</time>
      </trkpt>
      <trkpt lat="43.97216" lon="6.77161">
        <ele>551</ele>
        <time>2013-09-22T12:37:08Z</time>
      </trkpt>
      <trkpt lat="43.97232" lon="6.77281">
        <ele>551</ele>
        <time>2013-09-22T12:37:23Z</time>
      </trkpt>
      <trkpt lat="43.97228" lon="6.77402">
        <ele>549</ele>
        <time>2013-09-22T12:37:39Z</time>
      </trkpt>
      <trkpt lat="43.97213" lon="6.77466">
        <ele>548</ele>
        <time>2013-09-22T12:37:47Z</time>
      </trkpt>
      <trkpt lat="43.97181" lon="6.77527">
        <ele>547</ele>
        <time>2013-09-22T12:37:56Z</time>
      </trkpt>
      <trkpt lat="43.97171" lon="6.77588">
        <ele>546</ele>
        <time>2013-09-22T12:38:03Z</time>
      </trkpt>
      <trkpt lat="43.97165" lon="6.77688">
        <ele>544</ele>
        <time>2013-09-22T12:38:14Z</time>
      </trkpt>
      <trkpt lat="43.97141" lon="6.77763">
        <ele>543</ele>
        <time>2013-09-22T12:38:23Z</time>
      </trkpt>
      <trkpt lat="43.97105" lon="6.77789">
        <ele>541</ele>
        <time>2013-09-22T12:38:29Z</time>
      </trkpt>
      <trkpt lat="43.97056" lon="6.77768">
        <ele>540</ele>
        <time>2013-09-22T12:38:36Z</time>
      </trkpt>
      <trkpt lat="43.97025" lon="6.77728">
        <ele>539</ele>
        <time>2013-09-22T12:38:42Z</time>
      </trkpt>
      <trkpt lat="43.96991" lon="6.77697">
        <ele>537</ele>
        <time>2013-09-22T12:38:48Z</time>
      </trkpt>
      <trkpt lat="43.96962" lon="6.77699">
        <ele>537</ele>
        <time>2013-09-22T12:38:52Z</time>
      </trkpt>
      <trkpt lat="43.96886" lon="6.77715">
        <ele>534</ele>
        <time>2013-09-22T12:39:04Z</time>
      </trkpt>
      <trkpt lat="43.96808" lon="6.7776">
        <ele>532</ele>
        <time>2013-09-22T12:39:16Z</time>
      </trkpt>
      <trkpt lat="43.96761" lon="6.77774">
        <ele>531</ele>
        <time>2013-09-22T12:39:22Z</time>
      </trkpt>
      <trkpt lat="43.96716" lon="6.7779">
        <ele>531</ele>
        <time>2013-09-22T12:39:28Z</time>
      </trkpt>
      <trkpt lat="43.96667" lon="6.77832">
        <ele>530</ele>
        <time>2013-09-22T12:39:36Z</time>
      </trkpt>
      <trkpt lat="43.96618" lon="6.77913">
        <ele>528</ele>
        <time>2013-09-22T12:39:47Z</time>
      </trkpt>
      <trkpt lat="43.96556" lon="6.78018">
        <ele>527</ele>
        <time>2013-09-22T12:40:01Z</time>
      </trkpt>
      <trkpt lat="43.96504" lon="6.78122">
        <ele>526</ele>
        <time>2013-09-22T12:40:14Z</time>
      </trkpt>
      <trkpt lat="43.96452" lon="6.78229">
        <ele>525</ele>
        <time>2013-09-22T12:40:29Z</time>
      </trkpt>
      <trkpt lat="43.9642" lon="6.78273">
        <ele>525</ele>
        <time>2013-09-22T12:40:38Z</time>
      </trkpt>
      <trkpt lat="43.96379" lon="6.78323">
        <ele>524</ele>
        <time>2013-09-22T12:40:48Z</time>
      </trkpt>
      <trkpt lat="43.96335" lon="6.78407">
        <ele>523</ele>
        <time>2013-09-22T12:41:01Z</time>
      </trkpt>
      <trkpt lat="43.96293" lon="6.78461">
        <ele>523</ele>
        <time>2013-09-22T12:41:11Z</time>
      </trkpt>
      <trkpt lat="43.96228" lon="6.78549">
        <ele>522</ele>
        <time>2013-09-22T12:41:27Z</time>
      </trkpt>
      <trkpt lat="43.96208" lon="6.786">
        <ele>522</ele>
        <time>2013-09-22T12:41:34Z</time>
      </trkpt>
      <trkpt lat="43.96176" lon="6.78676">
        <ele>522</ele>
        <time>2013-09-22T12:41:47Z</time>
      </trkpt>
      <trkpt lat="43.96156" lon="6.78739">
        <ele>521</ele>
        <time>2013-09-22T12:41:59Z</time>
      </trkpt>
      <trkpt lat="43.96152" lon="6.7879">
        <ele>521</ele>
        <time>2013-09-22T12:42:07Z</time>
      </trkpt>
      <trkpt lat="43.96144" lon="6.7885">
        <ele>520</ele>
        <time>2013-09-22T12:42:15Z</time>
      </trkpt>
      <trkpt lat="43.9613" lon="6.78885">
        <ele>520</ele>
        <time>2013-09-22T12:42:19Z</time>
      </trkpt>
      <trkpt lat="43.96085" lon="6.7898">
        <ele>518</ele>
        <time>2013-09-22T12:42:30Z</time>
      </trkpt>
      <trkpt lat="43.96027" lon="6.79104">
        <ele>517</ele>
        <time>2013-09-22T12:42:46Z</time>
      </trkpt>
      <trkpt lat="43.95995" lon="6.79176">
        <ele>516</ele>
        <time>2013-09-22T12:42:55Z</time>
      </trkpt>
      <trkpt lat="43.95945" lon="6.79273">
        <ele>515</ele>
        <time>2013-09-22T12:43:08Z</time>
      </trkpt>
      <trkpt lat="43.95939" lon="6.79312">
        <ele>514</ele>
        <time>2013-09-22T12:43:13Z</time>
      </trkpt>
      <trkpt lat="43.9591" lon="6.79443">
        <ele>513</ele>
        <time>2013-09-22T12:43:30Z</time>
      </trkpt>
      <trkpt lat="43.95859" lon="6.79552">
        <ele>511</ele>
        <time>2013-09-22T12:43:47Z</time>
      </trkpt>
      <trkpt lat="43.95832" lon="6.7958">
        <ele>511</ele>
        <time>2013-09-22T12:43:53Z</time>
      </trkpt>
      <trkpt lat="43.95755" lon="6.79626">
        <ele>509</ele>
        <time>2013-09-22T12:44:06Z</time>
      </trkpt>
      <trkpt lat="43.9568" lon="6.79701">
        <ele>508</ele>
        <time>2013-09-22T12:44:18Z</time>
      </trkpt>
      <trkpt lat="43.9563" lon="6.79774">
        <ele>506</ele>
        <time>2013-09-22T12:44:27Z</time>
      </trkpt>
      <trkpt lat="43.95559" lon="6.79904">
        <ele>504</ele>
        <time>2013-09-22T12:44:41Z</time>
      </trkpt>
      <trkpt lat="43.95521" lon="6.79995">
        <ele>502</ele>
        <time>2013-09-22T12:44:50Z</time>
      </trkpt>
      <trkpt lat="43.95493" lon="6.80063">
        <ele>501</ele>
        <time>2013-09-22T12:44:57Z</time>
      </trkpt>
      <trkpt lat="43.95462" lon="6.80177">
        <ele>500</ele>
        <time>2013-09-22T12:45:08Z</time>
      </trkpt>
      <trkpt lat="43.95409" lon="6.80309">
        <ele>498</ele>
        <time>2013-09-22T12:45:21Z</time>
      </trkpt>
      <trkpt lat="43.95382" lon="6.80379">
        <ele>498</ele>
        <time>2013-09-22T12:45:28Z</time>
      </trkpt>
      <trkpt lat="43.95335" lon="6.80498">
        <ele>496</ele>
        <time>2013-09-22T12:45:41Z</time>
      </trkpt>
      <trkpt lat="43.95294" lon="6.80602">
        <ele>495</ele>
        <time>2013-09-22T12:45:53Z</time>
      </trkpt>
      <trkpt lat="43.95266" lon="6.80664">
        <ele>494</ele>
        <time>2013-09-22T12:46:02Z</time>
      </trkpt>
      <trkpt lat="43.95253" lon="6.80681">
        <ele>494</ele>
        <time>2013-09-22T12:46:06Z</time>
      </trkpt>
      <trkpt lat="43.95219" lon="6.80724">
        <ele>493</ele>
        <time>2013-09-22T12:46:16Z</time>
      </trkpt>
      <trkpt lat="43.95202" lon="6.80753">
        <ele>492</ele>
        <time>2013-09-22T12:46:22Z</time>
      </trkpt>
      <trkpt lat="43.9517" lon="6.80816">
        <ele>492</ele>
        <time>2013-09-22T12:46:35Z</time>
      </trkpt>
      <trkpt lat="43.95158" lon="6.8084">
        <ele>491</ele>
        <time>2013-09-22T12:46:39Z</time>
      </trkpt>
      <trkpt lat="43.95135" lon="6.80901">
        <ele>490</ele>
        <time>2013-09-22T12:46:48Z</time>
      </trkpt>
      <trkpt lat="43.95116" lon="6.80938">
        <ele>490</ele>
        <time>2013-09-22T12:46:54Z</time>
      </trkpt>
      <trkpt lat="43.95081" lon="6.80942">
        <ele>489</ele>
        <time>2013-09-22T12:47:01Z</time>
      </trkpt>
      <trkpt lat="43.9506" lon="6.80928">
        <ele>489</ele>
        <time>2013-09-22T12:47:05Z</time>
      </trkpt>
      <trkpt lat="43.9502" lon="6.80906">
        <ele>488</ele>
        <time>2013-09-22T12:47:15Z</time>
      </trkpt>
      <trkpt lat="43.95007" lon="6.80905">
        <ele>488</ele>
        <time>2013-09-22T12:47:18Z</time>
      </trkpt>
      <trkpt lat="43.9499" lon="6.80909">
        <ele>487</ele>
        <time>2013-09-22T12:47:22Z</time>
      </trkpt>
      <trkpt lat="43.9497" lon="6.80923">
        <ele>487</ele>
        <time>2013-09-22T12:47:27Z</time>
      </trkpt>
      <trkpt lat="43.94951" lon="6.80951">
        <ele>487</ele>
        <time>2013-09-22T12:47:34Z</time>
      </trkpt>
      <trkpt lat="43.94927" lon="6.80995">
        <ele>486</ele>
        <time>2013-09-22T12:47:47Z</time>
      </trkpt>
      <trkpt lat="43.94912" lon="6.81026">
        <ele>486</ele>
        <time>2013-09-22T12:47:57Z</time>
      </trkpt>
      <trkpt lat="43.9491" lon="6.81025">
        <ele>486</ele>
        <time>2013-09-22T12:47:58Z</time>
      </trkpt>
    </trkseg>
  </trk>
</gpx>